GFSNE_prec_precacc_015.txt.gz
Total_Precipitation_Accumulation
0.00 0.00 0.00 0.00 0.00 0.00 0.02 0.07 0.13 0.07 0.01 0.00 0.01 0.02 0.03 0.04 0.04 0.07 0.08 0.05 0.05 0.06 0.06 0.05 0.05 0.06 0.07 0.09 0.13 0.21 0.34 0.48 0.58 0.58 0.58 0.62 0.64 0.69
0.00 0.00 0.00 0.00 0.00 0.00 0.01 0.02 0.06 0.11 0.06 0.00 0.00 0.02 0.04 0.05 0.03 0.05 0.06 0.10 0.11 0.09 0.08 0.09 0.10 0.12 0.15 0.16 0.16 0.16 0.19 0.22 0.23 0.27 0.35 0.48 0.58 0.62
0.00 0.00 0.00 0.00 0.00 0.00 0.00 0.00 0.00 0.04 0.07 0.00 0.00 0.00 0.02 0.03 0.03 0.05 0.05 0.03 0.03 0.07 0.12 0.12 0.10 0.12 0.17 0.20 0.22 0.25 0.30 0.31 0.29 0.26 0.28 0.32 0.36 0.40
0.00 0.00 0.00 0.00 0.00 0.00 0.00 0.00 0.00 0.02 0.05 0.04 0.00 0.00 0.00 0.01 0.02 0.03 0.04 0.06 0.05 0.04 0.08 0.09 0.09 0.11 0.13 0.14 0.15 0.18 0.24 0.30 0.38 0.44 0.45 0.43 0.38 0.42
0.00 0.00 0.00 0.00 0.00 0.00 0.00 0.00 0.01 0.02 0.03 0.06 0.02 0.00 0.01 0.01 0.02 0.03 0.03 0.04 0.04 0.07 0.11 0.13 0.13 0.13 0.12 0.12 0.16 0.21 0.26 0.32 0.38 0.41 0.48 0.58 0.65 0.63
0.00 0.00 0.00 0.00 0.00 0.00 0.00 0.01 0.02 0.03 0.03 0.05 0.05 0.03 0.02 0.01 0.03 0.03 0.04 0.04 0.04 0.03 0.06 0.12 0.14 0.15 0.15 0.17 0.20 0.25 0.27 0.32 0.45 0.51 0.54 0.58 0.59 0.60
0.00 0.00 0.00 0.00 0.00 0.00 0.01 0.02 0.04 0.04 0.05 0.07 0.07 0.05 0.03 0.03 0.04 0.04 0.06 0.04 0.03 0.03 0.06 0.11 0.11 0.10 0.08 0.16 0.25 0.28 0.30 0.33 0.43 0.59 0.69 0.76 0.81 0.80
0.00 0.00 0.00 0.00 0.00 0.00 0.01 0.02 0.04 0.08 0.08 0.11 0.08 0.05 0.02 0.02 0.02 0.08 0.13 0.15 0.11 0.02 0.04 0.04 0.05 0.06 0.08 0.15 0.22 0.22 0.27 0.35 0.41 0.47 0.52 0.50 0.50 0.55
0.00 0.00 0.00 0.00 0.01 0.01 0.01 0.02 0.06 0.08 0.06 0.05 0.05 0.05 0.06 0.08 0.18 0.26 0.17 0.11 0.06 0.02 0.06 0.08 0.08 0.09 0.12 0.15 0.23 0.28 0.35 0.42 0.48 0.50 0.47 0.46 0.49 0.48
0.00 0.00 0.00 0.01 0.01 0.01 0.03 0.11 0.06 0.02 0.00 0.01 0.04 0.09 0.17 0.19 0.17 0.10 0.07 0.08 0.06 0.04 0.09 0.19 0.09 0.10 0.08 0.15 0.30 0.23 0.28 0.36 0.43 0.46 0.44 0.39 0.39 0.49
0.00 0.00 0.02 0.02 0.01 0.05 0.14 0.10 0.01 0.00 0.00 0.03 0.08 0.08 0.04 0.02 0.03 0.14 0.22 0.22 0.16 0.05 0.06 0.18 0.13 0.12 0.11 0.17 0.33 0.38 0.35 0.35 0.37 0.35 0.32 0.31 0.35 0.35
0.01 0.02 0.01 0.01 0.04 0.16 0.07 0.03 0.07 0.03 0.04 0.03 0.01 0.00 0.01 0.02 0.06 0.14 0.31 0.49 0.27 0.20 0.07 0.27 0.18 0.16 0.26 0.17 0.34 0.43 0.42 0.43 0.38 0.35 0.30 0.28 0.28 0.28
0.08 0.01 0.00 0.05 0.14 0.04 0.01 0.03 0.05 0.03 0.02 0.01 0.00 0.00 0.01 0.01 0.03 0.07 0.16 0.42 0.45 0.28 0.10 0.40 0.36 0.20 0.30 0.25 0.37 0.47 0.43 0.47 0.42 0.41 0.38 0.33 0.27 0.21
0.03 0.02 0.08 0.13 0.01 0.01 0.01 0.02 0.03 0.02 0.01 0.02 0.02 0.02 0.02 0.02 0.02 0.03 0.07 0.14 0.25 0.32 0.16 0.25 0.39 0.22 0.30 0.38 0.43 0.48 0.48 0.53 0.42 0.32 0.24 0.30 0.38 0.35
0.04 0.12 0.10 0.01 0.00 0.00 0.00 0.01 0.01 0.01 0.04 0.07 0.06 0.03 0.02 0.02 0.03 0.04 0.10 0.16 0.19 0.23 0.25 0.29 0.37 0.40 0.47 0.44 0.36 0.39 0.48 0.61 0.54 0.35 0.32 0.26 0.23 0.21
0.14 0.11 0.00 0.00 0.00 0.00 0.00 0.00 0.00 0.01 0.06 0.14 0.12 0.05 0.02 0.03 0.04 0.11 0.23 0.24 0.28 0.27 0.32 0.38 0.41 0.42 0.37 0.34 0.33 0.35 0.41 0.49 0.56 0.46 0.34 0.36 0.35 0.30
0.05 0.00 0.00 0.00 0.00 0.00 0.00 0.00 0.00 0.00 0.03 0.06 0.10 0.09 0.06 0.06 0.09 0.18 0.35 0.43 0.45 0.40 0.40 0.39 0.31 0.27 0.32 0.30 0.32 0.34 0.30 0.38 0.50 0.43 0.25 0.27 0.33 0.33
0.00 0.00 0.01 0.01 0.01 0.01 0.01 0.01 0.00 0.01 0.05 0.11 0.12 0.12 0.16 0.16 0.20 0.25 0.44 0.52 0.48 0.44 0.43 0.38 0.28 0.22 0.25 0.26 0.28 0.29 0.28 0.33 0.40 0.31 0.18 0.13 0.23 0.25
0.01 0.03 0.03 0.02 0.02 0.02 0.02 0.02 0.02 0.03 0.10 0.20 0.23 0.24 0.22 0.21 0.28 0.37 0.47 0.47 0.47 0.41 0.30 0.18 0.15 0.18 0.21 0.18 0.20 0.21 0.19 0.27 0.23 0.17 0.12 0.07 0.11 0.17
0.04 0.04 0.02 0.02 0.02 0.02 0.02 0.04 0.07 0.08 0.14 0.23 0.29 0.28 0.29 0.31 0.34 0.40 0.45 0.41 0.33 0.20 0.08 0.04 0.04 0.11 0.14 0.14 0.10 0.17 0.17 0.18 0.11 0.08 0.09 0.08 0.09 0.11
0.04 0.02 0.02 0.02 0.02 0.03 0.03 0.07 0.10 0.19 0.31 0.35 0.30 0.32 0.30 0.34 0.36 0.37 0.34 0.24 0.09 0.03 0.02 0.02 0.02 0.01 0.03 0.04 0.06 0.09 0.13 0.11 0.07 0.04 0.06 0.05 0.05 0.07
0.02 0.02 0.02 0.01 0.02 0.04 0.07 0.11 0.16 0.19 0.25 0.28 0.32 0.35 0.37 0.37 0.32 0.23 0.13 0.05 0.03 0.02 0.01 0.01 0.00 0.00 0.00 0.01 0.02 0.03 0.03 0.04 0.03 0.02 0.01 0.01 0.01 0.02
0.02 0.03 0.02 0.02 0.03 0.05 0.09 0.12 0.20 0.25 0.28 0.35 0.35 0.35 0.29 0.20 0.10 0.05 0.03 0.03 0.03 0.03 0.02 0.03 0.02 0.01 0.01 0.01 0.01 0.01 0.02 0.02 0.01 0.02 0.03 0.02 0.02 0.03

GFSNE_prec_precacc_018.txt.gz
Total_Precipitation_Accumulation
0.00 0.00 0.00 0.00 0.00 0.00 0.02 0.07 0.13 0.07 0.01 0.00 0.01 0.02 0.03 0.04 0.04 0.07 0.08 0.05 0.05 0.06 0.06 0.05 0.05 0.06 0.07 0.09 0.13 0.21 0.34 0.48 0.58 0.58 0.59 0.63 0.66 0.72
0.00 0.00 0.00 0.00 0.00 0.00 0.01 0.02 0.06 0.11 0.06 0.00 0.00 0.02 0.04 0.05 0.03 0.05 0.06 0.10 0.11 0.09 0.08 0.09 0.10 0.12 0.15 0.16 0.16 0.16 0.19 0.22 0.23 0.27 0.35 0.49 0.60 0.65
0.00 0.00 0.00 0.00 0.00 0.00 0.00 0.00 0.00 0.04 0.07 0.00 0.00 0.00 0.02 0.03 0.03 0.05 0.05 0.03 0.03 0.07 0.12 0.12 0.10 0.12 0.17 0.20 0.22 0.26 0.30 0.31 0.29 0.27 0.29 0.33 0.38 0.43
0.00 0.00 0.00 0.00 0.00 0.00 0.00 0.00 0.00 0.02 0.05 0.04 0.01 0.00 0.00 0.01 0.02 0.03 0.04 0.06 0.05 0.04 0.08 0.09 0.09 0.11 0.13 0.14 0.15 0.19 0.25 0.31 0.39 0.46 0.48 0.45 0.39 0.42
0.00 0.00 0.00 0.00 0.00 0.00 0.00 0.00 0.01 0.02 0.04 0.07 0.03 0.00 0.01 0.01 0.02 0.03 0.03 0.04 0.04 0.07 0.11 0.13 0.13 0.13 0.12 0.12 0.17 0.22 0.28 0.35 0.41 0.43 0.50 0.60 0.66 0.63
0.00 0.00 0.00 0.00 0.00 0.00 0.00 0.01 0.02 0.03 0.03 0.05 0.06 0.04 0.02 0.02 0.03 0.03 0.04 0.04 0.04 0.03 0.06 0.12 0.14 0.15 0.15 0.18 0.21 0.26 0.28 0.32 0.45 0.51 0.55 0.59 0.60 0.60
0.00 0.00 0.00 0.00 0.00 0.00 0.01 0.02 0.04 0.05 0.07 0.10 0.09 0.09 0.06 0.04 0.04 0.04 0.06 0.04 0.03 0.03 0.06 0.11 0.11 0.10 0.09 0.16 0.25 0.28 0.30 0.34 0.44 0.60 0.70 0.77 0.82 0.81
0.00 0.00 0.00 0.00 0.00 0.00 0.01 0.02 0.05 0.11 0.10 0.16 0.14 0.09 0.03 0.02 0.03 0.08 0.13 0.16 0.12 0.02 0.04 0.04 0.05 0.06 0.08 0.15 0.23 0.24 0.28 0.36 0.42 0.48 0.52 0.51 0.51 0.55
0.00 0.00 0.00 0.00 0.01 0.01 0.01 0.03 0.07 0.12 0.09 0.06 0.06 0.06 0.07 0.08 0.19 0.28 0.19 0.13 0.07 0.02 0.07 0.09 0.08 0.10 0.13 0.16 0.24 0.28 0.35 0.43 0.49 0.52 0.48 0.47 0.50 0.49
0.00 0.00 0.00 0.01 0.01 0.02 0.04 0.12 0.07 0.02 0.00 0.02 0.04 0.09 0.18 0.20 0.17 0.11 0.08 0.09 0.07 0.04 0.10 0.21 0.10 0.10 0.08 0.16 0.30 0.23 0.29 0.40 0.48 0.50 0.47 0.41 0.41 0.50
0.00 0.00 0.02 0.02 0.01 0.07 0.16 0.11 0.01 0.00 0.00 0.04 0.09 0.09 0.04 0.02 0.03 0.15 0.23 0.25 0.17 0.05 0.06 0.19 0.14 0.12 0.11 0.17 0.33 0.39 0.40 0.41 0.40 0.35 0.32 0.31 0.35 0.36
0.01 0.02 0.01 0.01 0.05 0.20 0.08 0.03 0.07 0.03 0.05 0.04 0.01 0.00 0.01 0.02 0.06 0.14 0.32 0.55 0.30 0.22 0.07 0.27 0.19 0.17 0.29 0.18 0.34 0.44 0.42 0.44 0.39 0.36 0.30 0.29 0.29 0.29
0.08 0.02 0.01 0.06 0.17 0.06 0.01 0.03 0.05 0.04 0.03 0.01 0.00 0.00 0.01 0.01 0.04 0.07 0.16 0.45 0.52 0.33 0.10 0.43 0.43 0.21 0.33 0.27 0.38 0.47 0.43 0.50 0.50 0.53 0.50 0.35 0.28 0.22
0.03 0.02 0.08 0.15 0.03 0.01 0.01 0.02 0.03 0.02 0.01 0.02 0.03 0.02 0.02 0.02 0.02 0.03 0.07 0.14 0.26 0.35 0.17 0.27 0.47 0.25 0.36 0.42 0.44 0.48 0.49 0.57 0.57 0.61 0.43 0.36 0.41 0.37
0.04 0.13 0.13 0.01 0.00 0.00 0.01 0.01 0.01 0.01 0.04 0.09 0.08 0.04 0.02 0.03 0.03 0.04 0.11 0.16 0.19 0.23 0.26 0.32 0.46 0.48 0.51 0.45 0.36 0.39 0.50 0.64 0.70 0.57 0.39 0.33 0.26 0.22
0.16 0.14 0.01 0.00 0.00 0.00 0.00 0.00 0.00 0.01 0.06 0.16 0.15 0.06 0.02 0.03 0.05 0.13 0.27 0.26 0.32 0.29 0.34 0.41 0.44 0.44 0.38 0.35 0.34 0.36 0.43 0.54 0.64 0.55 0.42 0.45 0.47 0.34
0.06 0.00 0.00 0.00 0.00 0.00 0.00 0.00 0.00 0.01 0.05 0.08 0.13 0.10 0.07 0.07 0.10 0.19 0.38 0.48 0.52 0.45 0.42 0.40 0.32 0.28 0.33 0.34 0.35 0.36 0.32 0.43 0.59 0.58 0.39 0.40 0.52 0.53
0.00 0.00 0.01 0.01 0.02 0.01 0.01 0.01 0.01 0.02 0.07 0.13 0.14 0.14 0.18 0.19 0.22 0.26 0.46 0.56 0.52 0.47 0.46 0.41 0.30 0.23 0.27 0.29 0.30 0.32 0.32 0.41 0.48 0.43 0.34 0.22 0.41 0.59
0.01 0.03 0.03 0.02 0.02 0.02 0.02 0.03 0.04 0.04 0.12 0.22 0.26 0.26 0.25 0.22 0.29 0.39 0.49 0.48 0.47 0.42 0.30 0.20 0.18 0.21 0.24 0.20 0.22 0.28 0.24 0.34 0.29 0.23 0.19 0.16 0.22 0.38
0.04 0.05 0.02 0.02 0.02 0.03 0.04 0.06 0.10 0.09 0.15 0.24 0.30 0.29 0.30 0.34 0.37 0.42 0.46 0.43 0.34 0.21 0.08 0.04 0.06 0.16 0.19 0.19 0.16 0.29 0.27 0.25 0.14 0.12 0.14 0.14 0.19 0.23
0.04 0.03 0.02 0.02 0.03 0.04 0.06 0.09 0.13 0.21 0.33 0.36 0.31 0.33 0.31 0.37 0.38 0.40 0.36 0.26 0.11 0.04 0.03 0.02 0.02 0.04 0.09 0.09 0.11 0.17 0.28 0.22 0.11 0.05 0.08 0.06 0.09 0.11
0.02 0.02 0.02 0.02 0.04 0.07 0.11 0.13 0.17 0.20 0.26 0.29 0.34 0.37 0.38 0.39 0.36 0.25 0.15 0.08 0.05 0.06 0.03 0.01 0.00 0.00 0.02 0.04 0.06 0.08 0.10 0.12 0.10 0.06 0.03 0.02 0.02 0.04
0.03 0.03 0.02 0.03 0.06 0.08 0.11 0.13 0.20 0.25 0.29 0.37 0.37 0.37 0.32 0.23 0.11 0.07 0.05 0.05 0.05 0.06 0.04 0.04 0.02 0.01 0.01 0.02 0.03 0.04 0.04 0.04 0.04 0.04 0.04 0.03 0.03 0.05

GFSNE_prec_precacc_021.txt.gz
Total_Precipitation_Accumulation
0.00 0.00 0.00 0.00 0.00 0.00 0.02 0.07 0.13 0.07 0.01 0.00 0.01 0.02 0.03 0.04 0.04 0.07 0.08 0.05 0.05 0.06 0.06 0.05 0.05 0.07 0.08 0.09 0.14 0.21 0.34 0.49 0.58 0.58 0.59 0.63 0.66 0.73
0.00 0.00 0.00 0.00 0.00 0.00 0.01 0.02 0.06 0.11 0.06 0.00 0.00 0.02 0.04 0.05 0.03 0.05 0.06 0.10 0.11 0.09 0.08 0.09 0.11 0.13 0.15 0.16 0.16 0.16 0.19 0.23 0.24 0.28 0.37 0.50 0.61 0.65
0.00 0.00 0.00 0.00 0.00 0.00 0.00 0.00 0.00 0.04 0.07 0.00 0.00 0.00 0.02 0.03 0.03 0.05 0.05 0.03 0.03 0.07 0.13 0.12 0.10 0.12 0.17 0.20 0.23 0.27 0.32 0.33 0.31 0.29 0.31 0.35 0.40 0.45
0.00 0.00 0.00 0.00 0.00 0.00 0.00 0.00 0.00 0.02 0.05 0.04 0.01 0.00 0.00 0.01 0.02 0.03 0.04 0.06 0.05 0.04 0.08 0.09 0.09 0.11 0.13 0.14 0.16 0.19 0.25 0.31 0.39 0.47 0.50 0.48 0.43 0.47
0.00 0.00 0.00 0.00 0.00 0.00 0.00 0.00 0.01 0.02 0.04 0.07 0.03 0.00 0.01 0.01 0.03 0.04 0.03 0.04 0.04 0.07 0.11 0.13 0.13 0.13 0.12 0.13 0.17 0.22 0.28 0.36 0.43 0.47 0.53 0.63 0.69 0.65
0.00 0.00 0.00 0.00 0.00 0.00 0.00 0.01 0.02 0.03 0.03 0.06 0.10 0.07 0.03 0.02 0.05 0.04 0.04 0.04 0.04 0.03 0.06 0.12 0.14 0.15 0.15 0.18 0.21 0.26 0.28 0.33 0.45 0.51 0.56 0.60 0.61 0.61
0.00 0.00 0.00 0.00 0.00 0.00 0.01 0.02 0.04 0.05 0.11 0.16 0.14 0.12 0.08 0.04 0.04 0.04 0.06 0.04 0.03 0.03 0.06 0.11 0.11 0.10 0.09 0.16 0.25 0.28 0.30 0.35 0.47 0.64 0.74 0.80 0.84 0.83
0.00 0.00 0.00 0.00 0.00 0.00 0.01 0.02 0.06 0.13 0.14 0.23 0.17 0.10 0.03 0.02 0.03 0.10 0.14 0.17 0.14 0.03 0.05 0.04 0.05 0.06 0.08 0.15 0.23 0.25 0.30 0.39 0.44 0.50 0.54 0.52 0.51 0.56
0.00 0.00 0.00 0.00 0.01 0.01 0.01 0.04 0.10 0.18 0.12 0.07 0.06 0.06 0.08 0.09 0.23 0.31 0.21 0.15 0.08 0.02 0.07 0.09 0.08 0.10 0.13 0.16 0.24 0.29 0.36 0.43 0.50 0.52 0.49 0.47 0.50 0.49
0.00 0.00 0.00 0.01 0.02 0.03 0.04 0.14 0.10 0.03 0.00 0.02 0.04 0.10 0.19 0.21 0.18 0.12 0.08 0.10 0.07 0.04 0.10 0.22 0.10 0.10 0.08 0.16 0.30 0.24 0.29 0.41 0.52 0.57 0.54 0.46 0.43 0.52
0.00 0.00 0.03 0.02 0.01 0.08 0.18 0.16 0.02 0.00 0.00 0.04 0.11 0.10 0.05 0.02 0.03 0.16 0.26 0.28 0.19 0.05 0.06 0.19 0.14 0.12 0.11 0.17 0.33 0.39 0.42 0.44 0.42 0.37 0.33 0.32 0.36 0.36
0.01 0.02 0.02 0.01 0.05 0.23 0.11 0.04 0.08 0.03 0.06 0.05 0.01 0.00 0.01 0.02 0.07 0.14 0.34 0.62 0.33 0.24 0.07 0.29 0.21 0.18 0.32 0.18 0.34 0.44 0.42 0.44 0.40 0.37 0.31 0.29 0.30 0.29
0.09 0.02 0.01 0.06 0.21 0.09 0.02 0.03 0.06 0.04 0.03 0.01 0.00 0.00 0.01 0.01 0.04 0.07 0.17 0.52 0.61 0.39 0.11 0.48 0.49 0.22 0.37 0.28 0.38 0.47 0.44 0.51 0.54 0.59 0.55 0.37 0.28 0.22
0.04 0.02 0.09 0.18 0.04 0.01 0.01 0.02 0.03 0.03 0.01 0.02 0.03 0.02 0.02 0.02 0.02 0.03 0.07 0.16 0.29 0.44 0.21 0.31 0.56 0.29 0.42 0.44 0.45 0.48 0.49 0.61 0.73 0.88 0.90 0.48 0.43 0.38
0.04 0.15 0.15 0.02 0.00 0.00 0.01 0.01 0.01 0.01 0.04 0.11 0.09 0.04 0.03 0.04 0.04 0.06 0.11 0.16 0.20 0.24 0.29 0.37 0.51 0.51 0.53 0.46 0.37 0.39 0.53 0.66 0.78 0.73 0.63 0.57 0.30 0.23
0.17 0.17 0.01 0.00 0.00 0.00 0.00 0.00 0.00 0.02 0.08 0.18 0.16 0.07 0.03 0.05 0.07 0.15 0.30 0.27 0.34 0.29 0.34 0.42 0.47 0.46 0.39 0.35 0.36 0.38 0.49 0.60 0.68 0.61 0.48 0.61 0.63 0.39
0.06 0.00 0.00 0.00 0.00 0.00 0.00 0.00 0.00 0.01 0.07 0.09 0.15 0.12 0.08 0.08 0.10 0.20 0.40 0.50 0.54 0.46 0.43 0.40 0.32 0.28 0.33 0.35 0.37 0.39 0.37 0.48 0.66 0.69 0.49 0.54 0.69 0.68
0.00 0.00 0.01 0.01 0.02 0.01 0.01 0.02 0.01 0.03 0.08 0.15 0.15 0.15 0.20 0.21 0.24 0.27 0.47 0.58 0.54 0.49 0.48 0.43 0.31 0.23 0.27 0.30 0.35 0.39 0.39 0.49 0.62 0.54 0.44 0.30 0.60 0.81
0.01 0.03 0.03 0.02 0.02 0.02 0.03 0.04 0.05 0.05 0.14 0.24 0.28 0.29 0.27 0.24 0.30 0.40 0.51 0.51 0.49 0.44 0.33 0.22 0.20 0.23 0.25 0.22 0.25 0.36 0.33 0.44 0.42 0.32 0.31 0.24 0.38 0.59
0.04 0.05 0.03 0.02 0.02 0.04 0.06 0.08 0.12 0.10 0.16 0.26 0.32 0.30 0.32 0.35 0.39 0.43 0.49 0.46 0.36 0.22 0.09 0.05 0.08 0.18 0.22 0.22 0.19 0.40 0.38 0.32 0.20 0.20 0.24 0.21 0.32 0.37
0.04 0.03 0.02 0.02 0.04 0.06 0.08 0.11 0.14 0.23 0.34 0.38 0.32 0.35 0.33 0.39 0.39 0.41 0.38 0.28 0.14 0.06 0.04 0.03 0.03 0.07 0.12 0.10 0.14 0.22 0.37 0.32 0.16 0.09 0.12 0.09 0.15 0.14
0.02 0.02 0.02 0.02 0.05 0.09 0.12 0.14 0.18 0.21 0.27 0.30 0.35 0.38 0.39 0.41 0.39 0.27 0.16 0.09 0.06 0.08 0.04 0.01 0.00 0.02 0.05 0.05 0.09 0.12 0.15 0.17 0.14 0.08 0.04 0.03 0.05 0.12
0.03 0.03 0.03 0.04 0.07 0.10 0.12 0.14 0.21 0.25 0.30 0.38 0.38 0.38 0.33 0.27 0.14 0.08 0.06 0.06 0.06 0.07 0.05 0.04 0.02 0.01 0.02 0.04 0.05 0.07 0.06 0.06 0.05 0.05 0.12 0.07 0.06 0.09

GFSNE_prec_precacc_024.txt.gz
Total_Precipitation_Accumulation
0.00 0.00 0.00 0.00 0.00 0.00 0.02 0.07 0.13 0.07 0.01 0.00 0.01 0.02 0.03 0.04 0.04 0.07 0.08 0.05 0.05 0.06 0.06 0.05 0.05 0.07 0.08 0.09 0.14 0.22 0.35 0.50 0.59 0.59 0.59 0.64 0.66 0.73
0.00 0.00 0.00 0.00 0.00 0.00 0.01 0.02 0.06 0.11 0.06 0.00 0.00 0.02 0.04 0.05 0.03 0.05 0.06 0.10 0.11 0.09 0.08 0.09 0.11 0.15 0.17 0.18 0.17 0.16 0.20 0.23 0.24 0.29 0.38 0.52 0.63 0.68
0.00 0.00 0.00 0.00 0.00 0.00 0.00 0.00 0.00 0.04 0.07 0.00 0.00 0.00 0.02 0.03 0.03 0.05 0.05 0.03 0.03 0.07 0.13 0.13 0.11 0.13 0.17 0.20 0.23 0.27 0.32 0.34 0.32 0.31 0.33 0.38 0.43 0.48
0.00 0.00 0.00 0.00 0.00 0.00 0.00 0.00 0.00 0.02 0.05 0.04 0.01 0.00 0.00 0.01 0.02 0.03 0.04 0.07 0.06 0.05 0.08 0.09 0.09 0.11 0.13 0.14 0.16 0.19 0.26 0.33 0.41 0.48 0.51 0.49 0.44 0.48
0.00 0.00 0.00 0.00 0.00 0.00 0.00 0.00 0.01 0.02 0.04 0.08 0.03 0.00 0.01 0.01 0.03 0.04 0.03 0.04 0.04 0.07 0.11 0.13 0.13 0.13 0.12 0.13 0.19 0.24 0.29 0.36 0.43 0.47 0.53 0.64 0.71 0.69
0.00 0.00 0.00 0.00 0.00 0.00 0.00 0.01 0.02 0.03 0.03 0.06 0.12 0.08 0.04 0.04 0.05 0.04 0.04 0.04 0.04 0.03 0.06 0.12 0.14 0.15 0.15 0.18 0.21 0.26 0.28 0.33 0.45 0.52 0.57 0.61 0.62 0.63
0.00 0.00 0.00 0.00 0.00 0.00 0.02 0.03 0.04 0.06 0.15 0.21 0.17 0.17 0.11 0.05 0.04 0.04 0.07 0.05 0.04 0.03 0.06 0.11 0.11 0.10 0.09 0.16 0.25 0.28 0.31 0.36 0.49 0.67 0.78 0.84 0.88 0.87
0.00 0.00 0.00 0.00 0.00 0.00 0.02 0.03 0.07 0.15 0.16 0.31 0.27 0.11 0.03 0.02 0.03 0.10 0.19 0.21 0.15 0.03 0.05 0.04 0.05 0.06 0.08 0.15 0.24 0.25 0.31 0.39 0.45 0.51 0.56 0.54 0.54 0.59
0.00 0.00 0.00 0.00 0.01 0.01 0.01 0.05 0.10 0.21 0.19 0.11 0.06 0.06 0.08 0.10 0.28 0.36 0.23 0.16 0.09 0.03 0.07 0.09 0.08 0.10 0.13 0.16 0.24 0.29 0.36 0.44 0.50 0.54 0.50 0.49 0.52 0.50
0.00 0.00 0.00 0.01 0.02 0.03 0.05 0.15 0.16 0.08 0.01 0.02 0.04 0.10 0.21 0.23 0.19 0.12 0.09 0.11 0.08 0.05 0.10 0.23 0.10 0.10 0.08 0.16 0.30 0.24 0.30 0.42 0.53 0.59 0.57 0.50 0.46 0.54
0.00 0.00 0.03 0.03 0.02 0.08 0.21 0.22 0.04 0.00 0.00 0.04 0.12 0.11 0.05 0.02 0.03 0.19 0.31 0.30 0.20 0.05 0.06 0.20 0.15 0.12 0.11 0.17 0.33 0.39 0.42 0.44 0.43 0.39 0.36 0.35 0.40 0.40
0.01 0.02 0.02 0.02 0.06 0.28 0.13 0.04 0.08 0.03 0.07 0.05 0.01 0.00 0.01 0.02 0.07 0.15 0.38 0.69 0.36 0.26 0.07 0.33 0.23 0.18 0.36 0.18 0.34 0.44 0.42 0.44 0.40 0.38 0.33 0.31 0.31 0.30
0.09 0.02 0.01 0.07 0.24 0.10 0.02 0.03 0.06 0.04 0.03 0.01 0.00 0.00 0.01 0.01 0.04 0.07 0.20 0.60 0.71 0.44 0.11 0.54 0.56 0.23 0.40 0.29 0.38 0.47 0.44 0.51 0.57 0.66 0.66 0.46 0.33 0.25
0.04 0.02 0.10 0.20 0.04 0.01 0.01 0.03 0.04 0.03 0.01 0.02 0.03 0.02 0.02 0.03 0.03 0.04 0.08 0.18 0.33 0.51 0.24 0.36 0.64 0.33 0.46 0.46 0.45 0.48 0.49 0.63 0.88 1.05 1.12 0.66 0.51 0.40
0.05 0.16 0.16 0.02 0.00 0.00 0.01 0.01 0.01 0.01 0.05 0.12 0.09 0.05 0.03 0.04 0.04 0.06 0.12 0.16 0.21 0.26 0.31 0.40 0.57 0.56 0.57 0.48 0.38 0.39 0.54 0.69 0.85 0.87 0.87 0.82 0.46 0.25
0.17 0.17 0.01 0.00 0.00 0.00 0.00 0.00 0.00 0.02 0.10 0.21 0.18 0.07 0.04 0.05 0.08 0.16 0.32 0.28 0.35 0.29 0.34 0.43 0.51 0.50 0.40 0.35 0.37 0.41 0.52 0.68 0.73 0.71 0.62 0.74 0.72 0.42
0.07 0.00 0.00 0.00 0.00 0.00 0.00 0.00 0.00 0.01 0.07 0.10 0.16 0.13 0.08 0.08 0.11 0.21 0.43 0.52 0.57 0.48 0.44 0.41 0.32 0.29 0.33 0.35 0.38 0.42 0.43 0.55 0.76 0.79 0.57 0.65 0.77 0.71
0.00 0.00 0.01 0.01 0.02 0.01 0.01 0.02 0.01 0.03 0.08 0.16 0.16 0.16 0.22 0.22 0.25 0.28 0.49 0.62 0.58 0.51 0.50 0.44 0.32 0.24 0.27 0.30 0.39 0.47 0.47 0.56 0.76 0.67 0.55 0.40 0.73 0.93
0.01 0.03 0.03 0.02 0.02 0.02 0.03 0.05 0.06 0.05 0.14 0.24 0.29 0.31 0.29 0.25 0.31 0.41 0.52 0.53 0.51 0.46 0.35 0.23 0.23 0.26 0.28 0.24 0.26 0.46 0.46 0.54 0.53 0.41 0.40 0.32 0.50 0.72
0.04 0.05 0.03 0.02 0.02 0.04 0.06 0.09 0.13 0.10 0.16 0.27 0.34 0.31 0.34 0.38 0.40 0.45 0.50 0.48 0.39 0.24 0.09 0.05 0.09 0.21 0.27 0.25 0.21 0.50 0.50 0.42 0.27 0.30 0.40 0.30 0.46 0.46
0.04 0.03 0.02 0.02 0.04 0.07 0.08 0.12 0.15 0.24 0.36 0.40 0.33 0.37 0.36 0.42 0.41 0.42 0.40 0.30 0.16 0.08 0.04 0.03 0.04 0.11 0.17 0.12 0.17 0.26 0.45 0.42 0.22 0.17 0.22 0.16 0.27 0.21
0.02 0.03 0.02 0.03 0.06 0.10 0.13 0.15 0.19 0.21 0.28 0.31 0.36 0.40 0.41 0.43 0.41 0.30 0.18 0.11 0.07 0.09 0.05 0.01 0.01 0.05 0.06 0.06 0.11 0.16 0.18 0.21 0.17 0.11 0.10 0.11 0.13 0.24
0.03 0.04 0.03 0.05 0.08 0.10 0.13 0.15 0.22 0.26 0.31 0.40 0.40 0.39 0.35 0.28 0.17 0.12 0.08 0.08 0.08 0.07 0.05 0.04 0.02 0.02 0.03 0.06 0.06 0.08 0.07 0.07 0.06 0.06 0.18 0.11 0.12 0.20

GFSNE_prec_precacc_027.txt.gz
Total_Precipitation_Accumulation
0.00 0.00 0.00 0.00 0.00 0.00 0.02 0.07 0.13 0.07 0.01 0.00 0.01 0.02 0.03 0.04 0.04 0.07 0.08 0.05 0.05 0.06 0.06 0.05 0.05 0.07 0.08 0.09 0.15 0.23 0.37 0.52 0.62 0.62 0.62 0.66 0.67 0.74
0.00 0.00 0.00 0.00 0.00 0.00 0.01 0.02 0.06 0.11 0.06 0.00 0.00 0.02 0.04 0.05 0.03 0.05 0.06 0.10 0.11 0.09 0.08 0.09 0.12 0.15 0.17 0.19 0.19 0.18 0.22 0.26 0.27 0.31 0.40 0.53 0.64 0.69
0.00 0.00 0.00 0.00 0.00 0.00 0.00 0.00 0.00 0.04 0.07 0.00 0.00 0.00 0.02 0.03 0.03 0.05 0.05 0.04 0.04 0.08 0.14 0.13 0.11 0.13 0.17 0.21 0.24 0.28 0.32 0.35 0.33 0.31 0.34 0.40 0.46 0.51
0.00 0.00 0.00 0.00 0.00 0.00 0.00 0.00 0.00 0.02 0.05 0.04 0.01 0.00 0.00 0.01 0.02 0.03 0.05 0.08 0.06 0.05 0.08 0.09 0.09 0.12 0.14 0.14 0.16 0.20 0.26 0.34 0.42 0.50 0.54 0.52 0.47 0.51
0.00 0.00 0.00 0.00 0.00 0.00 0.00 0.00 0.01 0.02 0.04 0.08 0.03 0.00 0.01 0.01 0.04 0.04 0.04 0.04 0.04 0.07 0.11 0.13 0.13 0.13 0.12 0.13 0.19 0.25 0.31 0.40 0.46 0.49 0.55 0.65 0.72 0.69
0.00 0.00 0.00 0.00 0.00 0.00 0.00 0.01 0.02 0.03 0.03 0.07 0.13 0.08 0.05 0.05 0.07 0.04 0.04 0.04 0.04 0.03 0.06 0.12 0.14 0.15 0.15 0.18 0.21 0.26 0.28 0.33 0.45 0.52 0.57 0.62 0.63 0.63
0.00 0.00 0.00 0.00 0.00 0.00 0.02 0.03 0.04 0.07 0.17 0.24 0.19 0.22 0.15 0.05 0.04 0.04 0.07 0.05 0.05 0.04 0.06 0.11 0.11 0.10 0.09 0.16 0.25 0.28 0.31 0.36 0.49 0.68 0.79 0.86 0.91 0.90
0.00 0.00 0.00 0.00 0.00 0.00 0.02 0.03 0.07 0.16 0.18 0.41 0.34 0.13 0.03 0.02 0.03 0.11 0.22 0.24 0.16 0.03 0.05 0.04 0.05 0.06 0.08 0.15 0.24 0.25 0.31 0.40 0.45 0.52 0.58 0.57 0.58 0.62
0.00 0.00 0.00 0.00 0.01 0.01 0.01 0.06 0.12 0.25 0.24 0.12 0.06 0.06 0.08 0.11 0.32 0.39 0.23 0.17 0.09 0.03 0.08 0.10 0.08 0.10 0.13 0.16 0.24 0.29 0.36 0.44 0.51 0.54 0.52 0.52 0.54 0.52
0.00 0.00 0.00 0.01 0.02 0.03 0.06 0.20 0.19 0.09 0.01 0.02 0.04 0.11 0.22 0.24 0.20 0.12 0.10 0.13 0.09 0.05 0.10 0.24 0.10 0.10 0.08 0.16 0.30 0.24 0.30 0.42 0.54 0.60 0.59 0.52 0.49 0.57
0.00 0.00 0.04 0.03 0.02 0.10 0.24 0.24 0.04 0.00 0.00 0.05 0.13 0.11 0.05 0.02 0.03 0.23 0.34 0.32 0.21 0.05 0.06 0.21 0.15 0.12 0.11 0.17 0.33 0.39 0.42 0.44 0.43 0.39 0.37 0.37 0.42 0.44
0.01 0.02 0.02 0.02 0.07 0.30 0.14 0.04 0.08 0.04 0.09 0.06 0.01 0.00 0.01 0.02 0.07 0.16 0.43 0.75 0.38 0.27 0.07 0.35 0.24 0.19 0.40 0.19 0.34 0.44 0.42 0.44 0.40 0.38 0.35 0.34 0.34 0.32
0.09 0.02 0.01 0.08 0.26 0.10 0.03 0.03 0.06 0.05 0.04 0.01 0.00 0.00 0.01 0.01 0.04 0.08 0.22 0.66 0.78 0.48 0.11 0.60 0.62 0.24 0.43 0.30 0.38 0.47 0.44 0.51 0.58 0.70 0.75 0.55 0.43 0.34
0.04 0.02 0.10 0.22 0.04 0.01 0.01 0.03 0.04 0.03 0.01 0.02 0.03 0.02 0.02 0.03 0.03 0.04 0.09 0.19 0.37 0.60 0.28 0.41 0.73 0.37 0.51 0.48 0.45 0.48 0.49 0.63 0.92 1.14 1.23 0.75 0.65 0.53
0.05 0.17 0.16 0.02 0.00 0.00 0.01 0.01 0.01 0.01 0.05 0.13 0.09 0.05 0.03 0.04 0.05 0.06 0.12 0.16 0.21 0.27 0.33 0.41 0.62 0.60 0.61 0.53 0.40 0.40 0.56 0.69 0.85 0.96 0.99 1.00 0.75 0.42
0.17 0.17 0.01 0.00 0.00 0.00 0.00 0.00 0.00 0.02 0.10 0.22 0.18 0.07 0.04 0.05 0.08 0.16 0.33 0.28 0.37 0.29 0.34 0.44 0.54 0.55 0.44 0.36 0.41 0.44 0.53 0.77 0.78 0.80 0.77 0.90 0.87 0.52
0.07 0.00 0.00 0.00 0.00 0.00 0.00 0.00 0.00 0.01 0.07 0.10 0.16 0.14 0.08 0.08 0.11 0.21 0.44 0.54 0.58 0.50 0.45 0.41 0.32 0.30 0.35 0.38 0.41 0.44 0.48 0.62 0.87 0.89 0.65 0.78 0.87 0.76
0.00 0.00 0.01 0.01 0.02 0.01 0.01 0.02 0.01 0.03 0.09 0.16 0.16 0.16 0.23 0.23 0.26 0.28 0.49 0.63 0.61 0.52 0.52 0.45 0.33 0.24 0.28 0.30 0.42 0.55 0.55 0.66 0.89 0.78 0.64 0.49 0.78 0.96
0.01 0.03 0.03 0.02 0.02 0.02 0.03 0.05 0.06 0.05 0.15 0.24 0.30 0.33 0.32 0.26 0.31 0.42 0.52 0.53 0.52 0.47 0.36 0.25 0.25 0.27 0.30 0.25 0.27 0.54 0.60 0.66 0.62 0.49 0.47 0.40 0.59 0.82
0.04 0.05 0.03 0.03 0.02 0.05 0.07 0.10 0.14 0.11 0.16 0.27 0.35 0.32 0.35 0.40 0.42 0.46 0.51 0.49 0.41 0.26 0.10 0.06 0.10 0.22 0.31 0.31 0.25 0.55 0.58 0.53 0.37 0.41 0.50 0.40 0.59 0.55
0.04 0.03 0.02 0.03 0.05 0.07 0.09 0.12 0.16 0.25 0.38 0.42 0.34 0.39 0.38 0.44 0.42 0.43 0.41 0.31 0.17 0.09 0.04 0.03 0.06 0.15 0.21 0.14 0.19 0.28 0.49 0.48 0.31 0.28 0.31 0.23 0.35 0.26
0.02 0.03 0.03 0.03 0.06 0.10 0.14 0.16 0.19 0.22 0.28 0.31 0.37 0.41 0.43 0.46 0.44 0.31 0.20 0.13 0.08 0.10 0.05 0.01 0.01 0.06 0.07 0.07 0.12 0.17 0.20 0.21 0.20 0.15 0.21 0.23 0.24 0.39
0.03 0.04 0.03 0.05 0.09 0.11 0.13 0.15 0.23 0.27 0.32 0.41 0.41 0.41 0.37 0.30 0.18 0.13 0.10 0.10 0.09 0.08 0.05 0.04 0.02 0.03 0.05 0.07 0.06 0.08 0.08 0.07 0.07 0.09 0.29 0.24 0.24 0.34

GFSNE_prec_precacc_033.txt.gz
Total_Precipitation_Accumulation
0.00 0.00 0.00 0.00 0.00 0.00 0.02 0.07 0.13 0.07 0.01 0.00 0.01 0.02 0.03 0.04 0.04 0.07 0.08 0.05 0.05 0.06 0.06 0.05 0.05 0.07 0.08 0.10 0.17 0.25 0.38 0.54 0.64 0.65 0.66 0.71 0.74 0.81
0.00 0.00 0.00 0.00 0.00 0.00 0.01 0.02 0.06 0.11 0.06 0.00 0.00 0.02 0.04 0.05 0.03 0.05 0.06 0.10 0.11 0.09 0.09 0.10 0.13 0.16 0.17 0.19 0.19 0.18 0.22 0.28 0.33 0.38 0.48 0.62 0.74 0.79
0.00 0.00 0.00 0.00 0.00 0.00 0.00 0.00 0.00 0.04 0.07 0.00 0.00 0.00 0.02 0.03 0.03 0.05 0.05 0.04 0.05 0.11 0.15 0.14 0.12 0.13 0.17 0.21 0.26 0.31 0.36 0.40 0.40 0.40 0.43 0.49 0.55 0.60
0.00 0.00 0.00 0.00 0.00 0.00 0.00 0.00 0.00 0.02 0.05 0.05 0.01 0.00 0.00 0.01 0.02 0.03 0.05 0.09 0.08 0.05 0.08 0.09 0.09 0.12 0.14 0.15 0.18 0.23 0.30 0.38 0.47 0.55 0.59 0.57 0.52 0.56
0.00 0.00 0.00 0.00 0.00 0.00 0.00 0.00 0.01 0.02 0.05 0.09 0.03 0.00 0.01 0.01 0.04 0.04 0.04 0.04 0.04 0.07 0.11 0.13 0.13 0.13 0.13 0.14 0.20 0.26 0.34 0.43 0.50 0.53 0.60 0.71 0.79 0.77
0.00 0.00 0.00 0.00 0.00 0.00 0.00 0.01 0.03 0.03 0.03 0.07 0.15 0.12 0.08 0.06 0.07 0.04 0.04 0.04 0.04 0.03 0.06 0.12 0.15 0.16 0.15 0.18 0.21 0.26 0.28 0.33 0.46 0.52 0.58 0.63 0.65 0.65
0.00 0.00 0.00 0.00 0.00 0.00 0.02 0.03 0.05 0.07 0.20 0.33 0.27 0.26 0.16 0.05 0.04 0.04 0.07 0.06 0.05 0.04 0.06 0.11 0.11 0.10 0.09 0.16 0.25 0.28 0.31 0.36 0.50 0.69 0.80 0.88 0.94 0.94
0.00 0.00 0.00 0.00 0.00 0.00 0.02 0.04 0.08 0.22 0.32 0.46 0.36 0.13 0.03 0.02 0.03 0.12 0.25 0.26 0.17 0.03 0.05 0.05 0.05 0.06 0.08 0.15 0.24 0.25 0.31 0.40 0.46 0.54 0.61 0.61 0.61 0.66
0.00 0.00 0.00 0.00 0.01 0.01 0.01 0.07 0.18 0.30 0.25 0.12 0.06 0.06 0.08 0.13 0.39 0.43 0.25 0.18 0.11 0.03 0.09 0.12 0.08 0.10 0.13 0.16 0.24 0.29 0.36 0.45 0.52 0.55 0.54 0.54 0.57 0.55
0.00 0.00 0.00 0.01 0.02 0.04 0.09 0.29 0.22 0.09 0.01 0.02 0.05 0.11 0.24 0.27 0.20 0.13 0.12 0.16 0.09 0.05 0.10 0.27 0.10 0.10 0.08 0.16 0.30 0.24 0.30 0.42 0.54 0.61 0.60 0.54 0.51 0.60
0.00 0.00 0.04 0.03 0.02 0.12 0.27 0.25 0.04 0.00 0.00 0.05 0.15 0.12 0.05 0.02 0.04 0.28 0.37 0.36 0.23 0.05 0.06 0.22 0.15 0.13 0.11 0.17 0.33 0.39 0.42 0.45 0.43 0.40 0.37 0.38 0.44 0.46
0.01 0.02 0.02 0.03 0.08 0.33 0.15 0.04 0.08 0.04 0.14 0.09 0.02 0.00 0.01 0.02 0.07 0.17 0.47 0.85 0.42 0.30 0.07 0.41 0.26 0.21 0.47 0.19 0.34 0.44 0.42 0.44 0.40 0.39 0.36 0.37 0.38 0.38
0.09 0.02 0.01 0.09 0.27 0.11 0.03 0.03 0.06 0.06 0.06 0.01 0.00 0.00 0.01 0.01 0.04 0.08 0.22 0.77 0.93 0.57 0.11 0.72 0.70 0.25 0.48 0.31 0.38 0.47 0.44 0.51 0.59 0.70 0.79 0.63 0.55 0.50
0.04 0.02 0.10 0.23 0.05 0.01 0.01 0.03 0.05 0.04 0.01 0.02 0.03 0.02 0.02 0.03 0.03 0.04 0.09 0.20 0.42 0.74 0.33 0.48 0.87 0.43 0.60 0.51 0.46 0.48 0.49 0.64 0.93 1.15 1.25 0.78 0.69 0.64
0.06 0.17 0.16 0.02 0.00 0.00 0.01 0.01 0.02 0.01 0.05 0.13 0.10 0.05 0.03 0.04 0.05 0.06 0.12 0.16 0.21 0.28 0.34 0.42 0.69 0.65 0.70 0.63 0.48 0.41 0.63 0.72 0.85 0.99 1.06 1.11 0.93 0.65
0.17 0.17 0.01 0.00 0.00 0.00 0.00 0.00 0.00 0.02 0.11 0.23 0.19 0.07 0.04 0.05 0.08 0.16 0.34 0.28 0.38 0.29 0.34 0.44 0.57 0.65 0.54 0.41 0.55 0.52 0.57 0.88 0.89 0.91 0.87 1.04 1.04 0.67
0.07 0.00 0.00 0.00 0.00 0.00 0.00 0.00 0.00 0.01 0.07 0.10 0.17 0.15 0.09 0.09 0.11 0.21 0.44 0.55 0.60 0.50 0.45 0.41 0.32 0.31 0.38 0.42 0.43 0.46 0.54 0.70 1.00 1.01 0.77 0.93 0.98 0.83
0.00 0.00 0.01 0.01 0.02 0.01 0.02 0.02 0.01 0.03 0.09 0.17 0.16 0.17 0.24 0.24 0.27 0.28 0.50 0.65 0.63 0.52 0.53 0.45 0.33 0.24 0.28 0.30 0.44 0.64 0.62 0.76 0.99 0.87 0.72 0.62 0.85 0.99
0.01 0.03 0.03 0.02 0.02 0.02 0.04 0.06 0.07 0.05 0.15 0.26 0.31 0.34 0.35 0.27 0.32 0.42 0.53 0.54 0.52 0.47 0.37 0.25 0.26 0.29 0.31 0.26 0.27 0.57 0.73 0.76 0.69 0.59 0.56 0.52 0.68 0.85
0.04 0.05 0.03 0.03 0.03 0.05 0.08 0.11 0.15 0.11 0.17 0.28 0.37 0.35 0.38 0.43 0.43 0.47 0.52 0.52 0.45 0.28 0.10 0.06 0.10 0.25 0.40 0.41 0.33 0.56 0.65 0.66 0.50 0.59 0.70 0.60 0.73 0.61
0.05 0.03 0.02 0.03 0.05 0.08 0.10 0.14 0.17 0.28 0.42 0.46 0.36 0.41 0.40 0.48 0.43 0.44 0.43 0.33 0.20 0.10 0.05 0.03 0.06 0.19 0.26 0.15 0.20 0.30 0.50 0.52 0.43 0.45 0.46 0.31 0.42 0.27
0.03 0.03 0.03 0.03 0.07 0.12 0.15 0.17 0.21 0.23 0.31 0.33 0.38 0.44 0.46 0.48 0.47 0.33 0.22 0.16 0.11 0.13 0.07 0.01 0.01 0.06 0.07 0.07 0.13 0.19 0.21 0.22 0.24 0.18 0.27 0.43 0.42 0.56
0.04 0.04 0.03 0.06 0.09 0.12 0.14 0.16 0.24 0.28 0.35 0.45 0.43 0.44 0.40 0.33 0.20 0.15 0.12 0.13 0.14 0.09 0.05 0.04 0.02 0.03 0.05 0.07 0.06 0.09 0.09 0.09 0.09 0.13 0.36 0.36 0.44 0.57

GFSNE_prec_precacc_036.txt.gz
Total_Precipitation_Accumulation
0.00 0.00 0.00 0.00 0.00 0.00 0.02 0.07 0.13 0.07 0.01 0.00 0.01 0.02 0.03 0.04 0.04 0.07 0.08 0.05 0.05 0.06 0.06 0.05 0.05 0.07 0.09 0.11 0.18 0.27 0.41 0.57 0.66 0.67 0.68 0.72 0.74 0.81
0.00 0.00 0.00 0.00 0.00 0.00 0.01 0.02 0.06 0.11 0.06 0.00 0.00 0.02 0.04 0.05 0.03 0.05 0.06 0.10 0.11 0.09 0.09 0.10 0.13 0.16 0.17 0.19 0.19 0.19 0.22 0.28 0.34 0.41 0.51 0.65 0.78 0.83
0.00 0.00 0.00 0.00 0.00 0.00 0.00 0.00 0.00 0.04 0.07 0.00 0.00 0.00 0.02 0.03 0.03 0.05 0.05 0.04 0.05 0.11 0.15 0.14 0.12 0.14 0.17 0.21 0.26 0.31 0.37 0.41 0.42 0.42 0.47 0.54 0.60 0.66
0.00 0.00 0.00 0.00 0.00 0.00 0.00 0.00 0.00 0.02 0.05 0.05 0.01 0.00 0.00 0.01 0.02 0.03 0.05 0.09 0.08 0.05 0.08 0.09 0.10 0.12 0.14 0.15 0.18 0.23 0.30 0.39 0.48 0.57 0.62 0.61 0.55 0.59
0.00 0.00 0.00 0.00 0.00 0.00 0.00 0.00 0.01 0.02 0.05 0.10 0.04 0.00 0.01 0.01 0.04 0.04 0.04 0.04 0.04 0.07 0.11 0.13 0.13 0.13 0.13 0.14 0.20 0.26 0.34 0.44 0.50 0.54 0.61 0.73 0.80 0.78
0.00 0.00 0.00 0.00 0.00 0.00 0.00 0.01 0.03 0.04 0.03 0.07 0.16 0.13 0.08 0.07 0.07 0.04 0.04 0.04 0.04 0.03 0.06 0.12 0.15 0.16 0.15 0.18 0.21 0.26 0.28 0.34 0.46 0.53 0.58 0.63 0.65 0.65
0.00 0.00 0.00 0.00 0.00 0.00 0.02 0.03 0.05 0.07 0.21 0.36 0.31 0.28 0.16 0.05 0.04 0.04 0.07 0.06 0.05 0.04 0.06 0.11 0.11 0.10 0.09 0.16 0.25 0.28 0.31 0.37 0.50 0.69 0.81 0.89 0.96 0.95
0.00 0.00 0.00 0.00 0.00 0.00 0.02 0.05 0.08 0.23 0.36 0.49 0.38 0.13 0.03 0.02 0.03 0.13 0.27 0.27 0.18 0.03 0.05 0.05 0.05 0.06 0.08 0.15 0.24 0.25 0.31 0.40 0.46 0.54 0.61 0.62 0.63 0.68
0.00 0.00 0.00 0.00 0.01 0.01 0.01 0.07 0.19 0.31 0.27 0.13 0.07 0.06 0.08 0.13 0.42 0.46 0.26 0.19 0.11 0.03 0.09 0.12 0.08 0.10 0.13 0.16 0.24 0.29 0.36 0.45 0.52 0.56 0.54 0.55 0.58 0.57
0.00 0.00 0.00 0.01 0.02 0.04 0.09 0.30 0.23 0.09 0.01 0.02 0.05 0.11 0.25 0.29 0.22 0.14 0.13 0.16 0.10 0.05 0.10 0.27 0.10 0.10 0.08 0.16 0.30 0.24 0.30 0.42 0.55 0.61 0.61 0.55 0.52 0.61
0.00 0.00 0.04 0.03 0.02 0.12 0.28 0.26 0.04 0.00 0.00 0.05 0.15 0.12 0.05 0.02 0.04 0.28 0.38 0.37 0.24 0.05 0.06 0.22 0.16 0.13 0.11 0.17 0.33 0.39 0.42 0.45 0.44 0.40 0.39 0.39 0.46 0.48
0.01 0.02 0.02 0.03 0.08 0.34 0.15 0.04 0.08 0.04 0.14 0.10 0.02 0.00 0.01 0.02 0.07 0.17 0.48 0.88 0.43 0.32 0.07 0.42 0.27 0.21 0.48 0.19 0.34 0.44 0.42 0.44 0.40 0.39 0.37 0.38 0.39 0.41
0.09 0.02 0.01 0.09 0.28 0.12 0.03 0.03 0.06 0.07 0.06 0.02 0.00 0.00 0.01 0.01 0.04 0.08 0.23 0.81 0.98 0.59 0.12 0.76 0.74 0.26 0.50 0.32 0.38 0.47 0.44 0.51 0.59 0.70 0.79 0.64 0.56 0.53
0.04 0.02 0.10 0.23 0.05 0.01 0.01 0.03 0.05 0.04 0.01 0.02 0.03 0.02 0.02 0.03 0.03 0.04 0.09 0.20 0.44 0.76 0.34 0.50 0.94 0.45 0.64 0.53 0.46 0.48 0.49 0.64 0.93 1.16 1.26 0.78 0.70 0.65
0.06 0.17 0.16 0.02 0.00 0.00 0.01 0.01 0.02 0.01 0.05 0.14 0.10 0.05 0.04 0.05 0.05 0.07 0.12 0.16 0.21 0.28 0.34 0.43 0.72 0.68 0.73 0.67 0.50 0.41 0.63 0.73 0.85 1.00 1.08 1.13 0.97 0.69
0.18 0.18 0.01 0.00 0.00 0.00 0.00 0.00 0.00 0.02 0.11 0.23 0.19 0.08 0.04 0.05 0.08 0.17 0.34 0.29 0.38 0.29 0.34 0.44 0.58 0.69 0.58 0.42 0.55 0.52 0.57 0.90 0.91 0.93 0.88 1.06 1.09 0.70
0.07 0.00 0.00 0.00 0.00 0.00 0.00 0.00 0.00 0.01 0.08 0.10 0.17 0.15 0.09 0.09 0.11 0.21 0.45 0.56 0.61 0.51 0.45 0.41 0.32 0.31 0.39 0.42 0.43 0.46 0.54 0.70 1.01 1.04 0.81 0.96 0.98 0.83
0.00 0.00 0.01 0.01 0.02 0.01 0.02 0.02 0.01 0.03 0.09 0.17 0.17 0.17 0.25 0.25 0.28 0.29 0.50 0.65 0.64 0.53 0.53 0.45 0.33 0.25 0.28 0.30 0.44 0.64 0.63 0.76 0.99 0.89 0.76 0.67 0.86 1.00
0.01 0.03 0.03 0.02 0.02 0.02 0.04 0.06 0.07 0.05 0.16 0.27 0.31 0.35 0.36 0.28 0.33 0.43 0.53 0.54 0.52 0.47 0.37 0.26 0.26 0.30 0.33 0.26 0.27 0.57 0.76 0.77 0.70 0.61 0.59 0.57 0.73 0.87
0.04 0.05 0.03 0.03 0.03 0.05 0.08 0.12 0.15 0.11 0.17 0.28 0.38 0.36 0.40 0.44 0.44 0.48 0.53 0.53 0.46 0.29 0.10 0.06 0.10 0.26 0.43 0.44 0.35 0.56 0.65 0.70 0.53 0.61 0.73 0.62 0.77 0.64
0.05 0.03 0.02 0.03 0.05 0.09 0.11 0.14 0.18 0.29 0.44 0.48 0.37 0.42 0.42 0.51 0.44 0.44 0.43 0.33 0.21 0.11 0.06 0.04 0.06 0.19 0.26 0.15 0.20 0.30 0.50 0.53 0.45 0.49 0.50 0.33 0.43 0.28
0.03 0.03 0.03 0.03 0.07 0.12 0.16 0.17 0.22 0.23 0.32 0.34 0.40 0.45 0.47 0.51 0.50 0.35 0.23 0.18 0.12 0.14 0.08 0.02 0.01 0.06 0.07 0.07 0.13 0.19 0.21 0.22 0.24 0.18 0.28 0.48 0.50 0.65
0.04 0.04 0.04 0.06 0.10 0.12 0.15 0.17 0.25 0.29 0.36 0.47 0.45 0.45 0.42 0.36 0.22 0.18 0.15 0.15 0.15 0.11 0.06 0.04 0.02 0.03 0.05 0.08 0.06 0.09 0.09 0.09 0.09 0.14 0.36 0.36 0.47 0.64

GFSNE_prec_precacc_039.txt.gz
Total_Precipitation_Accumulation
0.00 0.00 0.00 0.00 0.00 0.00 0.02 0.07 0.13 0.07 0.01 0.00 0.01 0.02 0.03 0.04 0.04 0.07 0.08 0.05 0.05 0.06 0.06 0.05 0.05 0.07 0.09 0.11 0.18 0.27 0.41 0.57 0.66 0.68 0.70 0.74 0.77 0.83
0.00 0.00 0.00 0.00 0.00 0.00 0.01 0.02 0.06 0.11 0.06 0.00 0.00 0.02 0.04 0.05 0.03 0.05 0.06 0.10 0.11 0.09 0.09 0.10 0.13 0.16 0.17 0.19 0.19 0.19 0.23 0.28 0.34 0.44 0.55 0.69 0.81 0.85
0.00 0.00 0.00 0.00 0.00 0.00 0.00 0.00 0.00 0.04 0.07 0.00 0.00 0.00 0.02 0.03 0.03 0.05 0.05 0.04 0.05 0.11 0.15 0.14 0.12 0.14 0.17 0.21 0.26 0.31 0.37 0.42 0.42 0.44 0.49 0.58 0.64 0.70
0.00 0.00 0.00 0.00 0.00 0.00 0.00 0.00 0.00 0.02 0.05 0.05 0.01 0.00 0.00 0.01 0.02 0.03 0.05 0.09 0.08 0.05 0.08 0.09 0.10 0.12 0.14 0.15 0.18 0.23 0.31 0.39 0.48 0.58 0.64 0.63 0.58 0.63
0.00 0.00 0.00 0.00 0.00 0.00 0.00 0.00 0.01 0.02 0.05 0.10 0.04 0.00 0.01 0.01 0.04 0.04 0.04 0.04 0.04 0.07 0.11 0.13 0.13 0.13 0.13 0.14 0.20 0.26 0.34 0.44 0.50 0.54 0.62 0.73 0.81 0.79
0.00 0.00 0.00 0.00 0.00 0.00 0.00 0.01 0.03 0.04 0.03 0.07 0.16 0.14 0.09 0.07 0.07 0.04 0.04 0.04 0.04 0.03 0.06 0.12 0.15 0.16 0.15 0.18 0.21 0.26 0.28 0.34 0.46 0.53 0.59 0.63 0.66 0.66
0.00 0.00 0.00 0.00 0.00 0.00 0.02 0.03 0.05 0.08 0.21 0.36 0.32 0.29 0.16 0.05 0.04 0.04 0.07 0.06 0.05 0.04 0.06 0.11 0.11 0.10 0.09 0.16 0.25 0.28 0.31 0.37 0.50 0.70 0.81 0.90 0.97 0.96
0.00 0.00 0.00 0.00 0.00 0.00 0.02 0.05 0.09 0.24 0.38 0.53 0.40 0.15 0.03 0.02 0.03 0.13 0.27 0.28 0.18 0.03 0.05 0.05 0.05 0.06 0.08 0.15 0.24 0.25 0.31 0.40 0.46 0.54 0.61 0.62 0.64 0.69
0.00 0.00 0.00 0.00 0.01 0.01 0.01 0.07 0.20 0.32 0.28 0.14 0.07 0.06 0.08 0.13 0.42 0.47 0.27 0.19 0.12 0.03 0.09 0.12 0.08 0.10 0.13 0.16 0.24 0.29 0.36 0.45 0.52 0.56 0.54 0.56 0.59 0.58
0.00 0.00 0.00 0.01 0.02 0.04 0.09 0.31 0.24 0.09 0.01 0.02 0.05 0.11 0.25 0.29 0.23 0.16 0.13 0.16 0.10 0.05 0.10 0.28 0.10 0.10 0.08 0.16 0.30 0.24 0.30 0.42 0.55 0.61 0.61 0.56 0.54 0.63
0.00 0.00 0.04 0.03 0.02 0.12 0.29 0.27 0.05 0.00 0.00 0.05 0.15 0.13 0.06 0.02 0.04 0.28 0.39 0.38 0.24 0.05 0.06 0.22 0.16 0.13 0.11 0.17 0.33 0.39 0.42 0.45 0.44 0.40 0.39 0.40 0.47 0.50
0.01 0.02 0.02 0.03 0.08 0.35 0.16 0.05 0.08 0.04 0.14 0.10 0.02 0.00 0.01 0.02 0.07 0.17 0.48 0.91 0.44 0.33 0.07 0.43 0.27 0.22 0.50 0.19 0.34 0.44 0.42 0.44 0.40 0.39 0.37 0.38 0.41 0.45
0.09 0.02 0.01 0.09 0.28 0.12 0.04 0.03 0.06 0.07 0.07 0.02 0.00 0.00 0.01 0.01 0.04 0.08 0.23 0.83 1.02 0.61 0.12 0.79 0.78 0.26 0.52 0.32 0.38 0.47 0.44 0.51 0.59 0.70 0.79 0.64 0.57 0.56
0.04 0.02 0.10 0.23 0.05 0.01 0.01 0.03 0.06 0.04 0.01 0.02 0.03 0.02 0.02 0.03 0.03 0.04 0.09 0.21 0.44 0.78 0.34 0.51 1.00 0.47 0.68 0.55 0.46 0.48 0.49 0.64 0.93 1.16 1.26 0.79 0.72 0.67
0.06 0.18 0.17 0.02 0.00 0.00 0.01 0.01 0.02 0.01 0.05 0.14 0.10 0.05 0.04 0.05 0.05 0.07 0.12 0.17 0.22 0.28 0.34 0.43 0.74 0.70 0.77 0.71 0.52 0.42 0.63 0.73 0.85 1.00 1.08 1.14 0.99 0.71
0.18 0.18 0.01 0.00 0.00 0.00 0.00 0.00 0.00 0.02 0.11 0.24 0.20 0.08 0.04 0.06 0.08 0.17 0.35 0.29 0.39 0.29 0.34 0.44 0.58 0.70 0.62 0.44 0.57 0.53 0.57 0.90 0.91 0.93 0.89 1.07 1.09 0.71
0.07 0.00 0.00 0.00 0.00 0.00 0.00 0.00 0.00 0.01 0.08 0.10 0.18 0.15 0.09 0.09 0.12 0.21 0.45 0.57 0.62 0.51 0.46 0.41 0.32 0.31 0.40 0.43 0.45 0.46 0.54 0.70 1.01 1.05 0.83 0.99 0.98 0.83
0.00 0.00 0.01 0.01 0.02 0.01 0.02 0.02 0.01 0.03 0.09 0.18 0.17 0.17 0.26 0.25 0.28 0.29 0.50 0.66 0.65 0.53 0.54 0.45 0.33 0.25 0.28 0.30 0.44 0.64 0.63 0.76 0.99 0.89 0.77 0.71 0.88 1.00
0.01 0.03 0.03 0.02 0.02 0.02 0.04 0.06 0.07 0.05 0.16 0.27 0.32 0.35 0.37 0.29 0.33 0.43 0.53 0.55 0.53 0.47 0.37 0.26 0.27 0.32 0.36 0.27 0.27 0.57 0.77 0.78 0.71 0.61 0.59 0.59 0.77 0.88
0.04 0.05 0.03 0.03 0.03 0.05 0.08 0.12 0.15 0.12 0.18 0.29 0.39 0.37 0.41 0.46 0.45 0.49 0.53 0.54 0.47 0.30 0.11 0.06 0.11 0.28 0.49 0.48 0.38 0.57 0.65 0.71 0.57 0.64 0.73 0.62 0.78 0.65
0.05 0.03 0.02 0.03 0.05 0.09 0.11 0.15 0.18 0.30 0.46 0.51 0.39 0.43 0.43 0.53 0.46 0.45 0.44 0.34 0.22 0.12 0.07 0.04 0.06 0.19 0.27 0.16 0.21 0.30 0.50 0.53 0.46 0.55 0.54 0.35 0.43 0.28
0.03 0.03 0.03 0.03 0.07 0.13 0.16 0.18 0.22 0.24 0.33 0.36 0.42 0.47 0.49 0.53 0.53 0.37 0.23 0.19 0.12 0.14 0.09 0.02 0.01 0.06 0.08 0.08 0.14 0.20 0.21 0.22 0.24 0.18 0.29 0.52 0.58 0.73
0.04 0.04 0.04 0.06 0.10 0.13 0.16 0.18 0.26 0.30 0.37 0.49 0.47 0.48 0.46 0.38 0.23 0.19 0.16 0.16 0.16 0.12 0.07 0.05 0.02 0.03 0.05 0.08 0.07 0.10 0.09 0.09 0.09 0.14 0.36 0.36 0.48 0.69

GFSNE_prec_precacc_042.txt.gz
Total_Precipitation_Accumulation
0.00 0.00 0.00 0.00 0.00 0.00 0.02 0.07 0.13 0.07 0.01 0.00 0.01 0.02 0.03 0.04 0.04 0.07 0.08 0.05 0.05 0.06 0.06 0.05 0.05 0.07 0.09 0.11 0.18 0.28 0.42 0.58 0.67 0.70 0.75 0.79 0.81 0.88
0.00 0.00 0.00 0.00 0.00 0.00 0.01 0.02 0.06 0.11 0.06 0.00 0.00 0.02 0.04 0.05 0.03 0.05 0.06 0.10 0.11 0.09 0.09 0.10 0.13 0.16 0.17 0.19 0.19 0.19 0.23 0.29 0.35 0.45 0.59 0.75 0.86 0.91
0.00 0.00 0.00 0.00 0.00 0.00 0.00 0.00 0.00 0.04 0.07 0.00 0.00 0.00 0.02 0.03 0.03 0.05 0.05 0.04 0.05 0.11 0.15 0.14 0.12 0.14 0.17 0.22 0.27 0.31 0.37 0.42 0.43 0.44 0.51 0.62 0.69 0.75
0.00 0.00 0.00 0.00 0.00 0.00 0.00 0.00 0.00 0.02 0.05 0.05 0.01 0.00 0.00 0.01 0.02 0.03 0.05 0.09 0.08 0.05 0.08 0.09 0.10 0.12 0.14 0.15 0.18 0.23 0.31 0.39 0.49 0.59 0.64 0.64 0.59 0.64
0.00 0.00 0.00 0.00 0.00 0.00 0.00 0.00 0.01 0.02 0.05 0.10 0.04 0.00 0.01 0.01 0.04 0.04 0.04 0.04 0.04 0.07 0.11 0.13 0.13 0.13 0.13 0.14 0.20 0.27 0.35 0.44 0.50 0.54 0.62 0.73 0.81 0.80
0.00 0.00 0.00 0.00 0.00 0.00 0.00 0.01 0.03 0.04 0.03 0.07 0.16 0.14 0.09 0.07 0.07 0.04 0.04 0.04 0.04 0.03 0.06 0.12 0.15 0.16 0.15 0.18 0.21 0.26 0.28 0.34 0.46 0.53 0.59 0.64 0.66 0.67
0.00 0.00 0.00 0.00 0.00 0.00 0.02 0.03 0.05 0.08 0.21 0.37 0.33 0.30 0.17 0.05 0.04 0.04 0.07 0.06 0.05 0.04 0.06 0.11 0.11 0.10 0.09 0.16 0.25 0.28 0.31 0.37 0.50 0.70 0.81 0.90 0.97 0.97
0.00 0.00 0.00 0.00 0.00 0.00 0.02 0.05 0.09 0.24 0.38 0.53 0.41 0.15 0.04 0.02 0.03 0.13 0.27 0.29 0.19 0.03 0.05 0.05 0.05 0.06 0.08 0.15 0.24 0.25 0.31 0.40 0.46 0.54 0.62 0.63 0.64 0.70
0.00 0.00 0.00 0.00 0.01 0.01 0.01 0.07 0.20 0.33 0.28 0.15 0.08 0.07 0.08 0.13 0.42 0.47 0.28 0.21 0.13 0.03 0.09 0.12 0.08 0.10 0.13 0.16 0.24 0.29 0.36 0.45 0.52 0.56 0.55 0.56 0.60 0.58
0.00 0.00 0.00 0.01 0.02 0.04 0.09 0.31 0.24 0.09 0.01 0.02 0.05 0.11 0.25 0.29 0.24 0.20 0.16 0.16 0.10 0.05 0.10 0.28 0.10 0.10 0.08 0.16 0.30 0.24 0.30 0.42 0.55 0.61 0.61 0.56 0.55 0.63
0.00 0.00 0.04 0.03 0.02 0.12 0.29 0.27 0.05 0.00 0.00 0.05 0.15 0.13 0.06 0.03 0.04 0.29 0.39 0.38 0.25 0.05 0.06 0.22 0.16 0.13 0.11 0.17 0.33 0.39 0.42 0.45 0.44 0.40 0.39 0.40 0.47 0.51
0.01 0.02 0.02 0.03 0.08 0.35 0.16 0.05 0.09 0.04 0.14 0.10 0.02 0.00 0.01 0.02 0.07 0.17 0.48 0.94 0.45 0.33 0.07 0.44 0.28 0.22 0.52 0.19 0.34 0.44 0.42 0.44 0.40 0.39 0.37 0.38 0.41 0.46
0.09 0.02 0.01 0.09 0.28 0.13 0.04 0.04 0.06 0.07 0.07 0.02 0.00 0.00 0.01 0.01 0.04 0.08 0.23 0.86 1.06 0.63 0.12 0.82 0.82 0.27 0.55 0.33 0.38 0.47 0.44 0.51 0.59 0.70 0.79 0.64 0.58 0.58
0.04 0.02 0.10 0.23 0.06 0.01 0.01 0.03 0.06 0.04 0.01 0.02 0.03 0.02 0.02 0.03 0.03 0.04 0.09 0.21 0.45 0.79 0.34 0.52 1.06 0.49 0.72 0.57 0.46 0.48 0.49 0.64 0.93 1.16 1.26 0.79 0.72 0.67
0.06 0.18 0.17 0.02 0.00 0.00 0.01 0.01 0.02 0.01 0.05 0.14 0.10 0.05 0.04 0.05 0.05 0.07 0.12 0.17 0.22 0.28 0.34 0.43 0.75 0.72 0.81 0.74 0.53 0.42 0.63 0.73 0.85 1.00 1.08 1.14 0.99 0.71
0.18 0.18 0.01 0.00 0.00 0.00 0.00 0.00 0.00 0.02 0.11 0.24 0.20 0.08 0.04 0.06 0.08 0.17 0.35 0.29 0.39 0.30 0.34 0.44 0.58 0.72 0.66 0.46 0.59 0.54 0.57 0.90 0.91 0.93 0.89 1.07 1.09 0.71
0.07 0.00 0.00 0.00 0.00 0.00 0.00 0.00 0.00 0.01 0.08 0.10 0.18 0.16 0.09 0.09 0.12 0.21 0.45 0.58 0.63 0.51 0.46 0.41 0.32 0.31 0.40 0.44 0.48 0.47 0.54 0.70 1.01 1.05 0.83 0.99 0.99 0.83
0.00 0.00 0.01 0.01 0.02 0.01 0.02 0.02 0.01 0.03 0.09 0.18 0.18 0.18 0.27 0.26 0.29 0.29 0.50 0.67 0.66 0.53 0.54 0.46 0.34 0.26 0.28 0.30 0.46 0.67 0.64 0.76 0.99 0.89 0.77 0.73 0.88 1.00
0.01 0.03 0.03 0.02 0.02 0.02 0.04 0.06 0.07 0.05 0.16 0.28 0.33 0.36 0.38 0.30 0.33 0.44 0.54 0.55 0.53 0.48 0.38 0.26 0.28 0.35 0.39 0.27 0.27 0.57 0.78 0.78 0.71 0.61 0.60 0.59 0.77 0.88
0.04 0.05 0.03 0.03 0.03 0.05 0.08 0.12 0.16 0.12 0.18 0.29 0.39 0.38 0.42 0.48 0.46 0.49 0.54 0.55 0.48 0.31 0.12 0.06 0.11 0.30 0.56 0.54 0.41 0.57 0.65 0.71 0.59 0.67 0.73 0.62 0.78 0.65
0.05 0.03 0.02 0.03 0.05 0.09 0.11 0.15 0.19 0.31 0.47 0.53 0.40 0.44 0.44 0.57 0.47 0.45 0.45 0.34 0.23 0.14 0.08 0.04 0.06 0.20 0.29 0.18 0.23 0.30 0.50 0.53 0.47 0.58 0.57 0.39 0.44 0.28
0.03 0.03 0.03 0.03 0.08 0.13 0.17 0.18 0.23 0.24 0.34 0.36 0.43 0.49 0.52 0.56 0.56 0.39 0.25 0.21 0.13 0.15 0.10 0.03 0.01 0.06 0.08 0.11 0.16 0.20 0.21 0.22 0.24 0.18 0.30 0.57 0.67 0.81
0.04 0.04 0.04 0.07 0.11 0.14 0.17 0.19 0.27 0.30 0.38 0.50 0.49 0.52 0.50 0.43 0.26 0.21 0.17 0.17 0.17 0.15 0.08 0.05 0.03 0.03 0.05 0.08 0.09 0.12 0.10 0.09 0.09 0.14 0.36 0.36 0.48 0.71

GFSNE_prec_precacc_045.txt.gz
Total_Precipitation_Accumulation
0.00 0.00 0.00 0.00 0.00 0.00 0.02 0.07 0.13 0.07 0.01 0.00 0.01 0.02 0.03 0.04 0.04 0.07 0.08 0.05 0.05 0.06 0.06 0.05 0.05 0.07 0.09 0.11 0.18 0.28 0.42 0.59 0.71 0.75 0.79 0.84 0.86 0.92
0.00 0.00 0.00 0.00 0.00 0.00 0.01 0.02 0.06 0.11 0.06 0.00 0.00 0.02 0.04 0.05 0.03 0.05 0.06 0.10 0.11 0.09 0.09 0.10 0.13 0.16 0.18 0.19 0.19 0.19 0.23 0.30 0.36 0.48 0.64 0.81 0.92 0.96
0.00 0.00 0.00 0.00 0.00 0.00 0.00 0.00 0.00 0.04 0.07 0.00 0.00 0.00 0.02 0.03 0.03 0.05 0.05 0.04 0.05 0.11 0.15 0.14 0.12 0.14 0.17 0.22 0.27 0.31 0.37 0.43 0.44 0.45 0.52 0.66 0.73 0.79
0.00 0.00 0.00 0.00 0.00 0.00 0.00 0.00 0.00 0.02 0.05 0.05 0.01 0.00 0.00 0.01 0.02 0.03 0.05 0.09 0.08 0.05 0.08 0.09 0.10 0.12 0.14 0.15 0.19 0.23 0.31 0.40 0.49 0.59 0.65 0.64 0.60 0.66
0.00 0.00 0.00 0.00 0.00 0.00 0.00 0.00 0.01 0.02 0.05 0.10 0.04 0.00 0.01 0.01 0.04 0.04 0.04 0.04 0.04 0.07 0.11 0.13 0.13 0.13 0.13 0.15 0.20 0.27 0.35 0.44 0.50 0.54 0.62 0.73 0.82 0.80
0.00 0.00 0.00 0.00 0.00 0.00 0.00 0.01 0.03 0.04 0.03 0.07 0.16 0.14 0.09 0.07 0.07 0.04 0.04 0.04 0.04 0.03 0.06 0.12 0.15 0.16 0.15 0.18 0.21 0.26 0.28 0.34 0.46 0.53 0.59 0.64 0.67 0.68
0.00 0.00 0.00 0.00 0.00 0.00 0.02 0.03 0.05 0.08 0.21 0.37 0.33 0.30 0.17 0.05 0.04 0.04 0.07 0.06 0.05 0.04 0.06 0.11 0.11 0.10 0.09 0.16 0.25 0.28 0.31 0.37 0.50 0.70 0.82 0.91 0.98 0.98
0.00 0.00 0.00 0.00 0.00 0.00 0.02 0.05 0.09 0.24 0.38 0.53 0.41 0.16 0.04 0.02 0.03 0.13 0.27 0.29 0.20 0.03 0.05 0.05 0.05 0.06 0.08 0.15 0.24 0.25 0.31 0.41 0.47 0.55 0.62 0.63 0.65 0.71
0.00 0.00 0.00 0.00 0.01 0.01 0.01 0.07 0.20 0.33 0.29 0.15 0.08 0.07 0.08 0.13 0.42 0.47 0.29 0.23 0.14 0.03 0.09 0.12 0.08 0.10 0.13 0.16 0.24 0.29 0.36 0.45 0.52 0.56 0.55 0.56 0.60 0.59
0.00 0.00 0.00 0.01 0.02 0.04 0.09 0.31 0.24 0.09 0.01 0.02 0.05 0.11 0.25 0.29 0.24 0.24 0.18 0.17 0.10 0.05 0.10 0.28 0.10 0.10 0.08 0.16 0.30 0.24 0.30 0.42 0.55 0.61 0.61 0.56 0.55 0.64
0.00 0.00 0.04 0.03 0.02 0.12 0.29 0.27 0.05 0.00 0.00 0.05 0.15 0.13 0.06 0.03 0.04 0.29 0.39 0.39 0.25 0.05 0.06 0.22 0.16 0.13 0.11 0.17 0.33 0.39 0.42 0.45 0.44 0.40 0.39 0.40 0.47 0.51
0.01 0.02 0.02 0.03 0.08 0.35 0.17 0.06 0.09 0.04 0.14 0.10 0.02 0.00 0.01 0.02 0.07 0.17 0.48 0.95 0.46 0.35 0.07 0.46 0.29 0.23 0.53 0.19 0.34 0.44 0.42 0.44 0.40 0.39 0.37 0.38 0.41 0.46
0.09 0.02 0.01 0.09 0.28 0.13 0.05 0.04 0.06 0.07 0.07 0.02 0.00 0.00 0.01 0.01 0.04 0.08 0.23 0.87 1.09 0.65 0.12 0.85 0.86 0.27 0.57 0.34 0.38 0.47 0.44 0.51 0.59 0.70 0.79 0.64 0.58 0.58
0.04 0.02 0.10 0.24 0.06 0.01 0.01 0.03 0.06 0.04 0.01 0.02 0.03 0.02 0.02 0.03 0.03 0.04 0.09 0.21 0.45 0.80 0.34 0.53 1.12 0.51 0.75 0.58 0.46 0.48 0.49 0.64 0.93 1.16 1.26 0.79 0.72 0.67
0.06 0.18 0.17 0.02 0.00 0.00 0.01 0.01 0.02 0.01 0.05 0.14 0.10 0.05 0.04 0.05 0.05 0.07 0.12 0.17 0.22 0.28 0.34 0.43 0.77 0.74 0.84 0.77 0.54 0.42 0.63 0.73 0.85 1.00 1.08 1.14 0.99 0.71
0.18 0.18 0.01 0.00 0.00 0.00 0.00 0.00 0.00 0.02 0.11 0.24 0.20 0.08 0.04 0.06 0.08 0.17 0.36 0.29 0.40 0.30 0.34 0.44 0.58 0.73 0.69 0.47 0.60 0.55 0.57 0.90 0.91 0.93 0.89 1.07 1.09 0.71
0.07 0.00 0.00 0.00 0.00 0.00 0.00 0.00 0.00 0.01 0.08 0.10 0.18 0.16 0.09 0.09 0.12 0.21 0.45 0.59 0.65 0.52 0.46 0.41 0.32 0.31 0.40 0.44 0.49 0.47 0.54 0.70 1.01 1.05 0.84 1.00 0.99 0.83
0.00 0.00 0.01 0.01 0.02 0.01 0.02 0.02 0.01 0.03 0.09 0.19 0.18 0.18 0.27 0.26 0.29 0.29 0.50 0.68 0.67 0.54 0.54 0.46 0.34 0.27 0.28 0.30 0.47 0.69 0.65 0.76 0.99 0.89 0.77 0.74 0.89 1.00
0.01 0.03 0.03 0.02 0.02 0.02 0.04 0.06 0.08 0.05 0.16 0.29 0.33 0.36 0.38 0.31 0.34 0.44 0.54 0.56 0.54 0.48 0.38 0.26 0.29 0.38 0.43 0.28 0.27 0.57 0.81 0.79 0.71 0.62 0.60 0.60 0.78 0.88
0.04 0.05 0.03 0.03 0.03 0.05 0.09 0.12 0.16 0.12 0.18 0.29 0.40 0.40 0.45 0.51 0.47 0.50 0.54 0.57 0.50 0.33 0.13 0.06 0.11 0.32 0.62 0.59 0.44 0.57 0.65 0.72 0.63 0.70 0.74 0.62 0.78 0.65
0.05 0.03 0.02 0.03 0.05 0.09 0.11 0.15 0.19 0.31 0.48 0.54 0.41 0.46 0.46 0.60 0.49 0.46 0.46 0.35 0.24 0.15 0.09 0.04 0.06 0.20 0.31 0.20 0.24 0.30 0.50 0.53 0.48 0.61 0.60 0.41 0.45 0.28
0.03 0.03 0.03 0.03 0.08 0.14 0.17 0.19 0.23 0.25 0.34 0.37 0.44 0.51 0.55 0.59 0.59 0.42 0.26 0.23 0.14 0.16 0.11 0.03 0.01 0.06 0.09 0.13 0.17 0.20 0.21 0.22 0.24 0.18 0.30 0.59 0.74 0.88
0.04 0.04 0.04 0.07 0.11 0.14 0.17 0.19 0.27 0.30 0.38 0.52 0.51 0.54 0.53 0.45 0.27 0.22 0.18 0.17 0.18 0.16 0.10 0.06 0.03 0.03 0.06 0.10 0.11 0.13 0.10 0.09 0.09 0.14 0.36 0.36 0.48 0.71

GFSNE_prec_precacc_048.txt.gz
Total_Precipitation_Accumulation
0.00 0.00 0.00 0.00 0.00 0.00 0.02 0.07 0.13 0.07 0.01 0.00 0.01 0.02 0.03 0.04 0.04 0.07 0.08 0.05 0.05 0.06 0.06 0.05 0.05 0.07 0.09 0.11 0.18 0.28 0.43 0.59 0.73 0.77 0.82 0.87 0.90 0.97
0.00 0.00 0.00 0.00 0.00 0.00 0.01 0.02 0.06 0.11 0.06 0.00 0.00 0.02 0.04 0.05 0.03 0.05 0.06 0.10 0.11 0.09 0.09 0.10 0.13 0.16 0.18 0.20 0.19 0.19 0.23 0.30 0.38 0.50 0.68 0.86 0.96 1.00
0.00 0.00 0.00 0.00 0.00 0.00 0.00 0.00 0.00 0.04 0.07 0.00 0.00 0.00 0.02 0.03 0.03 0.05 0.05 0.04 0.05 0.11 0.15 0.14 0.12 0.14 0.17 0.22 0.27 0.31 0.38 0.43 0.44 0.46 0.54 0.70 0.78 0.84
0.00 0.00 0.00 0.00 0.00 0.00 0.00 0.00 0.00 0.02 0.05 0.05 0.01 0.00 0.00 0.01 0.02 0.03 0.05 0.09 0.08 0.05 0.08 0.09 0.10 0.12 0.14 0.16 0.19 0.24 0.31 0.40 0.50 0.60 0.65 0.65 0.61 0.68
0.00 0.00 0.00 0.00 0.00 0.00 0.00 0.00 0.01 0.02 0.05 0.10 0.04 0.00 0.01 0.01 0.04 0.04 0.04 0.04 0.04 0.07 0.11 0.13 0.13 0.13 0.13 0.15 0.21 0.27 0.35 0.44 0.51 0.54 0.62 0.74 0.82 0.81
0.00 0.00 0.00 0.00 0.00 0.00 0.00 0.01 0.03 0.04 0.03 0.07 0.16 0.14 0.09 0.07 0.07 0.04 0.04 0.04 0.04 0.03 0.06 0.12 0.15 0.16 0.15 0.18 0.21 0.26 0.28 0.34 0.46 0.54 0.60 0.65 0.68 0.69
0.00 0.00 0.00 0.00 0.00 0.00 0.02 0.03 0.05 0.08 0.21 0.37 0.33 0.30 0.17 0.05 0.04 0.04 0.07 0.06 0.05 0.04 0.06 0.11 0.11 0.10 0.09 0.16 0.25 0.28 0.31 0.37 0.50 0.70 0.82 0.91 0.99 1.00
0.00 0.00 0.00 0.00 0.00 0.00 0.02 0.05 0.09 0.24 0.38 0.53 0.41 0.16 0.04 0.02 0.03 0.13 0.27 0.29 0.20 0.03 0.05 0.05 0.05 0.06 0.08 0.15 0.24 0.25 0.31 0.41 0.47 0.55 0.62 0.64 0.66 0.73
0.00 0.00 0.00 0.00 0.01 0.01 0.01 0.07 0.20 0.33 0.29 0.16 0.08 0.07 0.08 0.13 0.42 0.48 0.30 0.24 0.15 0.03 0.09 0.12 0.08 0.10 0.13 0.16 0.24 0.29 0.36 0.45 0.52 0.56 0.55 0.57 0.61 0.60
0.00 0.00 0.00 0.01 0.02 0.04 0.09 0.31 0.24 0.09 0.01 0.02 0.05 0.11 0.25 0.29 0.25 0.27 0.20 0.17 0.10 0.05 0.10 0.29 0.10 0.10 0.08 0.16 0.30 0.24 0.30 0.42 0.55 0.62 0.61 0.56 0.55 0.64
0.00 0.00 0.04 0.03 0.02 0.12 0.29 0.27 0.05 0.00 0.00 0.05 0.15 0.13 0.06 0.03 0.04 0.29 0.39 0.39 0.25 0.05 0.06 0.22 0.16 0.13 0.11 0.17 0.33 0.39 0.42 0.45 0.44 0.40 0.39 0.40 0.47 0.52
0.01 0.02 0.02 0.03 0.08 0.35 0.17 0.06 0.09 0.04 0.14 0.10 0.02 0.00 0.01 0.02 0.07 0.17 0.48 0.96 0.47 0.36 0.07 0.46 0.29 0.23 0.55 0.20 0.34 0.44 0.42 0.44 0.40 0.39 0.37 0.38 0.41 0.46
0.09 0.02 0.01 0.09 0.28 0.13 0.05 0.04 0.06 0.07 0.07 0.02 0.00 0.00 0.01 0.01 0.04 0.08 0.23 0.88 1.11 0.67 0.12 0.88 0.91 0.28 0.60 0.34 0.38 0.47 0.44 0.51 0.59 0.70 0.79 0.64 0.58 0.58
0.04 0.02 0.10 0.24 0.06 0.01 0.01 0.03 0.06 0.04 0.01 0.02 0.03 0.02 0.02 0.03 0.03 0.04 0.09 0.21 0.45 0.81 0.34 0.54 1.18 0.52 0.79 0.60 0.46 0.48 0.49 0.64 0.93 1.16 1.26 0.79 0.72 0.67
0.06 0.18 0.17 0.02 0.00 0.00 0.01 0.01 0.02 0.01 0.05 0.14 0.10 0.05 0.04 0.05 0.05 0.07 0.12 0.17 0.22 0.28 0.34 0.43 0.78 0.75 0.86 0.79 0.55 0.42 0.63 0.73 0.85 1.00 1.08 1.14 0.99 0.71
0.18 0.18 0.01 0.00 0.00 0.00 0.00 0.00 0.00 0.02 0.11 0.24 0.20 0.08 0.04 0.06 0.08 0.17 0.36 0.29 0.40 0.30 0.34 0.44 0.58 0.73 0.70 0.48 0.61 0.56 0.57 0.90 0.91 0.93 0.89 1.07 1.09 0.71
0.07 0.00 0.00 0.00 0.00 0.00 0.00 0.00 0.00 0.01 0.08 0.10 0.18 0.16 0.10 0.09 0.12 0.21 0.46 0.60 0.66 0.52 0.46 0.41 0.32 0.31 0.40 0.45 0.50 0.47 0.54 0.70 1.01 1.05 0.84 1.01 0.99 0.83
0.00 0.00 0.01 0.01 0.02 0.01 0.02 0.02 0.01 0.03 0.09 0.19 0.18 0.18 0.28 0.27 0.30 0.30 0.51 0.69 0.68 0.54 0.54 0.46 0.34 0.28 0.29 0.30 0.47 0.70 0.66 0.76 0.99 0.89 0.77 0.75 0.90 1.00
0.01 0.03 0.03 0.02 0.02 0.02 0.04 0.06 0.08 0.05 0.16 0.29 0.33 0.36 0.39 0.32 0.34 0.45 0.54 0.57 0.55 0.48 0.38 0.26 0.30 0.42 0.46 0.28 0.27 0.58 0.88 0.84 0.72 0.62 0.60 0.60 0.78 0.89
0.04 0.05 0.03 0.03 0.03 0.06 0.09 0.13 0.16 0.12 0.18 0.29 0.41 0.41 0.46 0.53 0.47 0.50 0.55 0.58 0.52 0.34 0.13 0.06 0.11 0.35 0.68 0.63 0.48 0.57 0.66 0.76 0.67 0.73 0.74 0.62 0.78 0.65
0.05 0.03 0.02 0.03 0.06 0.10 0.12 0.16 0.19 0.32 0.48 0.55 0.42 0.47 0.47 0.62 0.50 0.46 0.46 0.36 0.25 0.17 0.11 0.04 0.06 0.21 0.33 0.23 0.26 0.30 0.50 0.53 0.49 0.65 0.63 0.45 0.46 0.28
0.03 0.03 0.03 0.03 0.08 0.14 0.17 0.19 0.24 0.25 0.34 0.38 0.45 0.52 0.56 0.60 0.61 0.43 0.27 0.25 0.15 0.16 0.12 0.03 0.01 0.08 0.11 0.18 0.19 0.21 0.21 0.22 0.24 0.18 0.30 0.63 0.80 0.96
0.04 0.04 0.04 0.07 0.12 0.15 0.18 0.20 0.27 0.30 0.39 0.53 0.52 0.54 0.53 0.46 0.28 0.23 0.19 0.18 0.20 0.18 0.12 0.08 0.03 0.03 0.06 0.12 0.14 0.15 0.10 0.09 0.09 0.14 0.36 0.36 0.48 0.72

GFSNE_prec_precacc_051.txt.gz
Total_Precipitation_Accumulation
0.00 0.00 0.00 0.00 0.00 0.00 0.02 0.07 0.13 0.07 0.01 0.00 0.01 0.02 0.03 0.04 0.04 0.07 0.08 0.05 0.05 0.06 0.06 0.05 0.05 0.07 0.09 0.11 0.18 0.28 0.43 0.59 0.73 0.77 0.83 0.89 0.93 1.02
0.01 0.00 0.00 0.00 0.00 0.00 0.01 0.02 0.06 0.11 0.06 0.00 0.00 0.02 0.04 0.05 0.03 0.05 0.06 0.10 0.11 0.09 0.09 0.10 0.13 0.16 0.18 0.20 0.20 0.19 0.23 0.30 0.38 0.51 0.69 0.89 1.01 1.05
0.00 0.00 0.00 0.00 0.00 0.00 0.00 0.00 0.00 0.04 0.07 0.00 0.00 0.00 0.02 0.03 0.03 0.05 0.05 0.04 0.05 0.11 0.15 0.14 0.12 0.14 0.17 0.22 0.27 0.31 0.38 0.44 0.46 0.47 0.55 0.72 0.81 0.87
0.00 0.00 0.00 0.00 0.00 0.00 0.00 0.00 0.00 0.02 0.05 0.05 0.01 0.00 0.00 0.01 0.02 0.03 0.05 0.09 0.08 0.05 0.08 0.09 0.10 0.12 0.14 0.16 0.19 0.24 0.32 0.41 0.50 0.60 0.65 0.65 0.61 0.69
0.06 0.03 0.02 0.01 0.01 0.00 0.00 0.00 0.01 0.02 0.05 0.10 0.04 0.00 0.01 0.01 0.04 0.04 0.04 0.04 0.04 0.07 0.11 0.13 0.13 0.13 0.13 0.15 0.21 0.27 0.35 0.44 0.51 0.54 0.62 0.74 0.82 0.82
0.05 0.05 0.02 0.01 0.00 0.00 0.00 0.01 0.03 0.04 0.03 0.07 0.16 0.14 0.09 0.07 0.07 0.04 0.04 0.04 0.04 0.03 0.06 0.12 0.15 0.16 0.15 0.18 0.21 0.26 0.28 0.34 0.46 0.54 0.60 0.65 0.69 0.70
0.02 0.00 0.00 0.00 0.00 0.00 0.02 0.03 0.05 0.08 0.21 0.37 0.33 0.30 0.17 0.05 0.04 0.04 0.07 0.06 0.05 0.04 0.06 0.11 0.11 0.10 0.09 0.16 0.25 0.28 0.31 0.37 0.51 0.71 0.83 0.92 1.00 1.01
0.03 0.02 0.01 0.00 0.00 0.00 0.02 0.05 0.09 0.24 0.38 0.53 0.41 0.16 0.04 0.02 0.03 0.13 0.27 0.29 0.20 0.03 0.05 0.05 0.05 0.06 0.08 0.15 0.24 0.25 0.31 0.41 0.47 0.55 0.63 0.64 0.67 0.74
0.00 0.00 0.00 0.00 0.01 0.01 0.01 0.07 0.20 0.33 0.29 0.16 0.08 0.07 0.08 0.13 0.42 0.48 0.30 0.25 0.15 0.03 0.09 0.12 0.08 0.10 0.13 0.16 0.24 0.29 0.36 0.45 0.52 0.56 0.55 0.57 0.61 0.61
0.00 0.00 0.00 0.01 0.02 0.04 0.09 0.31 0.24 0.09 0.01 0.02 0.05 0.11 0.25 0.29 0.25 0.28 0.20 0.17 0.10 0.05 0.10 0.29 0.10 0.10 0.08 0.16 0.30 0.24 0.30 0.42 0.55 0.62 0.62 0.57 0.55 0.64
0.00 0.00 0.04 0.03 0.02 0.12 0.29 0.27 0.05 0.00 0.00 0.05 0.15 0.13 0.06 0.03 0.04 0.29 0.39 0.39 0.25 0.05 0.06 0.22 0.16 0.13 0.11 0.17 0.33 0.39 0.42 0.45 0.44 0.40 0.39 0.40 0.47 0.52
0.01 0.02 0.02 0.03 0.08 0.35 0.17 0.06 0.09 0.04 0.14 0.10 0.02 0.00 0.01 0.02 0.07 0.17 0.48 0.96 0.47 0.37 0.07 0.47 0.30 0.23 0.55 0.20 0.34 0.44 0.42 0.44 0.40 0.39 0.37 0.38 0.41 0.46
0.09 0.02 0.01 0.09 0.29 0.14 0.05 0.04 0.06 0.07 0.07 0.02 0.00 0.00 0.01 0.01 0.04 0.08 0.23 0.88 1.12 0.69 0.12 0.92 0.94 0.28 0.62 0.35 0.38 0.47 0.44 0.51 0.59 0.70 0.79 0.64 0.58 0.58
0.04 0.02 0.10 0.24 0.06 0.01 0.01 0.03 0.06 0.04 0.01 0.02 0.03 0.02 0.02 0.03 0.03 0.04 0.09 0.21 0.45 0.82 0.34 0.55 1.25 0.53 0.82 0.62 0.47 0.48 0.49 0.64 0.93 1.16 1.26 0.79 0.72 0.67
0.06 0.18 0.17 0.02 0.00 0.00 0.01 0.01 0.02 0.01 0.05 0.14 0.10 0.05 0.04 0.05 0.05 0.07 0.12 0.17 0.22 0.28 0.34 0.43 0.80 0.77 0.90 0.81 0.56 0.43 0.63 0.73 0.85 1.00 1.08 1.14 0.99 0.71
0.18 0.18 0.01 0.00 0.00 0.00 0.00 0.00 0.00 0.02 0.11 0.24 0.20 0.08 0.04 0.06 0.08 0.17 0.36 0.30 0.41 0.30 0.34 0.44 0.58 0.74 0.72 0.49 0.62 0.58 0.57 0.91 0.91 0.93 0.89 1.07 1.09 0.71
0.07 0.00 0.00 0.00 0.00 0.00 0.00 0.00 0.00 0.01 0.08 0.10 0.18 0.17 0.10 0.09 0.12 0.21 0.46 0.60 0.67 0.52 0.46 0.41 0.32 0.31 0.40 0.45 0.51 0.47 0.54 0.70 1.01 1.05 0.84 1.01 0.99 0.83
0.00 0.00 0.01 0.01 0.02 0.01 0.02 0.02 0.01 0.03 0.09 0.19 0.19 0.19 0.28 0.27 0.30 0.30 0.51 0.70 0.68 0.54 0.54 0.46 0.34 0.28 0.29 0.30 0.47 0.70 0.67 0.76 0.99 0.89 0.77 0.77 0.91 1.00
0.01 0.03 0.03 0.02 0.02 0.02 0.04 0.07 0.08 0.05 0.16 0.29 0.34 0.36 0.39 0.33 0.35 0.45 0.55 0.57 0.55 0.48 0.38 0.26 0.31 0.45 0.50 0.29 0.27 0.58 0.95 0.90 0.74 0.64 0.60 0.60 0.79 0.89
0.04 0.05 0.03 0.03 0.03 0.06 0.09 0.13 0.16 0.12 0.18 0.30 0.41 0.42 0.47 0.54 0.48 0.51 0.55 0.59 0.53 0.35 0.14 0.06 0.12 0.39 0.74 0.68 0.53 0.57 0.66 0.80 0.72 0.76 0.74 0.62 0.78 0.65
0.05 0.03 0.02 0.03 0.06 0.10 0.12 0.16 0.20 0.32 0.48 0.56 0.42 0.47 0.47 0.64 0.51 0.46 0.47 0.36 0.26 0.18 0.12 0.04 0.06 0.22 0.37 0.27 0.28 0.30 0.50 0.53 0.51 0.71 0.68 0.48 0.46 0.28
0.03 0.03 0.03 0.03 0.08 0.14 0.18 0.19 0.24 0.25 0.34 0.38 0.45 0.52 0.56 0.61 0.62 0.44 0.28 0.26 0.16 0.17 0.13 0.04 0.01 0.08 0.12 0.21 0.21 0.21 0.21 0.22 0.24 0.18 0.31 0.68 0.87 1.02
0.04 0.04 0.04 0.07 0.12 0.15 0.18 0.20 0.28 0.30 0.39 0.53 0.53 0.55 0.54 0.47 0.29 0.24 0.20 0.20 0.21 0.19 0.12 0.09 0.03 0.03 0.07 0.15 0.17 0.17 0.11 0.09 0.09 0.14 0.36 0.36 0.48 0.73

GFSNE_prec_precacc_057.txt.gz
Total_Precipitation_Accumulation
0.01 0.01 0.01 0.00 0.00 0.00 0.02 0.08 0.16 0.10 0.03 0.01 0.01 0.02 0.03 0.04 0.04 0.07 0.08 0.05 0.05 0.06 0.06 0.05 0.05 0.07 0.09 0.11 0.18 0.28 0.43 0.60 0.73 0.78 0.84 0.90 0.94 1.04
0.01 0.00 0.00 0.00 0.00 0.00 0.01 0.02 0.07 0.12 0.08 0.02 0.04 0.07 0.08 0.06 0.03 0.05 0.06 0.10 0.11 0.09 0.09 0.10 0.13 0.16 0.18 0.20 0.20 0.19 0.24 0.30 0.38 0.51 0.70 0.91 1.04 1.10
0.00 0.00 0.00 0.01 0.01 0.02 0.03 0.06 0.09 0.14 0.17 0.04 0.02 0.01 0.02 0.03 0.03 0.05 0.05 0.04 0.05 0.11 0.15 0.14 0.12 0.14 0.17 0.22 0.27 0.31 0.38 0.44 0.47 0.49 0.58 0.76 0.86 0.92
0.01 0.01 0.02 0.03 0.05 0.08 0.13 0.14 0.11 0.07 0.08 0.06 0.01 0.01 0.00 0.01 0.02 0.03 0.05 0.09 0.08 0.05 0.08 0.09 0.10 0.12 0.14 0.16 0.19 0.24 0.33 0.42 0.51 0.61 0.66 0.66 0.62 0.70
0.09 0.11 0.15 0.16 0.19 0.19 0.15 0.08 0.05 0.05 0.07 0.11 0.04 0.00 0.01 0.01 0.04 0.04 0.04 0.04 0.04 0.07 0.11 0.13 0.13 0.13 0.13 0.15 0.21 0.27 0.35 0.45 0.51 0.54 0.62 0.74 0.82 0.82
0.16 0.20 0.21 0.19 0.15 0.09 0.07 0.08 0.09 0.08 0.06 0.08 0.16 0.14 0.09 0.07 0.07 0.04 0.04 0.04 0.04 0.03 0.06 0.12 0.15 0.16 0.15 0.18 0.21 0.26 0.28 0.34 0.47 0.54 0.60 0.65 0.69 0.71
0.27 0.23 0.19 0.17 0.14 0.11 0.10 0.07 0.07 0.08 0.21 0.37 0.33 0.30 0.17 0.05 0.04 0.04 0.07 0.06 0.05 0.04 0.06 0.11 0.11 0.10 0.09 0.16 0.25 0.28 0.31 0.37 0.51 0.71 0.83 0.93 1.01 1.03
0.23 0.18 0.14 0.09 0.05 0.02 0.03 0.05 0.09 0.24 0.38 0.53 0.41 0.16 0.04 0.02 0.03 0.13 0.27 0.29 0.21 0.03 0.05 0.05 0.05 0.06 0.08 0.15 0.24 0.25 0.31 0.41 0.47 0.56 0.63 0.65 0.68 0.76
0.12 0.09 0.05 0.02 0.01 0.01 0.01 0.07 0.20 0.33 0.29 0.16 0.08 0.07 0.08 0.13 0.42 0.49 0.31 0.26 0.16 0.03 0.09 0.12 0.08 0.10 0.13 0.16 0.24 0.29 0.36 0.45 0.52 0.57 0.56 0.57 0.62 0.62
0.04 0.02 0.01 0.01 0.02 0.04 0.09 0.31 0.24 0.09 0.01 0.02 0.05 0.11 0.25 0.29 0.25 0.30 0.21 0.18 0.10 0.05 0.10 0.29 0.10 0.10 0.08 0.16 0.30 0.24 0.30 0.42 0.55 0.62 0.62 0.57 0.56 0.65
0.00 0.00 0.04 0.03 0.02 0.12 0.29 0.27 0.05 0.00 0.00 0.05 0.15 0.13 0.06 0.03 0.04 0.29 0.39 0.39 0.26 0.05 0.06 0.22 0.16 0.13 0.11 0.17 0.33 0.39 0.42 0.45 0.44 0.40 0.39 0.40 0.48 0.52
0.01 0.02 0.02 0.03 0.08 0.35 0.18 0.06 0.09 0.04 0.14 0.10 0.02 0.00 0.01 0.02 0.07 0.17 0.48 0.97 0.49 0.39 0.07 0.48 0.30 0.23 0.56 0.20 0.34 0.44 0.42 0.44 0.40 0.39 0.37 0.38 0.42 0.46
0.09 0.02 0.01 0.09 0.29 0.14 0.05 0.04 0.06 0.07 0.07 0.02 0.00 0.00 0.01 0.01 0.04 0.08 0.23 0.88 1.14 0.71 0.12 0.96 0.99 0.29 0.64 0.36 0.38 0.47 0.44 0.51 0.59 0.70 0.79 0.64 0.58 0.58
0.04 0.02 0.10 0.24 0.06 0.01 0.01 0.03 0.06 0.04 0.01 0.02 0.03 0.02 0.02 0.03 0.03 0.04 0.09 0.21 0.46 0.82 0.34 0.57 1.33 0.54 0.87 0.64 0.47 0.48 0.49 0.64 0.93 1.16 1.26 0.79 0.72 0.68
0.06 0.18 0.17 0.02 0.00 0.00 0.01 0.01 0.02 0.01 0.05 0.14 0.10 0.05 0.04 0.05 0.05 0.07 0.12 0.17 0.22 0.28 0.34 0.43 0.82 0.78 0.94 0.85 0.58 0.43 0.63 0.73 0.85 1.00 1.08 1.14 0.99 0.71
0.18 0.18 0.01 0.00 0.00 0.00 0.00 0.00 0.00 0.02 0.11 0.24 0.20 0.08 0.04 0.06 0.08 0.17 0.36 0.30 0.41 0.30 0.34 0.44 0.58 0.75 0.77 0.51 0.65 0.59 0.57 0.91 0.91 0.93 0.89 1.07 1.09 0.71
0.07 0.00 0.00 0.00 0.00 0.00 0.00 0.00 0.00 0.01 0.08 0.10 0.18 0.17 0.10 0.10 0.12 0.21 0.46 0.61 0.68 0.52 0.46 0.41 0.32 0.31 0.41 0.47 0.57 0.48 0.54 0.70 1.01 1.05 0.84 1.02 0.99 0.83
0.00 0.00 0.01 0.01 0.02 0.01 0.02 0.02 0.01 0.03 0.09 0.19 0.19 0.19 0.28 0.27 0.30 0.30 0.51 0.71 0.70 0.54 0.54 0.46 0.34 0.29 0.29 0.30 0.48 0.73 0.69 0.76 0.99 0.89 0.78 0.80 0.92 1.00
0.01 0.03 0.03 0.02 0.02 0.02 0.04 0.07 0.08 0.05 0.16 0.29 0.34 0.36 0.40 0.33 0.35 0.45 0.55 0.58 0.56 0.48 0.38 0.26 0.33 0.51 0.56 0.30 0.27 0.61 1.14 0.97 0.75 0.65 0.60 0.61 0.80 0.89
0.04 0.05 0.03 0.03 0.03 0.06 0.09 0.13 0.16 0.12 0.18 0.30 0.42 0.43 0.47 0.55 0.48 0.51 0.56 0.60 0.55 0.36 0.14 0.06 0.13 0.46 0.89 0.80 0.62 0.58 0.68 0.92 0.80 0.80 0.75 0.63 0.79 0.65
0.05 0.03 0.02 0.03 0.06 0.10 0.12 0.16 0.20 0.32 0.49 0.56 0.43 0.48 0.48 0.66 0.52 0.47 0.47 0.37 0.28 0.20 0.14 0.05 0.06 0.24 0.40 0.31 0.31 0.30 0.50 0.55 0.61 0.86 0.78 0.55 0.47 0.28
0.03 0.03 0.03 0.04 0.09 0.15 0.18 0.20 0.24 0.25 0.35 0.38 0.46 0.53 0.56 0.62 0.64 0.45 0.29 0.28 0.16 0.18 0.15 0.04 0.01 0.09 0.13 0.27 0.24 0.21 0.21 0.22 0.24 0.21 0.39 0.81 0.98 1.08
0.04 0.04 0.04 0.07 0.12 0.15 0.19 0.21 0.28 0.31 0.39 0.53 0.54 0.56 0.54 0.48 0.29 0.25 0.21 0.22 0.24 0.24 0.14 0.09 0.03 0.03 0.07 0.17 0.21 0.21 0.11 0.09 0.09 0.14 0.36 0.37 0.48 0.73

GFSNE_prec_precacc_060.txt.gz
Total_Precipitation_Accumulation
0.07 0.04 0.02 0.01 0.00 0.00 0.02 0.09 0.16 0.11 0.04 0.02 0.02 0.04 0.06 0.06 0.04 0.08 0.08 0.05 0.05 0.06 0.06 0.05 0.05 0.07 0.09 0.11 0.18 0.28 0.43 0.60 0.73 0.78 0.84 0.90 0.95 1.04
0.15 0.15 0.16 0.10 0.04 0.00 0.01 0.02 0.08 0.14 0.13 0.08 0.09 0.12 0.13 0.10 0.05 0.06 0.06 0.10 0.11 0.09 0.09 0.10 0.13 0.16 0.18 0.20 0.20 0.19 0.24 0.30 0.38 0.51 0.71 0.92 1.05 1.11
0.08 0.12 0.14 0.11 0.07 0.04 0.04 0.07 0.12 0.19 0.25 0.14 0.14 0.12 0.08 0.05 0.03 0.05 0.05 0.04 0.05 0.11 0.15 0.14 0.12 0.14 0.17 0.22 0.27 0.31 0.38 0.44 0.47 0.49 0.58 0.77 0.88 0.94
0.02 0.02 0.05 0.07 0.10 0.14 0.19 0.22 0.23 0.23 0.22 0.17 0.09 0.06 0.03 0.03 0.03 0.03 0.05 0.09 0.08 0.05 0.08 0.09 0.10 0.12 0.14 0.16 0.19 0.25 0.33 0.43 0.51 0.61 0.67 0.67 0.63 0.70
0.09 0.11 0.15 0.17 0.21 0.24 0.23 0.20 0.19 0.15 0.13 0.14 0.06 0.02 0.03 0.02 0.05 0.04 0.04 0.04 0.04 0.07 0.11 0.13 0.13 0.13 0.13 0.15 0.21 0.27 0.35 0.45 0.51 0.55 0.62 0.74 0.83 0.82
0.18 0.23 0.25 0.27 0.26 0.24 0.22 0.19 0.15 0.11 0.09 0.10 0.18 0.14 0.09 0.07 0.07 0.04 0.04 0.04 0.04 0.03 0.06 0.12 0.15 0.16 0.15 0.18 0.21 0.26 0.28 0.34 0.47 0.54 0.60 0.65 0.69 0.71
0.29 0.29 0.27 0.26 0.23 0.17 0.13 0.09 0.09 0.09 0.22 0.37 0.33 0.30 0.17 0.05 0.04 0.04 0.07 0.06 0.05 0.04 0.06 0.11 0.11 0.10 0.09 0.16 0.25 0.28 0.31 0.37 0.51 0.71 0.83 0.93 1.02 1.04
0.26 0.21 0.15 0.10 0.06 0.03 0.03 0.05 0.09 0.24 0.38 0.53 0.41 0.16 0.04 0.02 0.03 0.13 0.27 0.29 0.21 0.03 0.05 0.05 0.05 0.06 0.08 0.15 0.24 0.25 0.31 0.41 0.47 0.56 0.63 0.66 0.69 0.77
0.12 0.09 0.06 0.03 0.02 0.02 0.01 0.07 0.20 0.33 0.29 0.16 0.08 0.07 0.08 0.13 0.42 0.49 0.31 0.26 0.16 0.03 0.09 0.12 0.08 0.10 0.13 0.16 0.24 0.29 0.36 0.45 0.52 0.57 0.56 0.58 0.62 0.62
0.05 0.02 0.01 0.01 0.02 0.04 0.09 0.31 0.24 0.09 0.01 0.02 0.05 0.11 0.25 0.29 0.26 0.30 0.21 0.18 0.10 0.05 0.10 0.29 0.10 0.10 0.08 0.16 0.30 0.24 0.30 0.42 0.55 0.62 0.62 0.57 0.56 0.65
0.00 0.00 0.04 0.03 0.02 0.12 0.29 0.27 0.05 0.00 0.00 0.05 0.15 0.13 0.06 0.03 0.04 0.29 0.39 0.39 0.26 0.05 0.06 0.22 0.16 0.13 0.11 0.17 0.33 0.39 0.42 0.45 0.44 0.40 0.39 0.40 0.48 0.52
0.01 0.02 0.02 0.03 0.08 0.35 0.18 0.06 0.09 0.04 0.14 0.10 0.02 0.00 0.01 0.02 0.07 0.17 0.48 0.97 0.49 0.39 0.07 0.48 0.30 0.23 0.57 0.20 0.34 0.44 0.42 0.44 0.40 0.39 0.37 0.38 0.42 0.46
0.09 0.02 0.01 0.09 0.29 0.14 0.05 0.04 0.06 0.07 0.07 0.02 0.00 0.00 0.01 0.01 0.04 0.08 0.23 0.88 1.14 0.71 0.12 0.98 1.00 0.29 0.65 0.36 0.38 0.47 0.44 0.51 0.59 0.70 0.79 0.64 0.58 0.58
0.04 0.02 0.10 0.24 0.06 0.01 0.01 0.03 0.06 0.04 0.01 0.02 0.03 0.02 0.02 0.03 0.03 0.04 0.09 0.21 0.46 0.83 0.34 0.58 1.35 0.54 0.88 0.65 0.47 0.48 0.49 0.64 0.93 1.16 1.26 0.79 0.72 0.68
0.06 0.18 0.17 0.02 0.00 0.00 0.01 0.01 0.02 0.01 0.05 0.14 0.10 0.05 0.04 0.05 0.05 0.07 0.12 0.17 0.22 0.28 0.34 0.43 0.82 0.78 0.95 0.87 0.58 0.43 0.63 0.73 0.85 1.00 1.08 1.14 0.99 0.71
0.18 0.18 0.01 0.00 0.00 0.00 0.00 0.00 0.00 0.02 0.11 0.24 0.20 0.08 0.04 0.06 0.08 0.17 0.37 0.30 0.41 0.30 0.34 0.44 0.58 0.76 0.77 0.52 0.66 0.60 0.57 0.91 0.91 0.93 0.89 1.07 1.09 0.71
0.07 0.00 0.00 0.00 0.00 0.00 0.00 0.00 0.00 0.01 0.08 0.10 0.18 0.17 0.10 0.10 0.12 0.21 0.46 0.62 0.69 0.52 0.46 0.41 0.32 0.32 0.42 0.48 0.58 0.48 0.54 0.70 1.01 1.05 0.85 1.02 0.99 0.83
0.00 0.00 0.01 0.01 0.02 0.01 0.02 0.02 0.01 0.03 0.09 0.19 0.19 0.19 0.29 0.27 0.30 0.30 0.51 0.72 0.70 0.55 0.55 0.46 0.34 0.29 0.29 0.30 0.48 0.73 0.69 0.77 1.00 0.90 0.78 0.82 0.93 1.00
0.01 0.03 0.03 0.02 0.02 0.02 0.04 0.07 0.08 0.05 0.16 0.29 0.34 0.37 0.40 0.33 0.35 0.45 0.55 0.58 0.56 0.49 0.38 0.26 0.34 0.53 0.59 0.30 0.27 0.61 1.17 0.98 0.75 0.65 0.60 0.61 0.81 0.89
0.04 0.05 0.03 0.03 0.03 0.06 0.09 0.13 0.17 0.12 0.19 0.30 0.42 0.43 0.48 0.56 0.49 0.52 0.56 0.60 0.56 0.37 0.14 0.06 0.13 0.47 0.93 0.82 0.64 0.58 0.69 0.93 0.81 0.81 0.75 0.63 0.79 0.65
0.05 0.03 0.02 0.03 0.06 0.10 0.12 0.16 0.20 0.32 0.49 0.56 0.43 0.48 0.48 0.66 0.53 0.47 0.47 0.37 0.28 0.21 0.14 0.05 0.06 0.24 0.41 0.32 0.32 0.31 0.50 0.55 0.61 0.88 0.80 0.57 0.47 0.28
0.03 0.03 0.03 0.04 0.09 0.15 0.18 0.20 0.25 0.25 0.35 0.38 0.46 0.53 0.57 0.63 0.64 0.46 0.29 0.28 0.17 0.18 0.15 0.04 0.01 0.09 0.14 0.29 0.25 0.22 0.21 0.22 0.24 0.21 0.40 0.85 1.01 1.10
0.04 0.04 0.04 0.07 0.12 0.16 0.19 0.21 0.28 0.31 0.39 0.54 0.54 0.56 0.55 0.49 0.30 0.25 0.22 0.22 0.24 0.24 0.15 0.10 0.03 0.04 0.08 0.18 0.21 0.21 0.11 0.09 0.09 0.14 0.36 0.37 0.48 0.73

GFSNE_prec_precacc_063.txt.gz
Total_Precipitation_Accumulation
0.12 0.10 0.10 0.10 0.11 0.13 0.18 0.28 0.40 0.30 0.16 0.08 0.03 0.04 0.06 0.07 0.06 0.10 0.09 0.06 0.05 0.06 0.06 0.05 0.05 0.07 0.09 0.11 0.18 0.28 0.43 0.60 0.73 0.78 0.84 0.90 0.95 1.05
0.20 0.22 0.24 0.23 0.19 0.15 0.12 0.12 0.16 0.22 0.16 0.09 0.12 0.16 0.18 0.16 0.11 0.10 0.07 0.11 0.12 0.09 0.09 0.10 0.13 0.16 0.18 0.20 0.20 0.19 0.24 0.30 0.38 0.51 0.71 0.92 1.06 1.12
0.11 0.16 0.20 0.19 0.21 0.19 0.16 0.18 0.20 0.27 0.35 0.26 0.24 0.23 0.18 0.14 0.08 0.06 0.05 0.04 0.05 0.11 0.15 0.14 0.12 0.14 0.17 0.22 0.27 0.31 0.38 0.44 0.47 0.49 0.59 0.78 0.89 0.94
0.04 0.05 0.08 0.10 0.12 0.16 0.22 0.28 0.30 0.30 0.29 0.25 0.16 0.11 0.06 0.04 0.03 0.03 0.05 0.09 0.08 0.05 0.08 0.09 0.10 0.12 0.14 0.16 0.19 0.25 0.33 0.43 0.51 0.61 0.67 0.67 0.63 0.71
0.10 0.13 0.16 0.19 0.23 0.25 0.25 0.23 0.22 0.19 0.17 0.17 0.07 0.02 0.03 0.02 0.05 0.04 0.04 0.04 0.04 0.07 0.11 0.13 0.13 0.13 0.13 0.15 0.21 0.27 0.35 0.45 0.51 0.55 0.62 0.74 0.83 0.82
0.19 0.24 0.26 0.28 0.28 0.28 0.27 0.23 0.19 0.14 0.09 0.10 0.18 0.14 0.09 0.07 0.07 0.04 0.04 0.04 0.04 0.03 0.06 0.12 0.15 0.16 0.15 0.18 0.21 0.26 0.28 0.34 0.47 0.54 0.60 0.65 0.69 0.71
0.30 0.30 0.30 0.29 0.24 0.17 0.13 0.09 0.09 0.09 0.22 0.37 0.33 0.30 0.17 0.05 0.04 0.04 0.07 0.06 0.05 0.04 0.06 0.11 0.11 0.10 0.09 0.16 0.25 0.28 0.31 0.37 0.51 0.71 0.83 0.93 1.02 1.04
0.28 0.22 0.16 0.11 0.06 0.03 0.03 0.05 0.09 0.24 0.38 0.53 0.41 0.16 0.04 0.02 0.03 0.13 0.27 0.29 0.21 0.03 0.05 0.05 0.05 0.06 0.08 0.15 0.24 0.25 0.31 0.41 0.47 0.56 0.64 0.66 0.69 0.77
0.16 0.12 0.08 0.04 0.02 0.02 0.01 0.07 0.20 0.33 0.29 0.16 0.08 0.07 0.08 0.13 0.42 0.49 0.31 0.26 0.16 0.03 0.09 0.12 0.08 0.10 0.13 0.16 0.24 0.29 0.36 0.45 0.52 0.57 0.56 0.58 0.62 0.62
0.05 0.02 0.01 0.01 0.02 0.04 0.09 0.31 0.24 0.09 0.01 0.02 0.05 0.11 0.25 0.29 0.26 0.30 0.21 0.18 0.10 0.05 0.10 0.29 0.10 0.10 0.08 0.16 0.30 0.24 0.30 0.42 0.55 0.62 0.62 0.57 0.56 0.65
0.00 0.00 0.04 0.03 0.02 0.12 0.29 0.27 0.05 0.00 0.00 0.05 0.15 0.13 0.06 0.03 0.04 0.29 0.39 0.39 0.26 0.05 0.06 0.22 0.16 0.13 0.11 0.17 0.33 0.39 0.42 0.45 0.44 0.40 0.39 0.40 0.48 0.53
0.01 0.02 0.02 0.03 0.08 0.35 0.18 0.06 0.09 0.04 0.14 0.10 0.02 0.00 0.01 0.02 0.07 0.17 0.48 0.97 0.49 0.39 0.07 0.48 0.30 0.23 0.58 0.20 0.34 0.44 0.42 0.44 0.40 0.39 0.37 0.38 0.42 0.46
0.09 0.02 0.01 0.09 0.29 0.14 0.05 0.04 0.06 0.07 0.07 0.02 0.00 0.00 0.01 0.01 0.04 0.08 0.23 0.88 1.14 0.71 0.12 0.99 1.01 0.29 0.66 0.36 0.38 0.47 0.44 0.51 0.59 0.70 0.79 0.64 0.58 0.58
0.04 0.02 0.10 0.24 0.06 0.01 0.01 0.03 0.06 0.04 0.01 0.02 0.03 0.02 0.02 0.03 0.03 0.04 0.09 0.21 0.46 0.83 0.34 0.59 1.37 0.54 0.89 0.66 0.47 0.48 0.49 0.64 0.93 1.16 1.26 0.79 0.72 0.68
0.06 0.18 0.17 0.02 0.00 0.00 0.01 0.01 0.02 0.01 0.05 0.14 0.10 0.05 0.04 0.05 0.05 0.07 0.12 0.17 0.22 0.28 0.34 0.43 0.82 0.78 0.96 0.88 0.59 0.43 0.63 0.73 0.85 1.00 1.08 1.14 0.99 0.71
0.18 0.18 0.01 0.00 0.00 0.00 0.00 0.00 0.00 0.02 0.11 0.24 0.20 0.08 0.04 0.06 0.08 0.17 0.37 0.30 0.41 0.30 0.34 0.44 0.58 0.77 0.78 0.52 0.67 0.61 0.57 0.91 0.91 0.93 0.90 1.07 1.09 0.71
0.07 0.00 0.00 0.00 0.00 0.00 0.00 0.00 0.00 0.01 0.08 0.10 0.18 0.17 0.10 0.10 0.12 0.21 0.46 0.62 0.69 0.52 0.46 0.41 0.32 0.32 0.43 0.49 0.59 0.48 0.54 0.70 1.01 1.05 0.86 1.03 0.99 0.83
0.00 0.00 0.01 0.01 0.02 0.01 0.02 0.02 0.01 0.03 0.09 0.19 0.19 0.19 0.29 0.28 0.31 0.30 0.51 0.72 0.71 0.55 0.55 0.46 0.34 0.30 0.30 0.30 0.48 0.73 0.69 0.77 1.00 0.90 0.79 0.84 0.93 1.00
0.01 0.03 0.03 0.02 0.02 0.02 0.04 0.07 0.08 0.05 0.16 0.30 0.34 0.37 0.40 0.34 0.36 0.46 0.55 0.59 0.56 0.49 0.38 0.26 0.34 0.55 0.61 0.31 0.27 0.61 1.17 0.99 0.75 0.66 0.60 0.61 0.81 0.89
0.04 0.05 0.03 0.03 0.03 0.06 0.09 0.13 0.17 0.12 0.19 0.30 0.42 0.43 0.48 0.57 0.49 0.52 0.56 0.61 0.56 0.37 0.15 0.07 0.13 0.48 0.96 0.85 0.66 0.59 0.69 0.93 0.81 0.82 0.75 0.63 0.79 0.65
0.05 0.03 0.02 0.03 0.06 0.10 0.12 0.17 0.20 0.33 0.50 0.57 0.43 0.49 0.48 0.67 0.54 0.47 0.48 0.37 0.29 0.21 0.15 0.05 0.06 0.24 0.41 0.34 0.34 0.31 0.50 0.55 0.61 0.89 0.80 0.59 0.48 0.29
0.03 0.03 0.03 0.04 0.09 0.15 0.19 0.20 0.25 0.25 0.35 0.38 0.46 0.54 0.57 0.64 0.65 0.46 0.30 0.29 0.17 0.18 0.15 0.04 0.01 0.10 0.17 0.32 0.26 0.22 0.21 0.22 0.24 0.21 0.40 0.86 1.05 1.14
0.04 0.04 0.04 0.07 0.12 0.16 0.19 0.21 0.29 0.31 0.39 0.54 0.55 0.56 0.56 0.50 0.30 0.26 0.22 0.23 0.25 0.25 0.15 0.11 0.04 0.04 0.09 0.19 0.23 0.22 0.12 0.09 0.09 0.14 0.36 0.37 0.48 0.73

GFSNE_prec_precacc_066.txt.gz
Total_Precipitation_Accumulation
0.19 0.18 0.16 0.13 0.15 0.16 0.22 0.35 0.58 0.61 0.51 0.42 0.28 0.18 0.13 0.12 0.11 0.13 0.10 0.07 0.06 0.06 0.06 0.05 0.05 0.07 0.09 0.11 0.18 0.28 0.43 0.60 0.73 0.78 0.84 0.90 0.95 1.05
0.27 0.32 0.32 0.29 0.23 0.18 0.15 0.16 0.25 0.36 0.39 0.27 0.20 0.21 0.24 0.22 0.16 0.12 0.08 0.11 0.12 0.09 0.09 0.10 0.13 0.16 0.18 0.20 0.20 0.19 0.24 0.30 0.38 0.51 0.71 0.92 1.06 1.12
0.15 0.21 0.27 0.25 0.27 0.28 0.33 0.41 0.49 0.56 0.58 0.44 0.35 0.27 0.22 0.16 0.09 0.07 0.05 0.04 0.05 0.11 0.15 0.14 0.12 0.14 0.17 0.22 0.27 0.31 0.38 0.45 0.47 0.49 0.59 0.78 0.89 0.95
0.06 0.08 0.12 0.14 0.18 0.22 0.28 0.35 0.39 0.38 0.35 0.28 0.17 0.12 0.07 0.04 0.03 0.03 0.05 0.09 0.08 0.05 0.08 0.09 0.10 0.12 0.14 0.16 0.19 0.25 0.33 0.43 0.51 0.61 0.67 0.67 0.63 0.71
0.11 0.15 0.18 0.22 0.27 0.30 0.30 0.29 0.28 0.22 0.21 0.21 0.10 0.04 0.03 0.03 0.05 0.04 0.04 0.04 0.04 0.07 0.11 0.13 0.13 0.13 0.13 0.15 0.21 0.27 0.35 0.45 0.51 0.55 0.62 0.74 0.83 0.82
0.20 0.26 0.26 0.29 0.30 0.30 0.30 0.26 0.21 0.15 0.10 0.10 0.18 0.14 0.09 0.07 0.07 0.04 0.04 0.04 0.04 0.03 0.06 0.12 0.15 0.16 0.15 0.18 0.21 0.26 0.28 0.34 0.47 0.54 0.60 0.66 0.69 0.71
0.30 0.31 0.32 0.33 0.27 0.19 0.15 0.10 0.09 0.09 0.22 0.37 0.33 0.30 0.17 0.05 0.04 0.04 0.07 0.06 0.05 0.04 0.06 0.11 0.11 0.10 0.09 0.16 0.25 0.28 0.31 0.37 0.51 0.71 0.84 0.93 1.02 1.04
0.35 0.30 0.25 0.17 0.12 0.06 0.04 0.05 0.09 0.24 0.38 0.53 0.41 0.16 0.04 0.02 0.03 0.13 0.27 0.29 0.21 0.03 0.05 0.05 0.05 0.06 0.08 0.15 0.24 0.25 0.31 0.41 0.47 0.56 0.64 0.66 0.69 0.77
0.27 0.19 0.10 0.07 0.06 0.03 0.02 0.07 0.20 0.33 0.29 0.16 0.08 0.07 0.08 0.13 0.42 0.49 0.31 0.26 0.16 0.03 0.09 0.12 0.08 0.10 0.13 0.16 0.24 0.29 0.36 0.45 0.52 0.57 0.56 0.58 0.63 0.62
0.07 0.03 0.01 0.02 0.02 0.04 0.09 0.31 0.24 0.09 0.01 0.02 0.05 0.11 0.25 0.29 0.26 0.30 0.21 0.18 0.10 0.05 0.10 0.29 0.10 0.10 0.08 0.16 0.30 0.24 0.30 0.42 0.55 0.62 0.62 0.58 0.56 0.65
0.00 0.00 0.04 0.03 0.02 0.12 0.29 0.27 0.05 0.00 0.00 0.05 0.15 0.13 0.06 0.03 0.04 0.29 0.39 0.39 0.26 0.05 0.06 0.22 0.16 0.13 0.11 0.17 0.33 0.39 0.42 0.45 0.44 0.40 0.39 0.40 0.48 0.53
0.01 0.02 0.02 0.03 0.08 0.35 0.18 0.06 0.09 0.04 0.14 0.10 0.02 0.00 0.01 0.02 0.07 0.17 0.48 0.97 0.49 0.39 0.07 0.48 0.30 0.24 0.58 0.20 0.34 0.44 0.42 0.44 0.40 0.39 0.37 0.38 0.42 0.46
0.09 0.02 0.01 0.09 0.29 0.14 0.05 0.04 0.06 0.07 0.07 0.02 0.00 0.00 0.01 0.01 0.04 0.08 0.23 0.88 1.14 0.71 0.12 1.00 1.01 0.29 0.66 0.36 0.38 0.47 0.44 0.51 0.59 0.70 0.79 0.64 0.58 0.59
0.04 0.02 0.10 0.24 0.06 0.01 0.01 0.03 0.06 0.04 0.01 0.02 0.03 0.02 0.02 0.03 0.03 0.04 0.09 0.21 0.46 0.83 0.34 0.59 1.38 0.55 0.90 0.67 0.47 0.48 0.49 0.64 0.93 1.16 1.26 0.79 0.72 0.68
0.06 0.18 0.17 0.02 0.00 0.00 0.01 0.01 0.02 0.01 0.05 0.14 0.10 0.05 0.04 0.05 0.05 0.07 0.12 0.17 0.22 0.28 0.34 0.43 0.83 0.79 0.98 0.90 0.60 0.43 0.63 0.73 0.85 1.00 1.08 1.14 0.99 0.71
0.18 0.18 0.01 0.00 0.00 0.00 0.00 0.00 0.00 0.02 0.11 0.24 0.20 0.08 0.04 0.06 0.08 0.17 0.37 0.30 0.41 0.30 0.34 0.44 0.58 0.78 0.80 0.53 0.68 0.61 0.57 0.92 0.91 0.93 0.90 1.07 1.09 0.71
0.07 0.00 0.00 0.00 0.00 0.00 0.00 0.00 0.00 0.01 0.08 0.10 0.18 0.17 0.10 0.10 0.12 0.21 0.46 0.62 0.69 0.52 0.46 0.41 0.32 0.32 0.43 0.49 0.59 0.49 0.54 0.71 1.02 1.05 0.87 1.05 0.99 0.83
0.00 0.00 0.01 0.01 0.02 0.01 0.02 0.02 0.01 0.03 0.09 0.19 0.19 0.19 0.29 0.28 0.31 0.30 0.51 0.73 0.71 0.55 0.55 0.46 0.34 0.30 0.30 0.31 0.48 0.73 0.69 0.77 1.00 0.90 0.79 0.84 0.93 1.00
0.01 0.03 0.03 0.02 0.02 0.02 0.04 0.07 0.08 0.05 0.16 0.30 0.34 0.37 0.41 0.34 0.36 0.46 0.55 0.59 0.57 0.49 0.38 0.27 0.34 0.56 0.64 0.32 0.27 0.61 1.17 0.99 0.75 0.66 0.60 0.62 0.82 0.89
0.04 0.05 0.03 0.03 0.03 0.06 0.09 0.14 0.17 0.13 0.19 0.30 0.42 0.43 0.49 0.57 0.50 0.52 0.56 0.61 0.57 0.38 0.15 0.07 0.13 0.48 0.99 0.86 0.67 0.59 0.69 0.93 0.81 0.82 0.75 0.63 0.79 0.65
0.05 0.03 0.02 0.03 0.06 0.10 0.13 0.17 0.20 0.33 0.50 0.57 0.43 0.49 0.49 0.68 0.54 0.47 0.48 0.38 0.29 0.22 0.15 0.05 0.06 0.24 0.42 0.35 0.36 0.31 0.50 0.55 0.61 0.89 0.81 0.60 0.49 0.29
0.03 0.03 0.03 0.04 0.09 0.15 0.19 0.20 0.25 0.26 0.35 0.39 0.47 0.54 0.58 0.65 0.66 0.47 0.30 0.29 0.18 0.19 0.16 0.04 0.01 0.10 0.17 0.34 0.28 0.22 0.21 0.22 0.24 0.21 0.40 0.87 1.08 1.18
0.04 0.04 0.04 0.07 0.12 0.16 0.19 0.21 0.29 0.31 0.40 0.55 0.55 0.57 0.56 0.50 0.31 0.26 0.23 0.23 0.25 0.26 0.15 0.11 0.04 0.04 0.09 0.20 0.23 0.22 0.12 0.09 0.09 0.14 0.36 0.37 0.48 0.73

GFSNE_prec_precacc_069.txt.gz
Total_Precipitation_Accumulation
0.22 0.23 0.22 0.19 0.23 0.25 0.31 0.43 0.64 0.69 0.56 0.50 0.45 0.39 0.36 0.32 0.28 0.28 0.22 0.17 0.12 0.09 0.08 0.05 0.05 0.07 0.09 0.11 0.18 0.28 0.43 0.60 0.73 0.78 0.84 0.90 0.95 1.05
0.28 0.34 0.36 0.34 0.30 0.26 0.23 0.25 0.34 0.47 0.47 0.39 0.42 0.47 0.48 0.43 0.37 0.29 0.18 0.16 0.13 0.09 0.09 0.10 0.13 0.16 0.18 0.20 0.20 0.19 0.24 0.30 0.38 0.51 0.71 0.92 1.06 1.12
0.16 0.22 0.29 0.26 0.29 0.32 0.39 0.52 0.65 0.78 0.86 0.66 0.59 0.51 0.40 0.30 0.18 0.12 0.06 0.04 0.05 0.11 0.15 0.14 0.12 0.14 0.17 0.22 0.27 0.31 0.38 0.45 0.47 0.49 0.59 0.78 0.89 0.95
0.07 0.10 0.14 0.16 0.20 0.25 0.33 0.41 0.49 0.55 0.60 0.53 0.31 0.19 0.12 0.06 0.04 0.04 0.05 0.09 0.08 0.05 0.08 0.09 0.10 0.12 0.14 0.16 0.19 0.25 0.33 0.43 0.51 0.61 0.67 0.67 0.63 0.71
0.12 0.16 0.20 0.23 0.28 0.31 0.31 0.32 0.32 0.28 0.25 0.23 0.10 0.04 0.03 0.03 0.05 0.04 0.04 0.04 0.04 0.07 0.11 0.13 0.13 0.13 0.13 0.15 0.21 0.27 0.35 0.45 0.51 0.55 0.62 0.74 0.83 0.82
0.21 0.27 0.29 0.31 0.31 0.31 0.32 0.30 0.24 0.16 0.10 0.11 0.18 0.14 0.09 0.07 0.07 0.04 0.04 0.04 0.04 0.03 0.06 0.12 0.15 0.16 0.15 0.18 0.21 0.26 0.28 0.34 0.47 0.54 0.60 0.66 0.69 0.71
0.31 0.31 0.32 0.35 0.31 0.26 0.23 0.16 0.11 0.10 0.22 0.37 0.33 0.30 0.17 0.05 0.04 0.04 0.07 0.06 0.05 0.04 0.06 0.11 0.11 0.10 0.09 0.16 0.25 0.28 0.31 0.37 0.51 0.71 0.84 0.93 1.02 1.04
0.36 0.33 0.31 0.28 0.19 0.14 0.13 0.11 0.10 0.24 0.38 0.53 0.41 0.16 0.04 0.02 0.03 0.13 0.27 0.29 0.21 0.03 0.05 0.05 0.05 0.06 0.08 0.15 0.24 0.25 0.31 0.41 0.47 0.56 0.64 0.66 0.69 0.77
0.29 0.22 0.13 0.09 0.08 0.05 0.03 0.08 0.20 0.33 0.29 0.16 0.08 0.07 0.08 0.13 0.42 0.49 0.31 0.26 0.16 0.03 0.09 0.12 0.08 0.10 0.13 0.16 0.24 0.29 0.36 0.45 0.52 0.57 0.56 0.58 0.63 0.62
0.07 0.03 0.01 0.02 0.02 0.04 0.09 0.31 0.24 0.09 0.01 0.02 0.05 0.11 0.25 0.29 0.26 0.30 0.21 0.18 0.10 0.05 0.10 0.29 0.10 0.10 0.08 0.16 0.30 0.24 0.30 0.42 0.55 0.62 0.62 0.58 0.56 0.65
0.00 0.00 0.04 0.03 0.02 0.12 0.29 0.27 0.05 0.00 0.00 0.05 0.15 0.13 0.06 0.03 0.04 0.29 0.39 0.39 0.26 0.05 0.06 0.22 0.16 0.13 0.11 0.17 0.33 0.39 0.42 0.45 0.44 0.40 0.39 0.40 0.48 0.53
0.01 0.02 0.02 0.03 0.08 0.35 0.18 0.06 0.09 0.04 0.14 0.10 0.02 0.00 0.01 0.02 0.07 0.17 0.48 0.97 0.49 0.39 0.07 0.48 0.30 0.24 0.58 0.20 0.34 0.44 0.42 0.44 0.40 0.39 0.37 0.38 0.42 0.46
0.09 0.02 0.01 0.09 0.29 0.14 0.05 0.04 0.06 0.07 0.07 0.02 0.00 0.00 0.01 0.01 0.04 0.08 0.23 0.88 1.14 0.71 0.12 1.00 1.01 0.29 0.67 0.36 0.38 0.47 0.44 0.51 0.59 0.70 0.79 0.64 0.58 0.59
0.04 0.02 0.10 0.24 0.06 0.01 0.01 0.03 0.06 0.04 0.01 0.02 0.03 0.02 0.02 0.03 0.03 0.04 0.09 0.21 0.46 0.83 0.34 0.59 1.39 0.55 0.91 0.68 0.47 0.48 0.49 0.64 0.93 1.16 1.26 0.79 0.72 0.68
0.06 0.18 0.17 0.02 0.00 0.00 0.01 0.01 0.02 0.01 0.05 0.14 0.10 0.05 0.04 0.05 0.05 0.07 0.12 0.17 0.22 0.28 0.34 0.43 0.84 0.79 1.00 0.92 0.60 0.43 0.63 0.73 0.85 1.00 1.08 1.14 0.99 0.71
0.18 0.18 0.01 0.00 0.00 0.00 0.00 0.00 0.00 0.02 0.11 0.24 0.20 0.08 0.04 0.06 0.08 0.17 0.37 0.30 0.42 0.30 0.34 0.44 0.58 0.78 0.81 0.54 0.68 0.62 0.57 0.92 0.91 0.93 0.90 1.07 1.09 0.71
0.07 0.00 0.00 0.00 0.00 0.00 0.00 0.00 0.00 0.01 0.08 0.10 0.18 0.17 0.10 0.10 0.12 0.21 0.46 0.62 0.70 0.53 0.46 0.41 0.32 0.32 0.43 0.49 0.59 0.49 0.54 0.71 1.02 1.05 0.87 1.05 0.99 0.83
0.00 0.00 0.01 0.01 0.02 0.01 0.02 0.02 0.01 0.03 0.09 0.19 0.19 0.20 0.29 0.28 0.31 0.30 0.52 0.73 0.72 0.55 0.55 0.46 0.34 0.30 0.30 0.31 0.48 0.73 0.69 0.77 1.00 0.90 0.79 0.85 0.93 1.00
0.01 0.03 0.03 0.02 0.02 0.02 0.04 0.07 0.08 0.05 0.16 0.30 0.35 0.37 0.41 0.34 0.36 0.46 0.56 0.60 0.57 0.49 0.38 0.27 0.34 0.57 0.65 0.32 0.27 0.61 1.17 0.99 0.75 0.66 0.60 0.62 0.82 0.89
0.04 0.05 0.03 0.03 0.03 0.06 0.09 0.14 0.17 0.13 0.19 0.30 0.43 0.44 0.49 0.58 0.50 0.53 0.57 0.61 0.57 0.38 0.15 0.07 0.13 0.49 1.01 0.87 0.69 0.59 0.69 0.93 0.81 0.82 0.75 0.63 0.79 0.65
0.05 0.03 0.02 0.03 0.06 0.10 0.13 0.17 0.20 0.33 0.50 0.58 0.44 0.49 0.49 0.68 0.54 0.48 0.48 0.38 0.30 0.23 0.16 0.05 0.06 0.24 0.42 0.36 0.38 0.31 0.50 0.55 0.61 0.89 0.81 0.61 0.50 0.30
0.03 0.03 0.03 0.04 0.09 0.15 0.19 0.20 0.25 0.26 0.36 0.39 0.47 0.55 0.58 0.65 0.66 0.47 0.30 0.30 0.18 0.19 0.16 0.04 0.01 0.10 0.17 0.35 0.29 0.22 0.21 0.22 0.24 0.21 0.40 0.87 1.09 1.20
0.04 0.04 0.04 0.07 0.12 0.16 0.19 0.21 0.29 0.31 0.40 0.55 0.56 0.57 0.57 0.51 0.31 0.27 0.23 0.24 0.26 0.26 0.16 0.11 0.04 0.04 0.09 0.21 0.24 0.23 0.12 0.09 0.09 0.14 0.36 0.37 0.48 0.73

GFSNE_prec_precacc_072.txt.gz
Total_Precipitation_Accumulation
0.22 0.23 0.23 0.20 0.24 0.27 0.35 0.50 0.74 0.79 0.60 0.53 0.48 0.44 0.42 0.42 0.41 0.39 0.33 0.37 0.33 0.27 0.21 0.12 0.09 0.09 0.10 0.11 0.18 0.28 0.43 0.60 0.73 0.78 0.84 0.90 0.95 1.05
0.28 0.34 0.36 0.34 0.31 0.27 0.25 0.28 0.39 0.55 0.59 0.46 0.51 0.60 0.65 0.58 0.54 0.44 0.37 0.36 0.27 0.19 0.13 0.12 0.14 0.16 0.18 0.20 0.20 0.19 0.24 0.30 0.38 0.52 0.71 0.92 1.06 1.13
0.16 0.22 0.29 0.27 0.30 0.32 0.40 0.54 0.68 0.80 0.89 0.73 0.67 0.61 0.53 0.45 0.38 0.29 0.23 0.14 0.09 0.13 0.16 0.14 0.12 0.14 0.17 0.22 0.27 0.31 0.38 0.45 0.47 0.49 0.59 0.78 0.89 0.95
0.07 0.10 0.14 0.16 0.21 0.25 0.34 0.42 0.50 0.57 0.63 0.61 0.47 0.40 0.33 0.24 0.16 0.10 0.09 0.11 0.08 0.05 0.09 0.09 0.10 0.12 0.14 0.16 0.19 0.25 0.33 0.43 0.51 0.61 0.67 0.67 0.63 0.71
0.13 0.16 0.21 0.23 0.29 0.31 0.31 0.32 0.32 0.29 0.27 0.31 0.24 0.16 0.11 0.06 0.07 0.05 0.04 0.04 0.04 0.07 0.11 0.13 0.13 0.13 0.13 0.15 0.21 0.27 0.35 0.45 0.51 0.55 0.62 0.74 0.83 0.82
0.21 0.27 0.29 0.31 0.31 0.31 0.32 0.32 0.28 0.20 0.15 0.17 0.21 0.15 0.09 0.07 0.07 0.04 0.04 0.04 0.04 0.03 0.06 0.12 0.15 0.16 0.15 0.18 0.21 0.26 0.28 0.34 0.47 0.54 0.60 0.66 0.69 0.71
0.31 0.31 0.33 0.35 0.32 0.27 0.23 0.18 0.13 0.12 0.23 0.39 0.34 0.30 0.17 0.05 0.04 0.04 0.07 0.06 0.05 0.04 0.06 0.11 0.11 0.10 0.09 0.16 0.25 0.28 0.31 0.37 0.51 0.71 0.84 0.93 1.02 1.04
0.36 0.33 0.31 0.28 0.19 0.14 0.13 0.11 0.11 0.24 0.38 0.53 0.41 0.16 0.04 0.02 0.03 0.13 0.27 0.29 0.21 0.03 0.05 0.05 0.05 0.06 0.08 0.15 0.24 0.25 0.31 0.41 0.47 0.56 0.64 0.66 0.69 0.77
0.29 0.22 0.13 0.09 0.08 0.05 0.03 0.08 0.20 0.33 0.29 0.16 0.08 0.07 0.08 0.13 0.42 0.49 0.31 0.26 0.16 0.03 0.09 0.12 0.08 0.10 0.13 0.16 0.24 0.29 0.36 0.45 0.52 0.57 0.56 0.58 0.63 0.63
0.07 0.03 0.01 0.02 0.02 0.04 0.09 0.31 0.24 0.09 0.01 0.02 0.05 0.11 0.25 0.29 0.26 0.30 0.21 0.18 0.10 0.05 0.10 0.29 0.10 0.10 0.08 0.16 0.30 0.24 0.30 0.42 0.55 0.62 0.62 0.58 0.56 0.66
0.00 0.00 0.04 0.03 0.02 0.12 0.29 0.27 0.05 0.00 0.00 0.05 0.15 0.13 0.06 0.03 0.04 0.29 0.39 0.39 0.26 0.05 0.06 0.22 0.16 0.13 0.11 0.17 0.33 0.39 0.42 0.45 0.44 0.40 0.39 0.40 0.48 0.53
0.01 0.02 0.02 0.03 0.08 0.35 0.18 0.06 0.09 0.04 0.14 0.10 0.02 0.00 0.01 0.02 0.07 0.17 0.48 0.97 0.49 0.39 0.07 0.48 0.30 0.24 0.58 0.20 0.34 0.44 0.42 0.44 0.40 0.39 0.37 0.38 0.42 0.46
0.09 0.02 0.01 0.09 0.29 0.14 0.05 0.04 0.06 0.07 0.07 0.02 0.00 0.00 0.01 0.01 0.04 0.08 0.23 0.88 1.14 0.71 0.12 1.00 1.01 0.29 0.67 0.36 0.38 0.47 0.44 0.51 0.59 0.70 0.79 0.64 0.58 0.59
0.04 0.02 0.10 0.24 0.06 0.01 0.01 0.03 0.06 0.04 0.01 0.02 0.03 0.02 0.02 0.03 0.03 0.04 0.09 0.21 0.46 0.83 0.34 0.60 1.40 0.56 0.92 0.68 0.47 0.48 0.49 0.64 0.93 1.16 1.26 0.79 0.72 0.68
0.06 0.18 0.17 0.02 0.00 0.00 0.01 0.01 0.02 0.01 0.05 0.14 0.10 0.05 0.04 0.05 0.05 0.07 0.12 0.17 0.22 0.28 0.34 0.43 0.84 0.79 1.01 0.93 0.61 0.43 0.63 0.73 0.85 1.00 1.08 1.14 0.99 0.71
0.18 0.18 0.01 0.00 0.00 0.00 0.00 0.00 0.00 0.02 0.11 0.24 0.20 0.08 0.04 0.06 0.08 0.17 0.37 0.30 0.42 0.30 0.34 0.44 0.58 0.78 0.82 0.54 0.68 0.62 0.58 0.92 0.91 0.93 0.90 1.07 1.09 0.71
0.07 0.00 0.00 0.00 0.00 0.00 0.00 0.00 0.00 0.01 0.08 0.10 0.18 0.17 0.10 0.10 0.12 0.21 0.47 0.62 0.70 0.53 0.46 0.41 0.32 0.32 0.44 0.49 0.59 0.49 0.54 0.71 1.02 1.05 0.87 1.05 0.99 0.83
0.00 0.00 0.01 0.01 0.02 0.01 0.02 0.02 0.01 0.03 0.09 0.19 0.19 0.20 0.29 0.28 0.31 0.30 0.52 0.73 0.72 0.55 0.55 0.46 0.34 0.31 0.30 0.31 0.48 0.73 0.69 0.77 1.00 0.90 0.79 0.85 0.94 1.00
0.01 0.03 0.03 0.02 0.02 0.02 0.04 0.07 0.08 0.05 0.16 0.30 0.35 0.38 0.41 0.35 0.37 0.47 0.56 0.60 0.57 0.49 0.38 0.27 0.34 0.58 0.67 0.33 0.27 0.61 1.17 0.99 0.75 0.66 0.60 0.62 0.82 0.89
0.04 0.05 0.03 0.03 0.03 0.06 0.09 0.14 0.17 0.13 0.19 0.30 0.43 0.44 0.49 0.58 0.51 0.53 0.57 0.62 0.58 0.38 0.15 0.07 0.14 0.49 1.02 0.87 0.70 0.59 0.69 0.93 0.81 0.82 0.75 0.63 0.79 0.65
0.05 0.03 0.02 0.03 0.06 0.10 0.13 0.17 0.20 0.33 0.51 0.58 0.44 0.50 0.49 0.69 0.55 0.48 0.49 0.39 0.31 0.24 0.16 0.05 0.06 0.24 0.42 0.37 0.40 0.31 0.50 0.55 0.61 0.89 0.81 0.61 0.50 0.30
0.03 0.03 0.03 0.04 0.09 0.15 0.19 0.20 0.25 0.26 0.36 0.39 0.47 0.55 0.58 0.66 0.67 0.47 0.31 0.31 0.18 0.20 0.16 0.04 0.01 0.10 0.18 0.36 0.29 0.23 0.21 0.22 0.24 0.21 0.40 0.87 1.09 1.21
0.04 0.04 0.04 0.07 0.12 0.16 0.19 0.21 0.29 0.31 0.40 0.55 0.56 0.58 0.57 0.52 0.31 0.27 0.24 0.24 0.26 0.27 0.16 0.11 0.04 0.05 0.10 0.21 0.25 0.23 0.12 0.09 0.09 0.14 0.36 0.37 0.48 0.73

GFSNE_prec_precacc_075.txt.gz
Total_Precipitation_Accumulation
0.22 0.23 0.23 0.20 0.24 0.27 0.36 0.51 0.75 0.81 0.61 0.53 0.48 0.44 0.43 0.45 0.49 0.49 0.43 0.51 0.48 0.42 0.38 0.29 0.23 0.20 0.17 0.17 0.24 0.32 0.43 0.60 0.73 0.78 0.84 0.90 0.95 1.05
0.28 0.34 0.36 0.34 0.31 0.27 0.25 0.28 0.40 0.57 0.60 0.47 0.51 0.61 0.65 0.61 0.61 0.51 0.46 0.51 0.43 0.36 0.31 0.27 0.23 0.21 0.22 0.22 0.20 0.19 0.24 0.30 0.38 0.52 0.71 0.92 1.06 1.13
0.16 0.22 0.29 0.27 0.30 0.32 0.40 0.54 0.68 0.81 0.89 0.73 0.67 0.61 0.53 0.46 0.41 0.34 0.31 0.24 0.22 0.25 0.25 0.21 0.16 0.16 0.18 0.22 0.27 0.31 0.38 0.45 0.47 0.49 0.59 0.78 0.89 0.95
0.07 0.10 0.14 0.16 0.21 0.25 0.34 0.43 0.50 0.57 0.63 0.61 0.47 0.40 0.34 0.28 0.26 0.16 0.14 0.16 0.12 0.10 0.13 0.12 0.11 0.12 0.14 0.16 0.19 0.25 0.33 0.43 0.51 0.61 0.67 0.67 0.63 0.71
0.13 0.16 0.21 0.23 0.29 0.31 0.31 0.32 0.32 0.29 0.27 0.31 0.26 0.20 0.19 0.16 0.11 0.07 0.05 0.06 0.05 0.08 0.11 0.13 0.13 0.13 0.13 0.15 0.21 0.27 0.35 0.45 0.51 0.55 0.62 0.74 0.83 0.82
0.21 0.27 0.29 0.31 0.31 0.31 0.32 0.32 0.28 0.20 0.15 0.17 0.22 0.17 0.11 0.08 0.07 0.04 0.04 0.04 0.04 0.03 0.06 0.12 0.15 0.16 0.15 0.18 0.21 0.26 0.28 0.34 0.47 0.54 0.60 0.66 0.69 0.71
0.31 0.31 0.33 0.35 0.32 0.27 0.23 0.18 0.13 0.12 0.23 0.39 0.34 0.30 0.17 0.05 0.04 0.04 0.07 0.06 0.05 0.04 0.06 0.11 0.11 0.10 0.09 0.16 0.25 0.28 0.31 0.37 0.51 0.71 0.84 0.93 1.02 1.04
0.36 0.33 0.31 0.28 0.19 0.14 0.13 0.11 0.11 0.24 0.38 0.53 0.41 0.16 0.04 0.02 0.03 0.13 0.27 0.29 0.21 0.03 0.05 0.05 0.05 0.06 0.08 0.15 0.24 0.25 0.31 0.41 0.47 0.56 0.64 0.66 0.69 0.77
0.29 0.22 0.13 0.09 0.08 0.05 0.03 0.08 0.20 0.33 0.29 0.16 0.08 0.07 0.08 0.13 0.42 0.49 0.31 0.26 0.16 0.03 0.09 0.12 0.08 0.10 0.13 0.16 0.24 0.29 0.36 0.45 0.52 0.57 0.56 0.58 0.63 0.63
0.07 0.03 0.01 0.02 0.02 0.04 0.09 0.31 0.24 0.09 0.01 0.02 0.05 0.11 0.25 0.29 0.26 0.30 0.21 0.18 0.10 0.05 0.10 0.29 0.10 0.10 0.08 0.16 0.30 0.24 0.30 0.42 0.55 0.62 0.62 0.58 0.56 0.66
0.00 0.00 0.04 0.03 0.02 0.12 0.29 0.27 0.05 0.00 0.00 0.05 0.15 0.13 0.06 0.03 0.04 0.29 0.39 0.39 0.26 0.05 0.06 0.22 0.16 0.13 0.11 0.17 0.33 0.39 0.42 0.45 0.44 0.40 0.39 0.40 0.48 0.53
0.01 0.02 0.02 0.03 0.08 0.35 0.18 0.06 0.09 0.04 0.14 0.10 0.02 0.00 0.01 0.02 0.07 0.17 0.48 0.97 0.49 0.39 0.07 0.48 0.30 0.24 0.58 0.20 0.34 0.44 0.42 0.44 0.40 0.39 0.37 0.38 0.42 0.46
0.09 0.02 0.01 0.09 0.29 0.14 0.05 0.04 0.06 0.07 0.07 0.02 0.00 0.00 0.01 0.01 0.04 0.08 0.23 0.88 1.14 0.71 0.12 1.00 1.01 0.29 0.67 0.36 0.38 0.47 0.44 0.51 0.59 0.70 0.79 0.64 0.58 0.59
0.04 0.02 0.10 0.24 0.06 0.01 0.01 0.03 0.06 0.04 0.01 0.02 0.03 0.02 0.02 0.03 0.03 0.04 0.09 0.21 0.46 0.83 0.34 0.60 1.40 0.56 0.92 0.69 0.47 0.48 0.49 0.64 0.93 1.16 1.26 0.79 0.72 0.68
0.06 0.18 0.17 0.02 0.00 0.00 0.01 0.01 0.02 0.01 0.05 0.14 0.10 0.05 0.04 0.05 0.05 0.07 0.12 0.17 0.22 0.28 0.34 0.43 0.85 0.80 1.02 0.94 0.61 0.43 0.63 0.73 0.85 1.00 1.08 1.14 0.99 0.71
0.18 0.18 0.01 0.00 0.00 0.00 0.00 0.00 0.00 0.02 0.11 0.24 0.20 0.08 0.04 0.06 0.08 0.17 0.37 0.30 0.42 0.30 0.34 0.44 0.58 0.79 0.83 0.55 0.69 0.62 0.58 0.92 0.91 0.93 0.90 1.07 1.09 0.71
0.07 0.00 0.00 0.00 0.00 0.00 0.00 0.00 0.00 0.01 0.08 0.10 0.18 0.17 0.10 0.10 0.12 0.21 0.47 0.62 0.70 0.53 0.46 0.41 0.32 0.32 0.44 0.50 0.60 0.49 0.54 0.71 1.02 1.05 0.87 1.05 0.99 0.83
0.00 0.00 0.01 0.01 0.02 0.01 0.02 0.02 0.01 0.03 0.09 0.19 0.19 0.20 0.29 0.28 0.31 0.30 0.52 0.74 0.72 0.55 0.55 0.46 0.34 0.31 0.30 0.31 0.48 0.73 0.69 0.77 1.00 0.90 0.79 0.85 0.94 1.00
0.01 0.03 0.03 0.02 0.02 0.02 0.04 0.07 0.08 0.05 0.16 0.30 0.35 0.38 0.42 0.35 0.37 0.47 0.56 0.60 0.57 0.49 0.38 0.27 0.34 0.59 0.68 0.33 0.27 0.61 1.17 0.99 0.75 0.66 0.60 0.62 0.82 0.89
0.04 0.05 0.03 0.03 0.03 0.06 0.09 0.14 0.17 0.13 0.19 0.30 0.43 0.44 0.50 0.58 0.51 0.53 0.57 0.62 0.58 0.38 0.15 0.07 0.14 0.49 1.03 0.88 0.71 0.59 0.69 0.93 0.81 0.82 0.75 0.63 0.79 0.65
0.05 0.03 0.02 0.03 0.06 0.10 0.13 0.17 0.20 0.33 0.51 0.58 0.44 0.50 0.50 0.70 0.55 0.48 0.49 0.39 0.31 0.24 0.16 0.05 0.06 0.24 0.42 0.39 0.41 0.31 0.50 0.55 0.61 0.89 0.81 0.61 0.51 0.30
0.03 0.03 0.03 0.04 0.09 0.15 0.19 0.20 0.25 0.26 0.36 0.39 0.47 0.55 0.58 0.66 0.67 0.48 0.31 0.31 0.18 0.20 0.16 0.04 0.01 0.10 0.18 0.38 0.30 0.23 0.21 0.22 0.24 0.21 0.40 0.87 1.09 1.22
0.04 0.04 0.04 0.07 0.12 0.16 0.19 0.21 0.29 0.31 0.40 0.55 0.56 0.58 0.57 0.52 0.31 0.28 0.24 0.24 0.27 0.27 0.16 0.12 0.04 0.05 0.10 0.22 0.25 0.23 0.12 0.09 0.09 0.14 0.36 0.37 0.48 0.73

GFSNE_prec_precacc_078.txt.gz
Total_Precipitation_Accumulation
0.22 0.23 0.23 0.20 0.24 0.28 0.36 0.51 0.76 0.81 0.61 0.53 0.48 0.44 0.43 0.45 0.49 0.49 0.43 0.54 0.57 0.51 0.48 0.41 0.36 0.32 0.30 0.29 0.31 0.39 0.51 0.66 0.78 0.80 0.85 0.90 0.95 1.05
0.28 0.34 0.36 0.34 0.31 0.27 0.26 0.28 0.40 0.57 0.60 0.47 0.51 0.61 0.65 0.61 0.61 0.51 0.47 0.55 0.51 0.44 0.38 0.37 0.38 0.37 0.34 0.29 0.25 0.22 0.25 0.31 0.39 0.52 0.71 0.92 1.06 1.13
0.16 0.22 0.29 0.27 0.30 0.32 0.40 0.54 0.68 0.81 0.89 0.73 0.67 0.61 0.53 0.46 0.41 0.35 0.33 0.27 0.27 0.30 0.29 0.25 0.21 0.23 0.24 0.25 0.28 0.32 0.38 0.45 0.47 0.49 0.59 0.78 0.89 0.95
0.07 0.10 0.14 0.16 0.21 0.25 0.34 0.43 0.50 0.57 0.63 0.61 0.47 0.40 0.34 0.28 0.28 0.21 0.16 0.17 0.14 0.13 0.14 0.14 0.14 0.14 0.15 0.16 0.19 0.25 0.33 0.43 0.51 0.61 0.67 0.67 0.63 0.71
0.13 0.16 0.21 0.23 0.29 0.31 0.31 0.32 0.32 0.29 0.27 0.31 0.26 0.20 0.19 0.16 0.13 0.07 0.05 0.06 0.05 0.09 0.12 0.14 0.14 0.13 0.13 0.15 0.21 0.27 0.35 0.45 0.51 0.55 0.62 0.74 0.83 0.82
0.21 0.27 0.29 0.31 0.31 0.31 0.32 0.32 0.28 0.20 0.15 0.17 0.22 0.17 0.11 0.08 0.07 0.04 0.04 0.04 0.04 0.03 0.06 0.12 0.15 0.16 0.15 0.18 0.21 0.26 0.28 0.34 0.47 0.54 0.60 0.66 0.69 0.71
0.31 0.31 0.33 0.35 0.32 0.27 0.23 0.18 0.13 0.12 0.23 0.39 0.34 0.30 0.17 0.05 0.04 0.04 0.07 0.06 0.05 0.04 0.06 0.11 0.11 0.10 0.09 0.16 0.25 0.28 0.31 0.37 0.51 0.71 0.84 0.93 1.02 1.04
0.36 0.33 0.31 0.28 0.19 0.15 0.13 0.11 0.11 0.24 0.38 0.53 0.41 0.16 0.04 0.02 0.03 0.13 0.27 0.29 0.21 0.03 0.05 0.05 0.05 0.06 0.08 0.15 0.24 0.25 0.31 0.41 0.47 0.56 0.64 0.66 0.69 0.77
0.29 0.22 0.13 0.09 0.08 0.05 0.03 0.08 0.20 0.33 0.29 0.16 0.08 0.07 0.08 0.13 0.42 0.49 0.31 0.26 0.16 0.03 0.09 0.12 0.08 0.10 0.13 0.16 0.24 0.29 0.36 0.45 0.52 0.57 0.56 0.58 0.63 0.63
0.07 0.03 0.01 0.02 0.02 0.04 0.09 0.31 0.24 0.09 0.01 0.02 0.05 0.11 0.25 0.29 0.26 0.30 0.21 0.18 0.10 0.05 0.10 0.29 0.10 0.10 0.08 0.16 0.30 0.24 0.30 0.42 0.55 0.62 0.62 0.58 0.56 0.66
0.00 0.00 0.04 0.03 0.02 0.12 0.29 0.27 0.05 0.00 0.00 0.05 0.15 0.13 0.06 0.03 0.04 0.29 0.39 0.39 0.26 0.05 0.06 0.22 0.16 0.13 0.11 0.17 0.33 0.39 0.42 0.45 0.44 0.40 0.39 0.40 0.48 0.53
0.01 0.02 0.02 0.03 0.08 0.35 0.18 0.06 0.09 0.04 0.14 0.10 0.02 0.00 0.01 0.02 0.07 0.17 0.48 0.97 0.49 0.39 0.07 0.48 0.30 0.24 0.58 0.20 0.34 0.44 0.42 0.44 0.40 0.39 0.37 0.38 0.42 0.46
0.09 0.02 0.01 0.09 0.29 0.14 0.05 0.04 0.06 0.07 0.07 0.02 0.00 0.00 0.01 0.01 0.04 0.08 0.23 0.88 1.14 0.71 0.12 1.01 1.02 0.29 0.67 0.36 0.38 0.47 0.44 0.51 0.59 0.70 0.79 0.64 0.58 0.59
0.04 0.02 0.10 0.24 0.06 0.01 0.01 0.03 0.06 0.04 0.01 0.02 0.03 0.02 0.02 0.03 0.03 0.04 0.09 0.21 0.46 0.83 0.34 0.60 1.41 0.56 0.92 0.69 0.47 0.48 0.49 0.64 0.93 1.16 1.26 0.79 0.72 0.68
0.06 0.18 0.17 0.02 0.00 0.00 0.01 0.01 0.02 0.01 0.05 0.14 0.10 0.05 0.04 0.05 0.05 0.07 0.12 0.17 0.22 0.28 0.34 0.43 0.85 0.81 1.03 0.94 0.61 0.44 0.63 0.73 0.85 1.00 1.08 1.14 0.99 0.71
0.18 0.18 0.01 0.00 0.00 0.00 0.00 0.00 0.00 0.02 0.11 0.24 0.20 0.08 0.04 0.06 0.08 0.17 0.37 0.30 0.42 0.30 0.34 0.44 0.58 0.80 0.84 0.55 0.69 0.62 0.58 0.92 0.91 0.93 0.90 1.07 1.09 0.71
0.07 0.00 0.00 0.00 0.00 0.00 0.00 0.00 0.00 0.01 0.08 0.10 0.18 0.17 0.10 0.10 0.12 0.21 0.47 0.62 0.71 0.53 0.46 0.41 0.32 0.32 0.44 0.50 0.61 0.49 0.54 0.71 1.02 1.05 0.87 1.05 0.99 0.83
0.00 0.00 0.01 0.01 0.02 0.01 0.02 0.02 0.01 0.03 0.09 0.19 0.19 0.20 0.30 0.29 0.31 0.31 0.52 0.74 0.73 0.55 0.55 0.46 0.34 0.31 0.30 0.31 0.48 0.73 0.69 0.77 1.00 0.90 0.79 0.85 0.94 1.00
0.01 0.03 0.03 0.02 0.02 0.02 0.04 0.07 0.08 0.05 0.16 0.30 0.35 0.38 0.42 0.35 0.37 0.47 0.56 0.60 0.58 0.49 0.38 0.27 0.34 0.59 0.69 0.33 0.27 0.61 1.17 0.99 0.75 0.66 0.60 0.62 0.82 0.89
0.04 0.05 0.03 0.03 0.03 0.06 0.09 0.14 0.17 0.13 0.19 0.30 0.43 0.44 0.50 0.59 0.52 0.53 0.57 0.62 0.58 0.38 0.15 0.07 0.14 0.50 1.04 0.88 0.71 0.60 0.69 0.93 0.81 0.82 0.75 0.63 0.79 0.65
0.05 0.03 0.02 0.03 0.06 0.10 0.13 0.17 0.20 0.33 0.51 0.58 0.44 0.50 0.50 0.70 0.56 0.48 0.49 0.39 0.31 0.25 0.17 0.05 0.06 0.24 0.43 0.41 0.43 0.31 0.50 0.55 0.61 0.89 0.81 0.62 0.51 0.30
0.03 0.03 0.03 0.04 0.09 0.15 0.19 0.20 0.25 0.26 0.36 0.39 0.47 0.55 0.58 0.66 0.68 0.48 0.31 0.31 0.18 0.20 0.16 0.04 0.01 0.10 0.19 0.39 0.31 0.23 0.21 0.22 0.24 0.21 0.40 0.87 1.09 1.22
0.04 0.04 0.04 0.07 0.12 0.16 0.19 0.21 0.29 0.31 0.40 0.55 0.56 0.58 0.57 0.52 0.31 0.28 0.24 0.25 0.27 0.28 0.16 0.12 0.04 0.05 0.10 0.22 0.26 0.24 0.12 0.09 0.09 0.14 0.36 0.37 0.48 0.73

GFSNE_prec_precacc_081.txt.gz
Total_Precipitation_Accumulation
0.22 0.23 0.23 0.20 0.24 0.28 0.36 0.51 0.76 0.81 0.61 0.53 0.48 0.44 0.43 0.45 0.49 0.49 0.43 0.54 0.58 0.54 0.54 0.48 0.42 0.38 0.35 0.35 0.41 0.48 0.58 0.70 0.83 0.85 0.92 0.97 1.01 1.09
0.28 0.34 0.36 0.34 0.31 0.27 0.26 0.28 0.40 0.57 0.60 0.47 0.51 0.61 0.65 0.61 0.61 0.51 0.47 0.55 0.53 0.47 0.42 0.41 0.42 0.40 0.38 0.35 0.30 0.26 0.29 0.34 0.41 0.54 0.75 0.95 1.09 1.15
0.16 0.22 0.29 0.27 0.30 0.32 0.40 0.54 0.68 0.81 0.89 0.73 0.67 0.61 0.53 0.46 0.41 0.35 0.33 0.27 0.28 0.32 0.31 0.27 0.22 0.24 0.27 0.28 0.30 0.34 0.40 0.46 0.48 0.50 0.59 0.78 0.89 0.95
0.07 0.10 0.14 0.16 0.21 0.25 0.34 0.43 0.50 0.57 0.63 0.61 0.47 0.40 0.34 0.28 0.28 0.21 0.16 0.17 0.14 0.14 0.15 0.14 0.14 0.14 0.15 0.16 0.19 0.25 0.33 0.43 0.51 0.61 0.67 0.67 0.63 0.71
0.13 0.16 0.21 0.23 0.29 0.31 0.31 0.32 0.32 0.29 0.27 0.31 0.26 0.20 0.19 0.16 0.13 0.07 0.05 0.06 0.05 0.09 0.12 0.14 0.14 0.13 0.13 0.15 0.21 0.27 0.35 0.45 0.51 0.55 0.62 0.74 0.83 0.82
0.21 0.27 0.29 0.31 0.31 0.31 0.32 0.32 0.28 0.20 0.15 0.17 0.22 0.17 0.11 0.08 0.07 0.04 0.04 0.04 0.04 0.03 0.06 0.12 0.15 0.16 0.15 0.18 0.21 0.26 0.28 0.34 0.47 0.54 0.60 0.66 0.69 0.71
0.31 0.31 0.33 0.35 0.32 0.27 0.23 0.18 0.13 0.12 0.23 0.39 0.34 0.30 0.17 0.05 0.04 0.04 0.07 0.06 0.05 0.04 0.06 0.11 0.11 0.10 0.09 0.16 0.25 0.28 0.31 0.37 0.51 0.71 0.84 0.93 1.02 1.04
0.36 0.33 0.31 0.28 0.19 0.15 0.13 0.11 0.11 0.24 0.38 0.53 0.41 0.16 0.04 0.02 0.03 0.13 0.27 0.29 0.21 0.03 0.05 0.05 0.05 0.06 0.08 0.15 0.24 0.25 0.31 0.41 0.47 0.56 0.64 0.66 0.69 0.77
0.29 0.22 0.13 0.09 0.08 0.05 0.03 0.08 0.20 0.33 0.29 0.16 0.08 0.07 0.08 0.13 0.42 0.49 0.31 0.26 0.16 0.03 0.09 0.12 0.08 0.10 0.13 0.16 0.24 0.29 0.36 0.45 0.52 0.57 0.56 0.58 0.63 0.63
0.07 0.03 0.01 0.02 0.02 0.04 0.09 0.31 0.24 0.09 0.01 0.02 0.05 0.11 0.25 0.29 0.26 0.30 0.21 0.18 0.10 0.05 0.10 0.29 0.10 0.10 0.08 0.16 0.30 0.24 0.30 0.42 0.55 0.62 0.62 0.58 0.56 0.66
0.00 0.00 0.04 0.03 0.02 0.12 0.29 0.27 0.05 0.00 0.00 0.05 0.15 0.13 0.06 0.03 0.04 0.29 0.39 0.39 0.26 0.05 0.06 0.22 0.16 0.13 0.11 0.17 0.33 0.39 0.42 0.45 0.44 0.40 0.39 0.40 0.48 0.53
0.01 0.02 0.02 0.03 0.08 0.35 0.18 0.06 0.09 0.04 0.14 0.10 0.02 0.00 0.01 0.02 0.07 0.17 0.48 0.97 0.49 0.39 0.07 0.48 0.30 0.24 0.58 0.20 0.34 0.44 0.42 0.44 0.40 0.39 0.37 0.38 0.42 0.46
0.09 0.02 0.01 0.09 0.29 0.14 0.05 0.04 0.06 0.07 0.07 0.02 0.00 0.00 0.01 0.01 0.04 0.08 0.23 0.88 1.14 0.71 0.12 1.01 1.02 0.29 0.67 0.36 0.38 0.47 0.44 0.51 0.59 0.70 0.79 0.64 0.58 0.59
0.04 0.02 0.10 0.24 0.06 0.01 0.01 0.03 0.06 0.04 0.01 0.02 0.03 0.02 0.02 0.03 0.03 0.04 0.09 0.21 0.46 0.83 0.34 0.60 1.41 0.56 0.93 0.69 0.47 0.48 0.49 0.64 0.93 1.16 1.26 0.79 0.72 0.68
0.06 0.18 0.17 0.02 0.00 0.00 0.01 0.01 0.02 0.01 0.05 0.14 0.10 0.05 0.04 0.05 0.05 0.07 0.12 0.17 0.22 0.28 0.34 0.43 0.85 0.81 1.04 0.95 0.62 0.44 0.63 0.73 0.85 1.00 1.08 1.14 0.99 0.71
0.18 0.18 0.01 0.00 0.00 0.00 0.00 0.00 0.00 0.02 0.11 0.24 0.20 0.08 0.04 0.06 0.08 0.17 0.37 0.30 0.42 0.30 0.34 0.44 0.58 0.80 0.85 0.56 0.69 0.62 0.58 0.92 0.91 0.93 0.90 1.07 1.09 0.71
0.07 0.00 0.00 0.00 0.00 0.00 0.00 0.00 0.00 0.01 0.08 0.10 0.18 0.17 0.10 0.10 0.12 0.21 0.47 0.62 0.71 0.53 0.46 0.41 0.32 0.32 0.44 0.50 0.61 0.49 0.54 0.71 1.02 1.05 0.87 1.05 0.99 0.83
0.00 0.00 0.01 0.01 0.02 0.01 0.02 0.02 0.01 0.03 0.09 0.19 0.19 0.20 0.30 0.29 0.31 0.31 0.52 0.74 0.73 0.55 0.55 0.46 0.34 0.31 0.30 0.31 0.48 0.73 0.69 0.77 1.00 0.90 0.79 0.85 0.94 1.00
0.01 0.03 0.03 0.02 0.02 0.02 0.04 0.07 0.08 0.05 0.16 0.30 0.35 0.38 0.42 0.35 0.37 0.47 0.56 0.60 0.58 0.49 0.38 0.27 0.34 0.59 0.69 0.33 0.27 0.61 1.17 0.99 0.75 0.66 0.60 0.62 0.82 0.89
0.04 0.05 0.03 0.03 0.03 0.06 0.09 0.14 0.17 0.13 0.19 0.30 0.43 0.44 0.50 0.59 0.52 0.54 0.57 0.62 0.58 0.38 0.15 0.07 0.14 0.50 1.05 0.88 0.72 0.60 0.69 0.93 0.81 0.82 0.75 0.63 0.79 0.65
0.05 0.03 0.02 0.03 0.06 0.10 0.13 0.17 0.20 0.33 0.51 0.58 0.44 0.50 0.50 0.70 0.56 0.48 0.49 0.39 0.31 0.25 0.17 0.05 0.06 0.24 0.44 0.43 0.44 0.31 0.50 0.55 0.61 0.89 0.81 0.62 0.51 0.30
0.03 0.03 0.03 0.04 0.09 0.15 0.19 0.20 0.25 0.26 0.36 0.39 0.47 0.55 0.58 0.66 0.68 0.48 0.31 0.31 0.18 0.20 0.16 0.04 0.01 0.10 0.19 0.41 0.31 0.23 0.21 0.22 0.24 0.21 0.40 0.88 1.10 1.23
0.04 0.04 0.04 0.07 0.12 0.16 0.19 0.21 0.29 0.31 0.40 0.55 0.56 0.58 0.57 0.52 0.31 0.28 0.24 0.25 0.27 0.28 0.16 0.12 0.04 0.05 0.11 0.22 0.26 0.24 0.12 0.09 0.09 0.14 0.36 0.37 0.48 0.73

GFSNE_prec_precacc_084.txt.gz
Total_Precipitation_Accumulation
0.22 0.23 0.23 0.20 0.24 0.28 0.36 0.51 0.76 0.81 0.61 0.53 0.48 0.44 0.43 0.45 0.49 0.49 0.43 0.55 0.59 0.55 0.54 0.48 0.45 0.41 0.37 0.38 0.46 0.56 0.67 0.76 0.88 0.89 0.94 1.00 1.03 1.11
0.28 0.34 0.36 0.34 0.31 0.27 0.26 0.28 0.40 0.57 0.60 0.47 0.51 0.61 0.65 0.61 0.61 0.51 0.47 0.56 0.54 0.49 0.43 0.41 0.42 0.41 0.39 0.36 0.31 0.28 0.31 0.37 0.44 0.56 0.76 0.98 1.12 1.18
0.16 0.22 0.29 0.27 0.30 0.32 0.40 0.54 0.68 0.81 0.89 0.73 0.67 0.61 0.53 0.46 0.41 0.35 0.33 0.27 0.28 0.32 0.31 0.27 0.22 0.24 0.27 0.28 0.30 0.34 0.40 0.47 0.49 0.51 0.60 0.78 0.90 0.96
0.07 0.10 0.14 0.16 0.21 0.25 0.34 0.43 0.50 0.57 0.63 0.61 0.47 0.40 0.34 0.28 0.28 0.21 0.16 0.17 0.14 0.14 0.15 0.14 0.14 0.14 0.15 0.16 0.19 0.25 0.33 0.43 0.51 0.61 0.67 0.67 0.63 0.71
0.13 0.16 0.21 0.23 0.29 0.31 0.31 0.32 0.32 0.29 0.27 0.31 0.26 0.20 0.19 0.16 0.13 0.07 0.05 0.06 0.05 0.09 0.12 0.14 0.14 0.13 0.13 0.15 0.21 0.27 0.35 0.45 0.51 0.55 0.62 0.74 0.83 0.82
0.21 0.27 0.29 0.31 0.31 0.31 0.32 0.32 0.28 0.20 0.15 0.17 0.22 0.17 0.11 0.08 0.07 0.04 0.04 0.04 0.04 0.03 0.06 0.12 0.15 0.16 0.15 0.18 0.21 0.26 0.28 0.34 0.47 0.54 0.60 0.66 0.69 0.71
0.31 0.31 0.33 0.35 0.32 0.27 0.23 0.18 0.13 0.12 0.23 0.39 0.34 0.30 0.17 0.05 0.04 0.04 0.07 0.06 0.05 0.04 0.06 0.11 0.11 0.10 0.09 0.16 0.25 0.28 0.31 0.37 0.51 0.71 0.84 0.93 1.02 1.04
0.36 0.33 0.31 0.28 0.19 0.15 0.13 0.11 0.11 0.24 0.38 0.53 0.41 0.16 0.04 0.02 0.03 0.13 0.27 0.29 0.21 0.03 0.05 0.05 0.05 0.06 0.08 0.15 0.24 0.25 0.31 0.41 0.47 0.56 0.64 0.66 0.69 0.77
0.29 0.22 0.13 0.09 0.08 0.05 0.03 0.08 0.20 0.33 0.29 0.16 0.08 0.07 0.08 0.13 0.42 0.49 0.31 0.26 0.16 0.03 0.09 0.12 0.08 0.10 0.13 0.16 0.24 0.29 0.36 0.45 0.52 0.57 0.56 0.58 0.63 0.63
0.07 0.03 0.01 0.02 0.02 0.04 0.09 0.31 0.24 0.09 0.01 0.02 0.05 0.11 0.25 0.29 0.26 0.30 0.21 0.18 0.10 0.05 0.10 0.29 0.10 0.10 0.08 0.16 0.30 0.24 0.30 0.42 0.55 0.62 0.62 0.58 0.56 0.66
0.00 0.00 0.04 0.03 0.02 0.12 0.29 0.27 0.05 0.00 0.00 0.05 0.15 0.13 0.06 0.03 0.04 0.29 0.39 0.39 0.26 0.05 0.06 0.22 0.16 0.13 0.11 0.17 0.33 0.39 0.42 0.45 0.44 0.40 0.39 0.40 0.48 0.53
0.01 0.02 0.02 0.03 0.08 0.35 0.18 0.06 0.09 0.04 0.14 0.10 0.02 0.00 0.01 0.02 0.07 0.17 0.48 0.97 0.49 0.39 0.07 0.48 0.30 0.24 0.58 0.20 0.34 0.44 0.42 0.44 0.40 0.39 0.37 0.38 0.42 0.46
0.09 0.02 0.01 0.09 0.29 0.14 0.05 0.04 0.06 0.07 0.07 0.02 0.00 0.00 0.01 0.01 0.04 0.08 0.23 0.88 1.14 0.71 0.12 1.01 1.02 0.29 0.67 0.36 0.38 0.47 0.44 0.51 0.59 0.70 0.79 0.64 0.58 0.59
0.04 0.02 0.10 0.24 0.06 0.01 0.01 0.03 0.06 0.04 0.01 0.02 0.03 0.02 0.02 0.03 0.03 0.04 0.09 0.21 0.46 0.83 0.34 0.60 1.42 0.57 0.93 0.69 0.48 0.48 0.49 0.64 0.93 1.16 1.26 0.79 0.72 0.68
0.06 0.18 0.17 0.02 0.00 0.00 0.01 0.01 0.02 0.01 0.05 0.14 0.10 0.05 0.04 0.05 0.05 0.07 0.12 0.17 0.22 0.28 0.35 0.43 0.86 0.81 1.04 0.95 0.62 0.44 0.63 0.73 0.85 1.00 1.08 1.14 0.99 0.71
0.18 0.18 0.01 0.00 0.00 0.00 0.00 0.00 0.00 0.02 0.11 0.24 0.20 0.08 0.04 0.06 0.08 0.17 0.37 0.30 0.42 0.30 0.34 0.44 0.58 0.80 0.85 0.56 0.70 0.62 0.58 0.92 0.91 0.93 0.90 1.07 1.09 0.71
0.07 0.00 0.00 0.00 0.00 0.00 0.00 0.00 0.00 0.01 0.08 0.10 0.18 0.17 0.10 0.10 0.12 0.21 0.47 0.63 0.71 0.53 0.46 0.41 0.32 0.32 0.44 0.50 0.61 0.49 0.54 0.71 1.02 1.05 0.87 1.05 0.99 0.83
0.00 0.00 0.01 0.01 0.02 0.01 0.02 0.02 0.01 0.03 0.09 0.19 0.19 0.20 0.30 0.29 0.32 0.31 0.52 0.75 0.73 0.56 0.55 0.46 0.34 0.31 0.30 0.31 0.48 0.73 0.69 0.77 1.00 0.90 0.80 0.86 0.94 1.00
0.01 0.03 0.03 0.02 0.02 0.02 0.04 0.07 0.08 0.05 0.16 0.30 0.35 0.38 0.42 0.35 0.37 0.47 0.56 0.60 0.58 0.49 0.39 0.27 0.34 0.60 0.69 0.33 0.27 0.61 1.17 0.99 0.75 0.66 0.60 0.62 0.82 0.89
0.04 0.05 0.03 0.03 0.03 0.06 0.09 0.14 0.17 0.13 0.19 0.30 0.43 0.44 0.50 0.59 0.52 0.54 0.57 0.62 0.58 0.39 0.16 0.07 0.14 0.50 1.05 0.89 0.72 0.60 0.69 0.93 0.81 0.82 0.75 0.63 0.79 0.65
0.05 0.03 0.02 0.03 0.06 0.10 0.13 0.17 0.20 0.33 0.51 0.58 0.44 0.50 0.50 0.70 0.56 0.48 0.49 0.39 0.32 0.25 0.17 0.05 0.06 0.24 0.44 0.44 0.44 0.31 0.50 0.55 0.61 0.89 0.81 0.62 0.51 0.30
0.03 0.03 0.03 0.04 0.09 0.15 0.19 0.20 0.25 0.26 0.36 0.39 0.47 0.55 0.58 0.66 0.68 0.48 0.31 0.31 0.19 0.20 0.16 0.04 0.01 0.10 0.20 0.41 0.31 0.23 0.21 0.22 0.24 0.21 0.40 0.88 1.10 1.23
0.04 0.04 0.04 0.07 0.12 0.16 0.19 0.21 0.29 0.31 0.40 0.55 0.56 0.58 0.57 0.52 0.31 0.28 0.24 0.25 0.27 0.28 0.16 0.12 0.04 0.05 0.11 0.23 0.27 0.24 0.12 0.09 0.09 0.14 0.36 0.37 0.48 0.73

GFSNE_prec_precacc_087.txt.gz
Total_Precipitation_Accumulation
0.22 0.23 0.23 0.20 0.24 0.28 0.36 0.51 0.77 0.82 0.61 0.53 0.48 0.44 0.43 0.45 0.49 0.49 0.43 0.55 0.60 0.57 0.55 0.48 0.45 0.43 0.41 0.43 0.49 0.58 0.69 0.79 0.93 0.94 0.98 1.01 1.04 1.11
0.28 0.34 0.36 0.34 0.31 0.27 0.26 0.28 0.40 0.58 0.61 0.47 0.51 0.61 0.65 0.61 0.61 0.51 0.48 0.56 0.54 0.50 0.44 0.41 0.42 0.41 0.40 0.38 0.33 0.29 0.31 0.37 0.45 0.57 0.77 0.98 1.12 1.18
0.16 0.22 0.29 0.27 0.30 0.32 0.40 0.54 0.68 0.81 0.89 0.73 0.67 0.61 0.53 0.46 0.41 0.35 0.33 0.27 0.28 0.32 0.31 0.27 0.22 0.24 0.27 0.28 0.30 0.34 0.40 0.47 0.49 0.51 0.60 0.79 0.90 0.96
0.07 0.10 0.14 0.16 0.21 0.25 0.34 0.43 0.50 0.57 0.63 0.61 0.47 0.40 0.34 0.28 0.28 0.21 0.16 0.17 0.14 0.14 0.15 0.14 0.14 0.14 0.15 0.16 0.19 0.25 0.33 0.43 0.51 0.61 0.67 0.67 0.63 0.71
0.13 0.16 0.21 0.23 0.29 0.31 0.31 0.32 0.32 0.29 0.27 0.31 0.26 0.20 0.19 0.16 0.13 0.07 0.05 0.06 0.05 0.09 0.12 0.14 0.14 0.13 0.13 0.15 0.21 0.27 0.35 0.45 0.51 0.55 0.62 0.74 0.83 0.82
0.21 0.27 0.29 0.31 0.31 0.31 0.32 0.32 0.28 0.20 0.15 0.17 0.22 0.17 0.11 0.08 0.07 0.04 0.04 0.04 0.04 0.03 0.06 0.12 0.15 0.16 0.15 0.18 0.21 0.26 0.28 0.34 0.47 0.54 0.60 0.66 0.69 0.71
0.31 0.31 0.33 0.35 0.32 0.27 0.23 0.18 0.13 0.12 0.23 0.39 0.34 0.30 0.17 0.05 0.04 0.04 0.07 0.06 0.05 0.04 0.06 0.11 0.11 0.10 0.09 0.16 0.25 0.28 0.31 0.37 0.51 0.71 0.84 0.93 1.02 1.04
0.36 0.33 0.31 0.28 0.19 0.15 0.13 0.11 0.11 0.24 0.38 0.53 0.41 0.16 0.04 0.02 0.03 0.13 0.27 0.29 0.21 0.03 0.05 0.05 0.05 0.06 0.08 0.15 0.24 0.25 0.31 0.41 0.47 0.56 0.64 0.66 0.69 0.77
0.29 0.22 0.13 0.09 0.08 0.05 0.03 0.08 0.20 0.33 0.29 0.16 0.08 0.07 0.08 0.13 0.42 0.49 0.31 0.26 0.16 0.03 0.09 0.12 0.08 0.10 0.13 0.16 0.24 0.29 0.36 0.45 0.52 0.57 0.56 0.58 0.63 0.63
0.07 0.03 0.01 0.02 0.02 0.04 0.09 0.31 0.24 0.09 0.01 0.02 0.05 0.11 0.25 0.29 0.26 0.30 0.21 0.18 0.10 0.05 0.10 0.29 0.10 0.10 0.08 0.16 0.30 0.24 0.30 0.42 0.55 0.62 0.62 0.58 0.56 0.66
0.00 0.00 0.04 0.03 0.02 0.12 0.29 0.27 0.05 0.00 0.00 0.05 0.15 0.13 0.06 0.03 0.04 0.29 0.39 0.39 0.26 0.05 0.06 0.22 0.16 0.13 0.11 0.17 0.33 0.39 0.42 0.45 0.44 0.40 0.39 0.40 0.48 0.53
0.01 0.02 0.02 0.03 0.08 0.35 0.18 0.06 0.09 0.04 0.14 0.10 0.02 0.00 0.01 0.02 0.07 0.17 0.48 0.97 0.49 0.39 0.07 0.48 0.30 0.24 0.58 0.20 0.34 0.44 0.42 0.44 0.40 0.39 0.37 0.38 0.42 0.46
0.09 0.02 0.01 0.09 0.29 0.14 0.05 0.04 0.06 0.07 0.07 0.02 0.00 0.00 0.01 0.01 0.04 0.08 0.23 0.88 1.14 0.71 0.12 1.01 1.02 0.29 0.67 0.36 0.38 0.47 0.44 0.51 0.59 0.70 0.79 0.64 0.58 0.59
0.04 0.02 0.10 0.24 0.06 0.01 0.01 0.03 0.06 0.04 0.01 0.02 0.03 0.02 0.02 0.03 0.03 0.04 0.09 0.21 0.46 0.83 0.34 0.60 1.42 0.57 0.93 0.69 0.48 0.48 0.49 0.64 0.93 1.16 1.26 0.79 0.72 0.68
0.06 0.18 0.17 0.02 0.00 0.00 0.01 0.01 0.02 0.01 0.05 0.14 0.10 0.05 0.04 0.05 0.05 0.07 0.12 0.17 0.22 0.28 0.35 0.43 0.86 0.82 1.05 0.96 0.62 0.44 0.63 0.73 0.85 1.00 1.08 1.14 0.99 0.71
0.18 0.18 0.01 0.00 0.00 0.00 0.00 0.00 0.00 0.02 0.11 0.24 0.20 0.08 0.04 0.06 0.08 0.17 0.37 0.30 0.42 0.30 0.34 0.44 0.58 0.80 0.85 0.56 0.70 0.63 0.58 0.92 0.91 0.93 0.90 1.07 1.09 0.71
0.07 0.00 0.00 0.00 0.00 0.00 0.00 0.00 0.00 0.01 0.08 0.10 0.18 0.17 0.10 0.10 0.12 0.21 0.47 0.63 0.72 0.53 0.46 0.41 0.32 0.32 0.44 0.50 0.61 0.49 0.54 0.71 1.02 1.05 0.87 1.05 0.99 0.83
0.00 0.00 0.01 0.01 0.02 0.01 0.02 0.02 0.01 0.03 0.09 0.19 0.19 0.20 0.30 0.29 0.32 0.31 0.52 0.75 0.74 0.56 0.56 0.46 0.34 0.31 0.30 0.31 0.48 0.73 0.69 0.77 1.00 0.90 0.80 0.86 0.94 1.00
0.01 0.03 0.03 0.02 0.02 0.02 0.04 0.07 0.08 0.05 0.16 0.30 0.35 0.38 0.42 0.35 0.37 0.47 0.56 0.60 0.58 0.49 0.39 0.27 0.35 0.60 0.70 0.34 0.27 0.61 1.17 0.99 0.75 0.66 0.60 0.62 0.82 0.89
0.04 0.05 0.03 0.03 0.03 0.06 0.09 0.14 0.17 0.13 0.19 0.30 0.43 0.44 0.50 0.59 0.52 0.54 0.57 0.62 0.58 0.39 0.16 0.07 0.14 0.50 1.06 0.89 0.73 0.60 0.69 0.93 0.81 0.82 0.75 0.63 0.79 0.65
0.05 0.03 0.02 0.03 0.06 0.10 0.13 0.17 0.20 0.33 0.51 0.58 0.44 0.50 0.50 0.70 0.56 0.48 0.49 0.39 0.32 0.25 0.17 0.05 0.06 0.25 0.45 0.45 0.45 0.31 0.50 0.55 0.61 0.89 0.81 0.63 0.51 0.30
0.03 0.03 0.03 0.04 0.09 0.15 0.19 0.20 0.25 0.26 0.36 0.39 0.47 0.55 0.58 0.66 0.68 0.48 0.31 0.31 0.19 0.20 0.16 0.04 0.01 0.11 0.20 0.42 0.32 0.23 0.21 0.22 0.24 0.21 0.40 0.88 1.11 1.24
0.04 0.04 0.04 0.07 0.12 0.16 0.19 0.21 0.29 0.31 0.40 0.55 0.56 0.58 0.57 0.52 0.31 0.28 0.24 0.25 0.27 0.28 0.16 0.12 0.04 0.05 0.12 0.24 0.28 0.25 0.12 0.09 0.09 0.14 0.36 0.37 0.48 0.73

GFSNE_prec_precacc_090.txt.gz
Total_Precipitation_Accumulation
0.23 0.24 0.23 0.20 0.24 0.28 0.37 0.52 0.77 0.82 0.61 0.53 0.48 0.44 0.43 0.45 0.49 0.49 0.43 0.56 0.61 0.57 0.56 0.49 0.46 0.43 0.43 0.44 0.51 0.61 0.72 0.82 0.94 0.95 1.00 1.05 1.07 1.14
0.28 0.34 0.36 0.34 0.31 0.27 0.26 0.28 0.40 0.58 0.61 0.47 0.51 0.61 0.65 0.61 0.61 0.51 0.48 0.56 0.55 0.50 0.44 0.42 0.42 0.41 0.40 0.38 0.35 0.31 0.33 0.38 0.45 0.58 0.77 0.98 1.12 1.19
0.16 0.22 0.29 0.27 0.30 0.32 0.40 0.54 0.68 0.81 0.89 0.73 0.67 0.61 0.53 0.46 0.41 0.35 0.33 0.27 0.28 0.32 0.31 0.27 0.22 0.24 0.27 0.28 0.30 0.34 0.40 0.47 0.49 0.51 0.60 0.79 0.90 0.96
0.07 0.10 0.14 0.16 0.21 0.25 0.34 0.43 0.50 0.57 0.63 0.61 0.47 0.40 0.34 0.28 0.28 0.21 0.16 0.17 0.14 0.14 0.15 0.14 0.14 0.14 0.15 0.16 0.19 0.25 0.33 0.43 0.51 0.61 0.67 0.67 0.63 0.71
0.13 0.16 0.21 0.23 0.29 0.31 0.31 0.32 0.32 0.29 0.27 0.31 0.26 0.20 0.19 0.16 0.13 0.07 0.05 0.06 0.05 0.09 0.12 0.14 0.14 0.13 0.13 0.15 0.21 0.27 0.35 0.45 0.51 0.55 0.62 0.74 0.83 0.82
0.21 0.27 0.29 0.31 0.31 0.31 0.32 0.32 0.28 0.20 0.15 0.17 0.22 0.17 0.11 0.08 0.07 0.04 0.04 0.04 0.04 0.03 0.06 0.12 0.15 0.16 0.15 0.18 0.21 0.26 0.28 0.34 0.47 0.54 0.60 0.66 0.69 0.71
0.31 0.31 0.33 0.35 0.32 0.27 0.23 0.18 0.13 0.12 0.23 0.39 0.34 0.30 0.17 0.05 0.04 0.04 0.07 0.06 0.05 0.04 0.06 0.11 0.11 0.10 0.09 0.16 0.25 0.28 0.31 0.37 0.51 0.71 0.84 0.93 1.02 1.04
0.36 0.33 0.31 0.28 0.19 0.15 0.13 0.11 0.11 0.24 0.38 0.53 0.41 0.16 0.04 0.02 0.03 0.13 0.27 0.29 0.21 0.03 0.05 0.05 0.05 0.06 0.08 0.15 0.24 0.25 0.31 0.41 0.47 0.56 0.64 0.66 0.69 0.77
0.29 0.22 0.13 0.09 0.08 0.05 0.03 0.08 0.20 0.33 0.29 0.16 0.08 0.07 0.08 0.13 0.42 0.49 0.31 0.26 0.16 0.03 0.09 0.12 0.08 0.10 0.13 0.16 0.24 0.29 0.36 0.45 0.52 0.57 0.56 0.58 0.63 0.63
0.07 0.03 0.01 0.02 0.02 0.04 0.09 0.31 0.24 0.09 0.01 0.02 0.05 0.11 0.25 0.29 0.26 0.30 0.21 0.18 0.10 0.05 0.10 0.29 0.10 0.10 0.08 0.16 0.30 0.24 0.30 0.42 0.55 0.62 0.62 0.58 0.56 0.66
0.00 0.00 0.04 0.03 0.02 0.12 0.29 0.27 0.05 0.00 0.00 0.05 0.15 0.13 0.06 0.03 0.04 0.29 0.39 0.39 0.26 0.05 0.06 0.22 0.16 0.13 0.11 0.17 0.33 0.39 0.42 0.45 0.44 0.40 0.39 0.40 0.48 0.53
0.01 0.02 0.02 0.03 0.08 0.35 0.18 0.06 0.09 0.04 0.14 0.10 0.02 0.00 0.01 0.02 0.07 0.17 0.48 0.97 0.49 0.39 0.07 0.48 0.30 0.24 0.58 0.20 0.34 0.44 0.42 0.44 0.40 0.39 0.37 0.38 0.42 0.46
0.09 0.02 0.01 0.09 0.29 0.14 0.05 0.04 0.06 0.07 0.07 0.02 0.00 0.00 0.01 0.01 0.04 0.08 0.23 0.88 1.14 0.71 0.12 1.01 1.02 0.29 0.67 0.36 0.38 0.47 0.44 0.51 0.59 0.70 0.79 0.64 0.58 0.59
0.04 0.02 0.10 0.24 0.06 0.01 0.01 0.03 0.06 0.04 0.01 0.02 0.03 0.02 0.02 0.03 0.03 0.04 0.09 0.21 0.46 0.83 0.34 0.60 1.42 0.57 0.93 0.70 0.48 0.48 0.49 0.64 0.93 1.16 1.26 0.79 0.72 0.68
0.06 0.18 0.17 0.02 0.00 0.00 0.01 0.01 0.02 0.01 0.05 0.14 0.10 0.05 0.04 0.05 0.05 0.07 0.12 0.17 0.22 0.28 0.35 0.43 0.86 0.82 1.05 0.96 0.62 0.44 0.63 0.73 0.85 1.00 1.08 1.14 0.99 0.71
0.18 0.18 0.01 0.00 0.00 0.00 0.00 0.00 0.00 0.02 0.11 0.24 0.20 0.08 0.04 0.06 0.08 0.17 0.37 0.30 0.42 0.30 0.34 0.44 0.58 0.80 0.85 0.56 0.70 0.63 0.58 0.92 0.91 0.93 0.90 1.07 1.09 0.71
0.07 0.00 0.00 0.00 0.00 0.00 0.00 0.00 0.00 0.01 0.08 0.10 0.18 0.17 0.10 0.10 0.12 0.21 0.47 0.63 0.72 0.53 0.46 0.41 0.32 0.32 0.44 0.50 0.61 0.49 0.54 0.71 1.02 1.05 0.87 1.05 0.99 0.83
0.00 0.00 0.01 0.01 0.02 0.01 0.02 0.02 0.01 0.03 0.09 0.19 0.19 0.20 0.30 0.29 0.32 0.31 0.52 0.75 0.74 0.56 0.56 0.46 0.34 0.31 0.31 0.31 0.48 0.73 0.69 0.77 1.00 0.90 0.80 0.86 0.94 1.00
0.01 0.03 0.03 0.02 0.02 0.02 0.04 0.07 0.08 0.05 0.16 0.30 0.35 0.38 0.42 0.35 0.37 0.47 0.56 0.60 0.58 0.50 0.39 0.27 0.35 0.61 0.70 0.34 0.27 0.61 1.17 0.99 0.75 0.66 0.60 0.62 0.82 0.89
0.04 0.05 0.03 0.03 0.03 0.06 0.09 0.14 0.17 0.13 0.19 0.30 0.43 0.44 0.50 0.59 0.52 0.54 0.57 0.62 0.58 0.39 0.16 0.07 0.14 0.51 1.06 0.89 0.73 0.60 0.69 0.93 0.81 0.82 0.75 0.63 0.79 0.65
0.05 0.03 0.02 0.03 0.06 0.10 0.13 0.17 0.20 0.33 0.51 0.58 0.44 0.50 0.50 0.70 0.56 0.48 0.49 0.39 0.32 0.25 0.17 0.05 0.06 0.25 0.46 0.47 0.46 0.31 0.50 0.55 0.61 0.89 0.81 0.63 0.51 0.30
0.03 0.03 0.03 0.04 0.09 0.15 0.19 0.20 0.25 0.26 0.36 0.39 0.47 0.55 0.58 0.66 0.68 0.48 0.31 0.31 0.19 0.20 0.16 0.04 0.01 0.11 0.20 0.43 0.32 0.23 0.21 0.22 0.24 0.21 0.41 0.90 1.11 1.24
0.04 0.04 0.04 0.07 0.12 0.16 0.19 0.21 0.29 0.31 0.40 0.55 0.56 0.58 0.57 0.52 0.31 0.28 0.24 0.25 0.27 0.28 0.16 0.12 0.04 0.05 0.12 0.24 0.28 0.25 0.12 0.09 0.09 0.14 0.36 0.37 0.48 0.73

GFSNE_prec_precacc_093.txt.gz
Total_Precipitation_Accumulation
0.23 0.24 0.23 0.20 0.24 0.28 0.37 0.52 0.77 0.82 0.61 0.53 0.48 0.44 0.43 0.45 0.49 0.49 0.43 0.56 0.61 0.57 0.56 0.49 0.47 0.44 0.43 0.45 0.52 0.65 0.75 0.84 0.96 0.96 1.01 1.05 1.07 1.14
0.28 0.34 0.36 0.34 0.31 0.27 0.26 0.28 0.40 0.58 0.61 0.47 0.51 0.61 0.65 0.61 0.61 0.51 0.48 0.57 0.55 0.50 0.44 0.42 0.43 0.42 0.40 0.40 0.36 0.32 0.35 0.39 0.46 0.58 0.77 0.98 1.12 1.19
0.16 0.22 0.29 0.27 0.30 0.32 0.40 0.54 0.68 0.81 0.89 0.73 0.67 0.61 0.53 0.46 0.41 0.35 0.33 0.27 0.28 0.33 0.31 0.27 0.22 0.24 0.27 0.28 0.30 0.34 0.40 0.47 0.49 0.51 0.60 0.79 0.90 0.96
0.07 0.10 0.14 0.16 0.21 0.25 0.34 0.43 0.50 0.57 0.63 0.61 0.47 0.40 0.34 0.28 0.28 0.21 0.16 0.17 0.14 0.14 0.15 0.14 0.14 0.14 0.15 0.16 0.19 0.25 0.33 0.43 0.51 0.61 0.67 0.67 0.63 0.71
0.13 0.16 0.21 0.23 0.29 0.31 0.31 0.32 0.32 0.29 0.27 0.31 0.26 0.20 0.19 0.16 0.13 0.07 0.05 0.06 0.05 0.09 0.12 0.14 0.14 0.13 0.13 0.15 0.21 0.27 0.35 0.45 0.51 0.55 0.62 0.74 0.83 0.82
0.21 0.27 0.29 0.31 0.31 0.31 0.32 0.32 0.28 0.20 0.15 0.17 0.22 0.17 0.11 0.08 0.07 0.04 0.04 0.04 0.04 0.03 0.06 0.12 0.15 0.16 0.15 0.18 0.21 0.26 0.28 0.34 0.47 0.54 0.60 0.66 0.69 0.71
0.31 0.31 0.33 0.35 0.32 0.27 0.23 0.18 0.13 0.12 0.23 0.39 0.34 0.30 0.17 0.05 0.04 0.04 0.07 0.06 0.05 0.04 0.06 0.11 0.11 0.10 0.09 0.16 0.25 0.28 0.31 0.37 0.51 0.71 0.84 0.93 1.02 1.04
0.36 0.33 0.31 0.28 0.19 0.15 0.13 0.11 0.11 0.24 0.38 0.53 0.41 0.16 0.04 0.02 0.03 0.13 0.27 0.29 0.21 0.03 0.05 0.05 0.05 0.06 0.08 0.15 0.24 0.25 0.31 0.41 0.47 0.56 0.64 0.66 0.69 0.77
0.29 0.22 0.13 0.09 0.08 0.05 0.03 0.08 0.20 0.33 0.29 0.16 0.08 0.07 0.08 0.13 0.42 0.49 0.31 0.26 0.16 0.03 0.09 0.12 0.08 0.10 0.13 0.16 0.24 0.29 0.36 0.45 0.52 0.57 0.56 0.58 0.63 0.63
0.07 0.03 0.01 0.02 0.02 0.04 0.09 0.31 0.24 0.09 0.01 0.02 0.05 0.11 0.25 0.29 0.26 0.30 0.21 0.18 0.10 0.05 0.10 0.29 0.10 0.10 0.08 0.16 0.30 0.24 0.30 0.42 0.55 0.62 0.62 0.58 0.56 0.66
0.00 0.00 0.04 0.03 0.02 0.12 0.29 0.27 0.05 0.00 0.00 0.05 0.15 0.13 0.06 0.03 0.04 0.29 0.39 0.39 0.26 0.05 0.06 0.22 0.16 0.13 0.11 0.17 0.33 0.39 0.42 0.45 0.44 0.40 0.39 0.40 0.48 0.53
0.01 0.02 0.02 0.03 0.08 0.35 0.18 0.06 0.09 0.04 0.14 0.10 0.02 0.00 0.01 0.02 0.07 0.17 0.48 0.97 0.49 0.39 0.07 0.48 0.30 0.24 0.58 0.20 0.34 0.44 0.42 0.44 0.40 0.39 0.37 0.38 0.42 0.46
0.09 0.02 0.01 0.09 0.29 0.14 0.05 0.04 0.06 0.07 0.07 0.02 0.00 0.00 0.01 0.01 0.04 0.08 0.23 0.88 1.14 0.71 0.12 1.01 1.02 0.29 0.67 0.36 0.38 0.47 0.44 0.51 0.59 0.70 0.79 0.64 0.58 0.59
0.04 0.02 0.10 0.24 0.06 0.01 0.01 0.03 0.06 0.04 0.01 0.02 0.03 0.02 0.02 0.03 0.03 0.04 0.09 0.21 0.46 0.83 0.34 0.60 1.42 0.57 0.93 0.70 0.48 0.48 0.49 0.64 0.93 1.16 1.26 0.79 0.72 0.68
0.06 0.18 0.17 0.02 0.00 0.00 0.01 0.01 0.02 0.01 0.05 0.14 0.10 0.05 0.04 0.05 0.05 0.07 0.12 0.17 0.22 0.28 0.35 0.43 0.86 0.82 1.05 0.96 0.62 0.44 0.63 0.73 0.85 1.00 1.08 1.14 0.99 0.71
0.18 0.18 0.01 0.00 0.00 0.00 0.00 0.00 0.00 0.02 0.11 0.24 0.20 0.08 0.04 0.06 0.08 0.17 0.37 0.30 0.42 0.30 0.34 0.44 0.58 0.80 0.85 0.56 0.70 0.63 0.58 0.92 0.91 0.93 0.90 1.07 1.09 0.71
0.07 0.00 0.00 0.00 0.00 0.00 0.00 0.00 0.00 0.01 0.08 0.10 0.18 0.17 0.10 0.10 0.12 0.21 0.47 0.63 0.72 0.53 0.46 0.41 0.32 0.32 0.44 0.50 0.62 0.49 0.54 0.71 1.02 1.05 0.87 1.05 0.99 0.83
0.00 0.00 0.01 0.01 0.02 0.01 0.02 0.02 0.01 0.03 0.09 0.19 0.19 0.20 0.30 0.29 0.32 0.31 0.52 0.75 0.74 0.56 0.56 0.46 0.34 0.31 0.31 0.31 0.48 0.73 0.69 0.77 1.00 0.90 0.80 0.86 0.94 1.00
0.01 0.03 0.03 0.02 0.02 0.02 0.04 0.07 0.08 0.05 0.16 0.30 0.35 0.38 0.42 0.35 0.37 0.47 0.56 0.60 0.58 0.50 0.39 0.27 0.35 0.61 0.71 0.34 0.27 0.61 1.17 0.99 0.75 0.66 0.60 0.62 0.82 0.89
0.04 0.05 0.03 0.03 0.03 0.06 0.09 0.14 0.17 0.13 0.19 0.30 0.43 0.44 0.50 0.59 0.52 0.54 0.57 0.62 0.58 0.39 0.16 0.07 0.14 0.51 1.06 0.89 0.73 0.60 0.69 0.93 0.81 0.82 0.75 0.63 0.79 0.65
0.05 0.03 0.02 0.03 0.06 0.10 0.13 0.17 0.20 0.33 0.51 0.58 0.44 0.50 0.50 0.70 0.56 0.48 0.49 0.39 0.32 0.25 0.17 0.05 0.06 0.25 0.46 0.47 0.46 0.31 0.50 0.55 0.61 0.89 0.81 0.64 0.51 0.30
0.03 0.03 0.03 0.04 0.09 0.15 0.19 0.20 0.25 0.26 0.36 0.39 0.47 0.55 0.58 0.66 0.68 0.48 0.31 0.31 0.19 0.20 0.16 0.04 0.01 0.11 0.20 0.43 0.32 0.23 0.21 0.22 0.24 0.21 0.41 0.90 1.12 1.24
0.04 0.04 0.04 0.07 0.12 0.16 0.19 0.21 0.29 0.31 0.40 0.55 0.56 0.58 0.57 0.52 0.31 0.28 0.24 0.25 0.27 0.28 0.16 0.12 0.04 0.05 0.12 0.24 0.28 0.25 0.12 0.09 0.09 0.14 0.36 0.37 0.48 0.73

GFSNE_prec_precacc_096.txt.gz
Total_Precipitation_Accumulation
0.23 0.24 0.23 0.20 0.24 0.28 0.37 0.52 0.78 0.82 0.62 0.53 0.48 0.44 0.43 0.45 0.49 0.49 0.43 0.56 0.61 0.58 0.56 0.49 0.47 0.44 0.45 0.48 0.54 0.67 0.78 0.91 1.02 0.99 1.01 1.05 1.07 1.14
0.28 0.34 0.36 0.34 0.31 0.27 0.26 0.28 0.40 0.58 0.61 0.47 0.51 0.61 0.65 0.61 0.61 0.51 0.48 0.57 0.55 0.51 0.44 0.42 0.43 0.42 0.41 0.42 0.38 0.34 0.36 0.40 0.47 0.59 0.77 0.99 1.12 1.19
0.16 0.22 0.29 0.27 0.30 0.32 0.40 0.54 0.68 0.81 0.89 0.73 0.67 0.61 0.53 0.46 0.41 0.35 0.33 0.27 0.28 0.33 0.31 0.27 0.22 0.24 0.27 0.29 0.31 0.34 0.41 0.48 0.49 0.51 0.60 0.79 0.90 0.96
0.07 0.10 0.14 0.16 0.21 0.25 0.34 0.43 0.50 0.57 0.63 0.61 0.47 0.40 0.34 0.28 0.28 0.21 0.16 0.17 0.14 0.14 0.15 0.14 0.14 0.14 0.15 0.16 0.19 0.25 0.33 0.43 0.51 0.61 0.67 0.67 0.63 0.71
0.13 0.16 0.21 0.23 0.29 0.31 0.31 0.32 0.32 0.29 0.27 0.31 0.26 0.20 0.19 0.16 0.13 0.07 0.05 0.06 0.05 0.09 0.12 0.14 0.14 0.13 0.13 0.16 0.21 0.27 0.35 0.45 0.51 0.55 0.62 0.74 0.83 0.82
0.21 0.27 0.29 0.31 0.31 0.31 0.32 0.32 0.28 0.20 0.15 0.17 0.22 0.17 0.11 0.08 0.07 0.04 0.04 0.04 0.04 0.03 0.06 0.12 0.15 0.16 0.15 0.18 0.21 0.26 0.28 0.34 0.47 0.54 0.60 0.66 0.69 0.71
0.31 0.31 0.33 0.36 0.32 0.27 0.23 0.18 0.13 0.12 0.23 0.39 0.34 0.30 0.17 0.05 0.04 0.04 0.07 0.06 0.05 0.04 0.06 0.11 0.11 0.10 0.09 0.16 0.25 0.28 0.31 0.37 0.51 0.71 0.84 0.93 1.02 1.04
0.36 0.33 0.31 0.28 0.19 0.15 0.13 0.11 0.11 0.24 0.38 0.53 0.41 0.16 0.04 0.02 0.03 0.13 0.27 0.29 0.21 0.03 0.05 0.05 0.05 0.06 0.08 0.15 0.24 0.25 0.31 0.41 0.47 0.56 0.64 0.66 0.69 0.77
0.29 0.22 0.13 0.09 0.08 0.05 0.03 0.08 0.20 0.33 0.29 0.16 0.08 0.07 0.08 0.13 0.42 0.49 0.31 0.26 0.16 0.03 0.09 0.12 0.08 0.10 0.13 0.16 0.24 0.29 0.36 0.45 0.52 0.57 0.56 0.58 0.63 0.63
0.07 0.03 0.01 0.02 0.02 0.04 0.09 0.31 0.24 0.09 0.01 0.02 0.05 0.11 0.25 0.29 0.26 0.30 0.21 0.18 0.10 0.05 0.10 0.29 0.10 0.10 0.08 0.16 0.30 0.24 0.30 0.42 0.55 0.62 0.62 0.58 0.56 0.66
0.00 0.00 0.04 0.03 0.02 0.12 0.29 0.27 0.05 0.00 0.00 0.05 0.15 0.13 0.06 0.03 0.04 0.29 0.39 0.39 0.26 0.05 0.06 0.22 0.16 0.13 0.11 0.17 0.33 0.39 0.42 0.45 0.44 0.40 0.39 0.40 0.48 0.53
0.01 0.02 0.02 0.03 0.08 0.35 0.18 0.06 0.09 0.04 0.14 0.10 0.02 0.00 0.01 0.02 0.07 0.17 0.48 0.97 0.49 0.39 0.07 0.48 0.30 0.24 0.58 0.20 0.34 0.44 0.42 0.44 0.40 0.39 0.37 0.38 0.42 0.46
0.09 0.02 0.01 0.09 0.29 0.14 0.05 0.04 0.06 0.07 0.07 0.02 0.00 0.00 0.01 0.01 0.04 0.08 0.23 0.88 1.14 0.71 0.12 1.01 1.02 0.29 0.67 0.36 0.38 0.47 0.44 0.51 0.59 0.70 0.79 0.64 0.58 0.59
0.04 0.02 0.10 0.24 0.06 0.01 0.01 0.03 0.06 0.04 0.01 0.02 0.03 0.02 0.02 0.03 0.03 0.04 0.09 0.21 0.46 0.83 0.34 0.60 1.42 0.57 0.93 0.70 0.48 0.48 0.49 0.64 0.93 1.16 1.26 0.79 0.72 0.68
0.07 0.18 0.17 0.03 0.00 0.00 0.01 0.01 0.02 0.01 0.05 0.14 0.10 0.05 0.04 0.05 0.05 0.07 0.12 0.17 0.22 0.28 0.35 0.43 0.86 0.82 1.05 0.96 0.62 0.44 0.63 0.73 0.85 1.00 1.08 1.14 0.99 0.71
0.19 0.19 0.01 0.00 0.00 0.00 0.00 0.00 0.00 0.02 0.11 0.24 0.20 0.08 0.04 0.06 0.08 0.17 0.37 0.30 0.42 0.30 0.34 0.44 0.58 0.80 0.85 0.56 0.70 0.63 0.58 0.92 0.91 0.93 0.90 1.07 1.09 0.71
0.08 0.00 0.00 0.00 0.00 0.00 0.00 0.00 0.00 0.01 0.08 0.10 0.18 0.17 0.10 0.10 0.12 0.21 0.47 0.63 0.72 0.53 0.46 0.41 0.32 0.32 0.44 0.50 0.62 0.49 0.54 0.71 1.02 1.05 0.87 1.05 0.99 0.83
0.00 0.00 0.01 0.01 0.02 0.01 0.02 0.02 0.01 0.03 0.09 0.19 0.19 0.20 0.30 0.29 0.32 0.31 0.52 0.75 0.74 0.56 0.56 0.46 0.34 0.31 0.31 0.31 0.48 0.73 0.69 0.77 1.00 0.90 0.80 0.86 0.94 1.00
0.01 0.03 0.03 0.02 0.02 0.02 0.04 0.07 0.08 0.05 0.16 0.30 0.35 0.38 0.42 0.35 0.37 0.47 0.56 0.60 0.58 0.50 0.39 0.27 0.35 0.61 0.71 0.34 0.27 0.61 1.17 0.99 0.75 0.66 0.60 0.62 0.82 0.89
0.04 0.05 0.03 0.03 0.03 0.06 0.09 0.14 0.17 0.13 0.19 0.30 0.43 0.44 0.50 0.59 0.52 0.54 0.57 0.62 0.58 0.39 0.16 0.07 0.14 0.51 1.06 0.89 0.73 0.60 0.69 0.93 0.81 0.82 0.75 0.63 0.79 0.65
0.05 0.03 0.02 0.03 0.06 0.10 0.13 0.17 0.20 0.33 0.51 0.58 0.44 0.50 0.50 0.70 0.56 0.48 0.49 0.39 0.32 0.25 0.17 0.05 0.06 0.25 0.46 0.47 0.46 0.31 0.50 0.55 0.61 0.89 0.81 0.64 0.52 0.30
0.03 0.03 0.03 0.04 0.09 0.15 0.19 0.20 0.25 0.26 0.36 0.39 0.47 0.55 0.58 0.66 0.68 0.48 0.31 0.31 0.19 0.20 0.16 0.04 0.01 0.11 0.20 0.43 0.32 0.23 0.21 0.22 0.24 0.21 0.41 0.90 1.12 1.24
0.04 0.04 0.04 0.07 0.12 0.16 0.19 0.21 0.29 0.31 0.40 0.55 0.56 0.58 0.57 0.52 0.31 0.28 0.24 0.25 0.27 0.28 0.16 0.12 0.04 0.05 0.12 0.24 0.28 0.25 0.12 0.09 0.09 0.14 0.36 0.37 0.48 0.73

GFSNE_prec_precacc_099.txt.gz
Total_Precipitation_Accumulation
0.23 0.24 0.23 0.20 0.24 0.28 0.37 0.52 0.79 0.83 0.62 0.54 0.48 0.44 0.43 0.45 0.49 0.49 0.43 0.56 0.62 0.58 0.56 0.49 0.47 0.44 0.45 0.50 0.57 0.68 0.82 1.05 1.07 1.02 1.06 1.08 1.08 1.14
0.28 0.34 0.36 0.34 0.31 0.28 0.26 0.28 0.40 0.58 0.61 0.47 0.52 0.61 0.65 0.61 0.61 0.51 0.48 0.57 0.55 0.51 0.45 0.42 0.43 0.42 0.42 0.44 0.39 0.36 0.39 0.46 0.54 0.63 0.80 1.01 1.13 1.19
0.16 0.22 0.29 0.27 0.30 0.32 0.40 0.54 0.69 0.81 0.90 0.74 0.67 0.61 0.53 0.46 0.41 0.35 0.33 0.27 0.28 0.33 0.31 0.27 0.22 0.24 0.27 0.29 0.31 0.36 0.42 0.49 0.50 0.52 0.60 0.79 0.90 0.96
0.07 0.10 0.14 0.16 0.21 0.25 0.34 0.43 0.50 0.58 0.64 0.61 0.48 0.41 0.34 0.28 0.28 0.21 0.16 0.17 0.14 0.14 0.15 0.14 0.14 0.14 0.15 0.16 0.19 0.25 0.33 0.43 0.51 0.61 0.67 0.67 0.63 0.71
0.13 0.16 0.21 0.23 0.29 0.31 0.31 0.32 0.32 0.29 0.27 0.31 0.26 0.20 0.19 0.16 0.13 0.07 0.05 0.06 0.05 0.09 0.12 0.14 0.14 0.13 0.13 0.16 0.21 0.27 0.35 0.45 0.51 0.55 0.62 0.74 0.83 0.82
0.21 0.27 0.29 0.31 0.31 0.31 0.32 0.32 0.28 0.20 0.15 0.17 0.22 0.17 0.11 0.08 0.07 0.04 0.04 0.04 0.04 0.03 0.06 0.12 0.15 0.16 0.15 0.18 0.21 0.26 0.28 0.34 0.47 0.54 0.60 0.66 0.69 0.71
0.31 0.31 0.33 0.36 0.33 0.27 0.23 0.18 0.13 0.12 0.23 0.39 0.34 0.30 0.17 0.05 0.04 0.04 0.07 0.06 0.05 0.04 0.06 0.11 0.11 0.10 0.09 0.16 0.25 0.28 0.31 0.37 0.51 0.71 0.84 0.93 1.02 1.04
0.36 0.33 0.31 0.28 0.20 0.15 0.13 0.11 0.11 0.24 0.38 0.53 0.41 0.16 0.04 0.02 0.03 0.13 0.27 0.29 0.21 0.03 0.05 0.05 0.05 0.06 0.08 0.15 0.24 0.25 0.31 0.41 0.47 0.56 0.64 0.66 0.69 0.77
0.29 0.22 0.13 0.09 0.08 0.05 0.03 0.08 0.20 0.33 0.29 0.16 0.08 0.07 0.08 0.13 0.42 0.49 0.31 0.26 0.16 0.03 0.09 0.12 0.08 0.10 0.13 0.16 0.24 0.29 0.36 0.45 0.52 0.57 0.56 0.58 0.63 0.63
0.07 0.03 0.01 0.02 0.02 0.04 0.09 0.31 0.24 0.09 0.01 0.02 0.05 0.11 0.25 0.29 0.26 0.30 0.21 0.18 0.10 0.05 0.10 0.29 0.10 0.10 0.08 0.16 0.30 0.24 0.30 0.42 0.55 0.62 0.62 0.58 0.56 0.66
0.00 0.00 0.04 0.03 0.02 0.12 0.29 0.27 0.05 0.00 0.00 0.05 0.15 0.13 0.06 0.03 0.04 0.29 0.39 0.39 0.26 0.05 0.06 0.22 0.16 0.13 0.11 0.17 0.33 0.39 0.42 0.45 0.44 0.40 0.39 0.40 0.48 0.53
0.01 0.02 0.02 0.03 0.08 0.35 0.18 0.06 0.09 0.04 0.14 0.10 0.02 0.00 0.01 0.02 0.07 0.17 0.48 0.97 0.49 0.39 0.07 0.48 0.30 0.24 0.58 0.20 0.34 0.44 0.42 0.44 0.40 0.39 0.37 0.38 0.42 0.46
0.09 0.02 0.01 0.09 0.29 0.14 0.05 0.04 0.06 0.07 0.07 0.02 0.00 0.00 0.01 0.01 0.04 0.08 0.23 0.88 1.14 0.71 0.12 1.01 1.02 0.29 0.67 0.36 0.38 0.47 0.44 0.51 0.59 0.70 0.79 0.64 0.58 0.59
0.04 0.02 0.10 0.24 0.06 0.01 0.01 0.03 0.06 0.04 0.01 0.02 0.03 0.02 0.02 0.03 0.03 0.04 0.09 0.21 0.46 0.83 0.34 0.60 1.42 0.57 0.93 0.70 0.48 0.48 0.49 0.64 0.93 1.16 1.26 0.79 0.72 0.68
0.07 0.18 0.17 0.03 0.00 0.00 0.01 0.01 0.02 0.01 0.05 0.14 0.10 0.05 0.04 0.05 0.05 0.07 0.12 0.17 0.22 0.28 0.35 0.43 0.86 0.82 1.05 0.96 0.62 0.44 0.63 0.73 0.85 1.00 1.08 1.14 0.99 0.71
0.19 0.19 0.01 0.00 0.00 0.00 0.00 0.00 0.00 0.02 0.11 0.24 0.20 0.08 0.04 0.06 0.08 0.17 0.37 0.30 0.42 0.30 0.34 0.44 0.58 0.80 0.85 0.56 0.70 0.63 0.58 0.92 0.91 0.93 0.90 1.07 1.09 0.71
0.08 0.00 0.00 0.00 0.00 0.00 0.00 0.00 0.00 0.01 0.08 0.10 0.18 0.17 0.10 0.10 0.12 0.21 0.47 0.63 0.72 0.53 0.46 0.41 0.32 0.32 0.44 0.50 0.62 0.49 0.54 0.71 1.02 1.05 0.87 1.05 0.99 0.83
0.00 0.00 0.01 0.01 0.02 0.01 0.02 0.02 0.01 0.03 0.09 0.19 0.19 0.20 0.30 0.29 0.32 0.31 0.52 0.75 0.74 0.56 0.56 0.46 0.34 0.31 0.31 0.31 0.48 0.73 0.69 0.77 1.00 0.90 0.80 0.86 0.94 1.00
0.01 0.03 0.03 0.02 0.02 0.02 0.04 0.07 0.08 0.05 0.16 0.30 0.35 0.38 0.42 0.35 0.37 0.47 0.56 0.60 0.58 0.50 0.39 0.27 0.35 0.61 0.71 0.34 0.27 0.61 1.17 0.99 0.75 0.66 0.60 0.62 0.82 0.89
0.04 0.05 0.03 0.03 0.03 0.06 0.09 0.14 0.17 0.13 0.19 0.30 0.43 0.44 0.50 0.59 0.52 0.54 0.57 0.62 0.58 0.39 0.16 0.07 0.14 0.51 1.06 0.89 0.73 0.60 0.69 0.93 0.81 0.82 0.75 0.63 0.79 0.65
0.05 0.03 0.02 0.03 0.06 0.10 0.13 0.17 0.20 0.33 0.51 0.58 0.44 0.50 0.50 0.70 0.56 0.48 0.49 0.39 0.32 0.25 0.17 0.05 0.06 0.25 0.46 0.47 0.46 0.31 0.50 0.55 0.61 0.89 0.81 0.64 0.52 0.30
0.03 0.03 0.03 0.04 0.09 0.15 0.19 0.20 0.25 0.26 0.36 0.39 0.47 0.55 0.58 0.66 0.68 0.48 0.31 0.31 0.19 0.20 0.16 0.04 0.01 0.11 0.20 0.43 0.32 0.23 0.21 0.22 0.24 0.21 0.41 0.90 1.12 1.24
0.05 0.05 0.04 0.07 0.12 0.16 0.19 0.21 0.29 0.31 0.40 0.55 0.56 0.58 0.57 0.52 0.31 0.28 0.24 0.25 0.27 0.28 0.16 0.12 0.04 0.05 0.12 0.24 0.28 0.25 0.12 0.09 0.09 0.14 0.36 0.37 0.48 0.73

GFSNE_prec_precacc_102.txt.gz
Total_Precipitation_Accumulation
0.23 0.24 0.23 0.20 0.24 0.28 0.37 0.53 0.80 0.85 0.62 0.54 0.49 0.44 0.43 0.46 0.50 0.49 0.43 0.56 0.62 0.58 0.56 0.50 0.47 0.45 0.46 0.52 0.60 0.70 0.84 1.09 1.12 1.03 1.06 1.08 1.09 1.14
0.28 0.34 0.36 0.34 0.31 0.28 0.26 0.28 0.40 0.59 0.62 0.47 0.52 0.61 0.66 0.62 0.62 0.52 0.48 0.57 0.55 0.51 0.45 0.42 0.43 0.42 0.42 0.46 0.41 0.39 0.42 0.53 0.65 0.70 0.82 1.03 1.15 1.20
0.16 0.22 0.29 0.27 0.30 0.32 0.40 0.54 0.69 0.81 0.90 0.74 0.67 0.62 0.53 0.46 0.41 0.35 0.33 0.27 0.28 0.33 0.31 0.27 0.22 0.24 0.27 0.30 0.32 0.38 0.45 0.53 0.55 0.58 0.64 0.81 0.91 0.97
0.07 0.10 0.14 0.16 0.21 0.25 0.34 0.43 0.50 0.58 0.64 0.62 0.48 0.42 0.34 0.29 0.28 0.21 0.16 0.17 0.14 0.14 0.15 0.14 0.14 0.14 0.15 0.16 0.19 0.25 0.33 0.43 0.52 0.61 0.67 0.67 0.63 0.71
0.13 0.16 0.21 0.23 0.29 0.31 0.31 0.32 0.32 0.29 0.27 0.31 0.27 0.20 0.20 0.16 0.13 0.07 0.05 0.06 0.05 0.09 0.12 0.14 0.14 0.13 0.13 0.16 0.21 0.27 0.35 0.45 0.51 0.55 0.62 0.74 0.83 0.82
0.21 0.27 0.29 0.31 0.31 0.31 0.32 0.32 0.28 0.20 0.15 0.18 0.23 0.18 0.12 0.08 0.07 0.04 0.04 0.04 0.04 0.03 0.06 0.12 0.15 0.16 0.15 0.18 0.21 0.26 0.28 0.34 0.47 0.54 0.60 0.66 0.69 0.71
0.31 0.31 0.33 0.36 0.33 0.27 0.23 0.18 0.13 0.12 0.23 0.39 0.34 0.30 0.17 0.05 0.04 0.04 0.07 0.06 0.05 0.04 0.06 0.11 0.11 0.10 0.09 0.16 0.25 0.28 0.31 0.37 0.51 0.71 0.84 0.93 1.02 1.04
0.36 0.33 0.31 0.28 0.20 0.15 0.13 0.12 0.11 0.24 0.38 0.53 0.41 0.16 0.04 0.02 0.03 0.13 0.27 0.29 0.21 0.03 0.05 0.05 0.05 0.06 0.08 0.15 0.24 0.25 0.31 0.41 0.47 0.56 0.64 0.66 0.69 0.77
0.29 0.22 0.13 0.09 0.08 0.05 0.03 0.08 0.20 0.33 0.29 0.16 0.08 0.07 0.08 0.13 0.42 0.49 0.31 0.26 0.16 0.03 0.09 0.12 0.08 0.10 0.13 0.16 0.24 0.29 0.36 0.45 0.52 0.57 0.56 0.58 0.63 0.63
0.07 0.03 0.01 0.02 0.03 0.04 0.09 0.31 0.24 0.09 0.01 0.02 0.05 0.11 0.25 0.29 0.26 0.30 0.21 0.18 0.10 0.05 0.10 0.29 0.10 0.10 0.08 0.16 0.30 0.24 0.30 0.42 0.55 0.62 0.62 0.58 0.56 0.66
0.00 0.00 0.04 0.03 0.03 0.12 0.29 0.27 0.05 0.00 0.00 0.05 0.15 0.13 0.06 0.03 0.04 0.29 0.39 0.39 0.26 0.05 0.06 0.22 0.16 0.13 0.11 0.17 0.33 0.39 0.42 0.45 0.44 0.40 0.39 0.40 0.48 0.53
0.01 0.02 0.03 0.03 0.08 0.35 0.18 0.06 0.09 0.04 0.14 0.10 0.02 0.00 0.01 0.02 0.07 0.17 0.48 0.97 0.49 0.39 0.07 0.48 0.30 0.24 0.58 0.20 0.34 0.44 0.42 0.44 0.40 0.39 0.37 0.38 0.42 0.46
0.09 0.02 0.01 0.09 0.29 0.14 0.05 0.04 0.06 0.07 0.07 0.02 0.00 0.00 0.01 0.01 0.04 0.08 0.23 0.88 1.14 0.71 0.12 1.01 1.02 0.29 0.67 0.36 0.38 0.47 0.44 0.51 0.59 0.70 0.79 0.64 0.58 0.59
0.04 0.02 0.10 0.24 0.06 0.01 0.01 0.03 0.06 0.04 0.01 0.02 0.03 0.02 0.02 0.03 0.03 0.04 0.09 0.21 0.46 0.83 0.34 0.60 1.42 0.57 0.93 0.70 0.48 0.48 0.49 0.64 0.93 1.16 1.26 0.79 0.72 0.68
0.07 0.18 0.17 0.03 0.00 0.00 0.01 0.01 0.02 0.01 0.05 0.14 0.10 0.05 0.04 0.05 0.05 0.07 0.12 0.17 0.22 0.28 0.35 0.43 0.86 0.82 1.05 0.96 0.62 0.44 0.63 0.73 0.85 1.00 1.08 1.14 0.99 0.71
0.19 0.19 0.01 0.00 0.00 0.00 0.00 0.00 0.00 0.02 0.11 0.24 0.20 0.08 0.04 0.06 0.08 0.17 0.37 0.30 0.42 0.30 0.34 0.44 0.58 0.80 0.85 0.56 0.70 0.63 0.58 0.92 0.91 0.93 0.90 1.07 1.09 0.71
0.08 0.00 0.00 0.00 0.00 0.00 0.00 0.00 0.00 0.01 0.08 0.10 0.18 0.17 0.10 0.10 0.12 0.21 0.47 0.63 0.72 0.53 0.46 0.41 0.32 0.32 0.44 0.50 0.62 0.49 0.54 0.71 1.02 1.05 0.87 1.05 0.99 0.83
0.00 0.00 0.01 0.01 0.02 0.01 0.02 0.02 0.01 0.03 0.09 0.19 0.19 0.20 0.30 0.29 0.32 0.31 0.52 0.75 0.74 0.56 0.56 0.46 0.34 0.31 0.31 0.31 0.48 0.73 0.69 0.77 1.00 0.90 0.80 0.86 0.94 1.00
0.01 0.03 0.03 0.02 0.02 0.02 0.04 0.07 0.08 0.05 0.16 0.30 0.35 0.38 0.42 0.35 0.37 0.47 0.56 0.60 0.58 0.50 0.39 0.27 0.35 0.61 0.71 0.34 0.27 0.61 1.17 0.99 0.75 0.66 0.60 0.62 0.82 0.89
0.04 0.05 0.03 0.03 0.03 0.06 0.09 0.14 0.17 0.13 0.19 0.30 0.43 0.44 0.50 0.59 0.52 0.54 0.57 0.62 0.58 0.39 0.16 0.07 0.14 0.51 1.06 0.89 0.73 0.60 0.69 0.93 0.81 0.82 0.75 0.63 0.79 0.65
0.05 0.03 0.02 0.03 0.06 0.10 0.13 0.17 0.20 0.33 0.51 0.58 0.44 0.50 0.50 0.70 0.56 0.48 0.49 0.39 0.32 0.25 0.17 0.05 0.06 0.25 0.46 0.47 0.46 0.31 0.50 0.55 0.61 0.89 0.81 0.64 0.52 0.30
0.03 0.04 0.03 0.04 0.09 0.15 0.19 0.20 0.25 0.26 0.36 0.39 0.47 0.55 0.58 0.66 0.68 0.48 0.31 0.31 0.19 0.20 0.16 0.04 0.01 0.11 0.21 0.43 0.32 0.23 0.21 0.22 0.24 0.21 0.41 0.90 1.12 1.24
0.06 0.07 0.06 0.09 0.14 0.17 0.20 0.22 0.29 0.31 0.40 0.55 0.56 0.58 0.57 0.52 0.31 0.28 0.24 0.25 0.27 0.28 0.16 0.12 0.04 0.05 0.12 0.24 0.28 0.25 0.12 0.09 0.09 0.14 0.36 0.37 0.48 0.73

GFSNE_prec_precacc_105.txt.gz
Total_Precipitation_Accumulation
0.23 0.24 0.23 0.20 0.24 0.28 0.37 0.53 0.80 0.85 0.62 0.54 0.49 0.44 0.43 0.46 0.50 0.49 0.43 0.57 0.62 0.58 0.56 0.50 0.47 0.45 0.46 0.52 0.62 0.71 0.84 1.10 1.15 1.04 1.07 1.11 1.13 1.16
0.28 0.34 0.36 0.34 0.31 0.28 0.26 0.28 0.40 0.60 0.63 0.47 0.52 0.61 0.66 0.62 0.63 0.52 0.48 0.57 0.55 0.51 0.45 0.42 0.43 0.42 0.42 0.48 0.43 0.42 0.46 0.58 0.72 0.73 0.84 1.04 1.15 1.20
0.16 0.22 0.29 0.27 0.30 0.32 0.40 0.54 0.69 0.81 0.91 0.74 0.68 0.62 0.53 0.46 0.41 0.35 0.33 0.27 0.28 0.33 0.31 0.27 0.22 0.24 0.27 0.30 0.34 0.41 0.47 0.61 0.68 0.66 0.70 0.84 0.92 0.97
0.07 0.10 0.14 0.16 0.21 0.25 0.34 0.43 0.50 0.58 0.64 0.62 0.48 0.42 0.34 0.29 0.29 0.22 0.16 0.17 0.14 0.14 0.15 0.14 0.14 0.14 0.15 0.16 0.19 0.27 0.35 0.48 0.59 0.68 0.74 0.71 0.65 0.72
0.13 0.16 0.21 0.23 0.29 0.31 0.31 0.32 0.32 0.29 0.27 0.31 0.27 0.20 0.20 0.16 0.13 0.08 0.05 0.06 0.05 0.09 0.12 0.14 0.14 0.13 0.13 0.16 0.21 0.27 0.35 0.45 0.52 0.56 0.63 0.74 0.83 0.82
0.21 0.27 0.29 0.31 0.31 0.31 0.32 0.32 0.28 0.20 0.15 0.18 0.23 0.18 0.12 0.08 0.07 0.05 0.04 0.04 0.04 0.03 0.06 0.12 0.15 0.16 0.15 0.18 0.21 0.26 0.28 0.34 0.47 0.54 0.60 0.66 0.69 0.71
0.31 0.31 0.33 0.36 0.33 0.27 0.23 0.18 0.13 0.12 0.23 0.39 0.35 0.31 0.18 0.06 0.04 0.04 0.07 0.06 0.05 0.04 0.06 0.11 0.11 0.10 0.09 0.16 0.25 0.28 0.31 0.37 0.51 0.71 0.84 0.93 1.02 1.04
0.36 0.33 0.31 0.28 0.20 0.15 0.13 0.12 0.11 0.24 0.38 0.54 0.42 0.16 0.04 0.03 0.03 0.13 0.27 0.29 0.21 0.03 0.05 0.05 0.05 0.06 0.08 0.15 0.24 0.25 0.31 0.41 0.47 0.56 0.64 0.66 0.69 0.77
0.29 0.22 0.13 0.09 0.08 0.05 0.03 0.08 0.20 0.33 0.29 0.16 0.08 0.07 0.08 0.13 0.42 0.49 0.31 0.26 0.16 0.03 0.09 0.12 0.08 0.10 0.13 0.16 0.24 0.29 0.36 0.45 0.52 0.57 0.56 0.58 0.63 0.63
0.07 0.03 0.01 0.02 0.03 0.04 0.09 0.31 0.24 0.09 0.01 0.02 0.05 0.11 0.25 0.29 0.26 0.30 0.21 0.18 0.10 0.05 0.10 0.29 0.10 0.10 0.08 0.16 0.30 0.24 0.30 0.42 0.55 0.62 0.62 0.58 0.56 0.66
0.00 0.00 0.04 0.03 0.03 0.12 0.29 0.27 0.05 0.00 0.00 0.05 0.15 0.13 0.06 0.03 0.04 0.29 0.39 0.39 0.26 0.05 0.06 0.22 0.16 0.13 0.11 0.17 0.33 0.39 0.42 0.45 0.44 0.40 0.39 0.40 0.48 0.53
0.01 0.02 0.03 0.03 0.08 0.35 0.18 0.06 0.09 0.04 0.14 0.10 0.02 0.00 0.01 0.02 0.07 0.17 0.48 0.97 0.49 0.39 0.07 0.48 0.30 0.24 0.58 0.20 0.34 0.44 0.42 0.44 0.40 0.39 0.37 0.38 0.42 0.46
0.09 0.02 0.01 0.09 0.29 0.14 0.05 0.04 0.06 0.07 0.07 0.02 0.00 0.00 0.01 0.01 0.04 0.08 0.23 0.88 1.15 0.71 0.12 1.01 1.02 0.29 0.67 0.36 0.38 0.47 0.44 0.51 0.59 0.70 0.79 0.64 0.58 0.59
0.04 0.02 0.10 0.24 0.06 0.01 0.01 0.03 0.06 0.04 0.01 0.02 0.03 0.02 0.02 0.03 0.03 0.04 0.09 0.21 0.46 0.83 0.34 0.60 1.42 0.57 0.93 0.70 0.48 0.48 0.49 0.64 0.93 1.16 1.26 0.79 0.72 0.68
0.07 0.18 0.17 0.03 0.00 0.00 0.01 0.01 0.02 0.01 0.05 0.14 0.10 0.05 0.04 0.05 0.05 0.07 0.12 0.17 0.22 0.28 0.35 0.43 0.86 0.82 1.05 0.96 0.62 0.44 0.63 0.73 0.85 1.00 1.08 1.14 0.99 0.71
0.19 0.19 0.01 0.00 0.00 0.00 0.00 0.00 0.00 0.02 0.11 0.24 0.20 0.08 0.04 0.06 0.08 0.17 0.37 0.30 0.42 0.30 0.34 0.44 0.58 0.80 0.85 0.56 0.70 0.63 0.58 0.92 0.91 0.93 0.90 1.07 1.09 0.71
0.08 0.00 0.00 0.00 0.00 0.00 0.00 0.00 0.00 0.01 0.08 0.10 0.18 0.17 0.10 0.10 0.12 0.21 0.47 0.63 0.72 0.53 0.46 0.41 0.32 0.32 0.44 0.50 0.62 0.49 0.54 0.71 1.02 1.05 0.87 1.05 0.99 0.83
0.00 0.00 0.01 0.01 0.02 0.01 0.02 0.02 0.01 0.03 0.09 0.19 0.19 0.20 0.30 0.29 0.32 0.31 0.52 0.75 0.74 0.56 0.56 0.46 0.34 0.31 0.31 0.31 0.48 0.73 0.69 0.77 1.00 0.90 0.80 0.86 0.94 1.00
0.01 0.03 0.03 0.02 0.02 0.02 0.04 0.07 0.08 0.05 0.16 0.30 0.35 0.38 0.42 0.35 0.37 0.47 0.56 0.60 0.58 0.50 0.39 0.27 0.35 0.61 0.71 0.34 0.27 0.61 1.17 0.99 0.75 0.66 0.60 0.62 0.82 0.89
0.04 0.05 0.03 0.03 0.03 0.06 0.09 0.14 0.17 0.13 0.19 0.30 0.43 0.44 0.50 0.59 0.52 0.54 0.57 0.62 0.58 0.39 0.16 0.07 0.14 0.51 1.06 0.89 0.73 0.60 0.69 0.93 0.81 0.82 0.75 0.63 0.79 0.65
0.05 0.03 0.02 0.03 0.06 0.10 0.13 0.17 0.20 0.33 0.51 0.58 0.44 0.50 0.50 0.70 0.56 0.48 0.49 0.39 0.32 0.25 0.17 0.05 0.06 0.25 0.46 0.47 0.46 0.31 0.50 0.55 0.61 0.89 0.81 0.64 0.52 0.30
0.03 0.05 0.03 0.04 0.09 0.16 0.19 0.20 0.25 0.26 0.36 0.39 0.47 0.55 0.58 0.66 0.68 0.48 0.31 0.31 0.19 0.20 0.16 0.04 0.01 0.11 0.21 0.43 0.32 0.23 0.21 0.22 0.24 0.21 0.41 0.90 1.12 1.24
0.06 0.07 0.07 0.10 0.15 0.19 0.23 0.23 0.30 0.32 0.40 0.55 0.56 0.58 0.57 0.52 0.31 0.28 0.24 0.25 0.27 0.28 0.16 0.12 0.04 0.05 0.12 0.24 0.28 0.25 0.12 0.09 0.09 0.14 0.36 0.37 0.48 0.73

GFSNE_prec_precacc_108.txt.gz
Total_Precipitation_Accumulation
0.23 0.24 0.23 0.20 0.24 0.28 0.37 0.53 0.80 0.85 0.62 0.54 0.49 0.44 0.43 0.46 0.51 0.49 0.43 0.58 0.62 0.58 0.56 0.50 0.47 0.45 0.46 0.53 0.63 0.72 0.84 1.11 1.15 1.06 1.12 1.22 1.30 1.32
0.28 0.34 0.36 0.34 0.31 0.28 0.26 0.28 0.41 0.60 0.63 0.47 0.52 0.61 0.66 0.62 0.63 0.52 0.48 0.58 0.55 0.51 0.45 0.42 0.43 0.42 0.42 0.49 0.46 0.43 0.46 0.60 0.74 0.76 0.87 1.10 1.24 1.25
0.16 0.22 0.29 0.27 0.30 0.32 0.40 0.54 0.69 0.82 0.91 0.74 0.68 0.62 0.53 0.46 0.41 0.35 0.33 0.27 0.29 0.33 0.31 0.27 0.22 0.24 0.27 0.31 0.36 0.45 0.49 0.65 0.81 0.75 0.73 0.86 0.92 0.97
0.07 0.10 0.14 0.16 0.21 0.25 0.34 0.43 0.50 0.58 0.64 0.62 0.48 0.42 0.34 0.29 0.29 0.22 0.16 0.17 0.14 0.15 0.15 0.14 0.14 0.14 0.15 0.16 0.20 0.31 0.44 0.55 0.70 0.78 0.77 0.74 0.67 0.72
0.13 0.16 0.21 0.23 0.29 0.31 0.31 0.32 0.32 0.29 0.27 0.31 0.27 0.20 0.20 0.16 0.13 0.08 0.05 0.06 0.05 0.10 0.12 0.14 0.14 0.13 0.13 0.16 0.21 0.28 0.38 0.50 0.59 0.64 0.70 0.82 0.89 0.86
0.21 0.27 0.29 0.31 0.31 0.31 0.32 0.32 0.28 0.20 0.15 0.18 0.23 0.18 0.12 0.08 0.07 0.05 0.04 0.04 0.04 0.03 0.06 0.12 0.15 0.16 0.15 0.18 0.21 0.26 0.28 0.34 0.47 0.56 0.62 0.68 0.72 0.72
0.31 0.31 0.33 0.36 0.33 0.27 0.23 0.18 0.13 0.12 0.23 0.39 0.35 0.31 0.18 0.06 0.04 0.05 0.07 0.06 0.05 0.04 0.06 0.11 0.11 0.10 0.09 0.16 0.25 0.28 0.31 0.37 0.51 0.71 0.84 0.93 1.02 1.04
0.36 0.33 0.31 0.28 0.20 0.15 0.13 0.12 0.11 0.24 0.38 0.54 0.42 0.17 0.04 0.03 0.04 0.13 0.27 0.29 0.21 0.03 0.05 0.05 0.05 0.06 0.08 0.15 0.24 0.25 0.31 0.41 0.47 0.56 0.64 0.66 0.69 0.77
0.29 0.22 0.13 0.09 0.08 0.05 0.03 0.08 0.20 0.33 0.29 0.16 0.09 0.07 0.08 0.13 0.42 0.49 0.31 0.27 0.16 0.03 0.09 0.13 0.08 0.10 0.13 0.16 0.24 0.29 0.36 0.45 0.52 0.57 0.56 0.58 0.63 0.63
0.07 0.03 0.01 0.02 0.03 0.04 0.09 0.31 0.24 0.09 0.01 0.02 0.05 0.11 0.25 0.29 0.26 0.30 0.21 0.18 0.10 0.05 0.11 0.29 0.11 0.11 0.08 0.16 0.30 0.24 0.30 0.42 0.55 0.62 0.62 0.58 0.56 0.66
0.00 0.00 0.04 0.03 0.03 0.12 0.29 0.27 0.05 0.00 0.00 0.05 0.15 0.13 0.07 0.03 0.04 0.29 0.39 0.39 0.26 0.05 0.06 0.22 0.16 0.13 0.11 0.17 0.33 0.39 0.42 0.45 0.44 0.40 0.39 0.40 0.48 0.53
0.01 0.02 0.03 0.03 0.08 0.35 0.18 0.06 0.09 0.04 0.14 0.10 0.02 0.00 0.01 0.02 0.07 0.17 0.48 0.97 0.49 0.39 0.07 0.48 0.30 0.24 0.58 0.20 0.34 0.44 0.42 0.44 0.40 0.39 0.37 0.38 0.42 0.46
0.09 0.02 0.01 0.09 0.29 0.14 0.05 0.04 0.06 0.07 0.07 0.02 0.00 0.00 0.01 0.01 0.04 0.08 0.23 0.88 1.15 0.71 0.12 1.01 1.02 0.29 0.67 0.36 0.38 0.47 0.44 0.51 0.59 0.70 0.79 0.64 0.58 0.59
0.04 0.02 0.10 0.24 0.06 0.01 0.01 0.03 0.06 0.04 0.01 0.02 0.03 0.02 0.02 0.03 0.03 0.04 0.09 0.21 0.46 0.83 0.34 0.60 1.42 0.57 0.93 0.70 0.48 0.48 0.49 0.64 0.93 1.16 1.26 0.79 0.72 0.68
0.07 0.18 0.17 0.03 0.00 0.00 0.01 0.01 0.02 0.01 0.05 0.14 0.10 0.05 0.04 0.05 0.05 0.07 0.12 0.17 0.22 0.28 0.35 0.43 0.86 0.82 1.05 0.96 0.62 0.44 0.63 0.73 0.85 1.00 1.08 1.14 0.99 0.71
0.19 0.19 0.01 0.00 0.00 0.00 0.00 0.00 0.00 0.02 0.11 0.24 0.20 0.08 0.04 0.06 0.08 0.17 0.37 0.30 0.42 0.30 0.34 0.44 0.58 0.80 0.85 0.56 0.70 0.63 0.58 0.92 0.91 0.93 0.90 1.07 1.09 0.71
0.08 0.00 0.00 0.00 0.00 0.00 0.00 0.00 0.00 0.01 0.08 0.10 0.18 0.17 0.10 0.10 0.12 0.21 0.47 0.63 0.72 0.53 0.46 0.41 0.32 0.32 0.44 0.50 0.62 0.49 0.54 0.71 1.02 1.05 0.87 1.05 0.99 0.83
0.00 0.00 0.01 0.01 0.02 0.01 0.02 0.02 0.01 0.03 0.09 0.19 0.19 0.20 0.30 0.29 0.32 0.31 0.52 0.75 0.74 0.56 0.56 0.46 0.34 0.31 0.31 0.31 0.48 0.73 0.69 0.77 1.00 0.90 0.80 0.86 0.94 1.00
0.01 0.03 0.03 0.02 0.02 0.02 0.04 0.07 0.08 0.05 0.16 0.30 0.35 0.38 0.42 0.35 0.37 0.47 0.56 0.60 0.58 0.50 0.39 0.27 0.35 0.61 0.71 0.34 0.27 0.61 1.17 0.99 0.75 0.66 0.60 0.62 0.82 0.89
0.04 0.05 0.03 0.03 0.03 0.06 0.09 0.14 0.17 0.13 0.19 0.30 0.43 0.44 0.50 0.59 0.52 0.54 0.57 0.62 0.58 0.39 0.16 0.07 0.14 0.51 1.06 0.89 0.73 0.60 0.69 0.93 0.81 0.82 0.75 0.63 0.79 0.65
0.05 0.03 0.02 0.03 0.06 0.10 0.13 0.17 0.20 0.33 0.51 0.58 0.44 0.50 0.50 0.70 0.56 0.48 0.49 0.39 0.32 0.25 0.17 0.05 0.06 0.25 0.46 0.47 0.46 0.31 0.50 0.55 0.61 0.89 0.81 0.64 0.52 0.30
0.03 0.05 0.03 0.04 0.10 0.16 0.20 0.21 0.26 0.26 0.36 0.39 0.47 0.55 0.58 0.66 0.68 0.48 0.31 0.31 0.19 0.20 0.16 0.04 0.01 0.11 0.21 0.43 0.32 0.23 0.21 0.22 0.24 0.21 0.41 0.90 1.12 1.24
0.06 0.07 0.07 0.11 0.16 0.20 0.24 0.25 0.32 0.32 0.40 0.56 0.57 0.58 0.58 0.52 0.31 0.28 0.24 0.25 0.27 0.28 0.16 0.12 0.04 0.05 0.12 0.24 0.28 0.25 0.12 0.09 0.09 0.14 0.36 0.37 0.48 0.73

GFSNE_prec_precacc_111.txt.gz
Total_Precipitation_Accumulation
0.23 0.24 0.23 0.20 0.24 0.28 0.37 0.53 0.80 0.85 0.62 0.54 0.49 0.44 0.43 0.46 0.51 0.49 0.43 0.58 0.62 0.59 0.57 0.50 0.47 0.45 0.46 0.53 0.64 0.73 0.85 1.11 1.15 1.06 1.14 1.26 1.43 1.48
0.28 0.34 0.36 0.34 0.31 0.28 0.26 0.28 0.41 0.60 0.63 0.47 0.52 0.61 0.66 0.62 0.63 0.52 0.48 0.58 0.55 0.51 0.45 0.42 0.43 0.42 0.42 0.49 0.47 0.44 0.47 0.60 0.74 0.77 0.91 1.17 1.44 1.58
0.16 0.22 0.29 0.27 0.30 0.32 0.40 0.54 0.69 0.82 0.91 0.74 0.68 0.62 0.53 0.46 0.41 0.35 0.33 0.27 0.29 0.34 0.32 0.27 0.22 0.24 0.27 0.31 0.36 0.47 0.52 0.65 0.84 0.81 0.78 0.94 1.13 1.30
0.07 0.10 0.14 0.16 0.21 0.25 0.34 0.43 0.50 0.58 0.64 0.62 0.48 0.42 0.34 0.29 0.29 0.22 0.16 0.17 0.15 0.16 0.16 0.14 0.14 0.14 0.15 0.16 0.21 0.34 0.50 0.60 0.77 0.90 0.85 0.81 0.72 0.76
0.13 0.16 0.21 0.23 0.29 0.31 0.31 0.32 0.32 0.29 0.27 0.31 0.27 0.20 0.20 0.16 0.13 0.08 0.05 0.06 0.05 0.11 0.13 0.14 0.14 0.13 0.13 0.16 0.21 0.30 0.45 0.63 0.71 0.74 0.76 0.88 0.96 0.89
0.21 0.27 0.29 0.31 0.31 0.31 0.32 0.32 0.28 0.20 0.15 0.18 0.23 0.18 0.12 0.08 0.07 0.05 0.04 0.04 0.04 0.03 0.06 0.12 0.15 0.16 0.15 0.18 0.21 0.26 0.31 0.40 0.59 0.68 0.75 0.74 0.79 0.78
0.31 0.31 0.33 0.36 0.33 0.27 0.23 0.18 0.13 0.12 0.23 0.39 0.35 0.31 0.18 0.06 0.04 0.05 0.07 0.06 0.05 0.04 0.06 0.11 0.11 0.10 0.09 0.16 0.25 0.28 0.31 0.37 0.52 0.73 0.86 0.97 1.03 1.06
0.36 0.33 0.31 0.28 0.20 0.15 0.13 0.12 0.11 0.24 0.38 0.54 0.42 0.17 0.04 0.03 0.04 0.14 0.27 0.29 0.21 0.03 0.05 0.05 0.05 0.06 0.08 0.15 0.24 0.25 0.31 0.41 0.47 0.56 0.64 0.66 0.70 0.77
0.29 0.22 0.13 0.09 0.08 0.05 0.03 0.08 0.20 0.33 0.29 0.16 0.09 0.07 0.08 0.13 0.42 0.49 0.31 0.27 0.16 0.03 0.09 0.13 0.08 0.10 0.13 0.16 0.24 0.29 0.36 0.45 0.52 0.57 0.56 0.58 0.63 0.63
0.07 0.03 0.01 0.02 0.03 0.04 0.09 0.31 0.24 0.09 0.01 0.02 0.05 0.11 0.25 0.29 0.26 0.30 0.22 0.18 0.10 0.05 0.11 0.29 0.11 0.11 0.08 0.16 0.30 0.24 0.30 0.42 0.55 0.62 0.62 0.58 0.56 0.66
0.00 0.00 0.04 0.03 0.03 0.12 0.29 0.27 0.05 0.00 0.00 0.05 0.15 0.13 0.07 0.03 0.04 0.29 0.39 0.39 0.26 0.05 0.06 0.22 0.16 0.13 0.11 0.17 0.33 0.39 0.42 0.45 0.44 0.40 0.39 0.40 0.48 0.53
0.01 0.02 0.03 0.03 0.08 0.35 0.18 0.06 0.09 0.04 0.14 0.10 0.02 0.00 0.01 0.02 0.07 0.17 0.48 0.97 0.49 0.39 0.07 0.48 0.30 0.24 0.58 0.20 0.34 0.44 0.42 0.44 0.40 0.39 0.37 0.38 0.42 0.46
0.09 0.02 0.01 0.09 0.29 0.14 0.05 0.04 0.06 0.07 0.07 0.02 0.00 0.00 0.01 0.01 0.04 0.08 0.23 0.88 1.15 0.71 0.12 1.01 1.02 0.29 0.67 0.36 0.38 0.47 0.44 0.51 0.59 0.70 0.79 0.64 0.58 0.59
0.04 0.02 0.10 0.24 0.06 0.01 0.01 0.03 0.06 0.04 0.01 0.02 0.03 0.02 0.02 0.03 0.03 0.04 0.09 0.21 0.46 0.83 0.34 0.60 1.42 0.57 0.93 0.70 0.48 0.48 0.49 0.64 0.93 1.16 1.26 0.79 0.72 0.68
0.07 0.18 0.17 0.03 0.00 0.00 0.01 0.01 0.02 0.01 0.05 0.14 0.10 0.05 0.04 0.05 0.05 0.07 0.12 0.17 0.22 0.28 0.35 0.43 0.86 0.82 1.05 0.96 0.62 0.44 0.63 0.73 0.85 1.00 1.08 1.14 0.99 0.71
0.19 0.19 0.01 0.00 0.00 0.00 0.00 0.00 0.00 0.02 0.11 0.24 0.20 0.08 0.04 0.06 0.08 0.17 0.37 0.30 0.42 0.30 0.34 0.44 0.58 0.80 0.85 0.56 0.70 0.63 0.58 0.92 0.91 0.93 0.90 1.07 1.09 0.71
0.08 0.00 0.00 0.00 0.00 0.00 0.00 0.00 0.00 0.01 0.08 0.10 0.18 0.17 0.10 0.10 0.12 0.21 0.47 0.63 0.72 0.53 0.46 0.41 0.32 0.32 0.44 0.50 0.62 0.49 0.54 0.71 1.02 1.05 0.87 1.05 0.99 0.83
0.00 0.00 0.01 0.01 0.02 0.01 0.02 0.02 0.01 0.03 0.09 0.19 0.19 0.20 0.30 0.29 0.32 0.31 0.52 0.75 0.74 0.56 0.56 0.46 0.34 0.31 0.31 0.31 0.48 0.73 0.69 0.77 1.00 0.90 0.80 0.86 0.94 1.00
0.01 0.03 0.03 0.02 0.02 0.02 0.04 0.07 0.08 0.05 0.16 0.30 0.35 0.38 0.42 0.35 0.37 0.47 0.56 0.60 0.58 0.50 0.39 0.27 0.35 0.61 0.71 0.34 0.27 0.61 1.17 0.99 0.75 0.66 0.60 0.62 0.82 0.89
0.04 0.05 0.03 0.03 0.03 0.06 0.09 0.14 0.17 0.13 0.19 0.30 0.43 0.44 0.50 0.59 0.52 0.54 0.57 0.62 0.58 0.39 0.16 0.07 0.14 0.51 1.06 0.89 0.73 0.60 0.69 0.93 0.81 0.82 0.75 0.63 0.79 0.65
0.05 0.03 0.02 0.03 0.06 0.10 0.13 0.17 0.20 0.33 0.51 0.58 0.44 0.50 0.50 0.70 0.56 0.48 0.49 0.39 0.32 0.25 0.17 0.05 0.06 0.25 0.46 0.47 0.46 0.31 0.50 0.55 0.61 0.89 0.81 0.64 0.52 0.30
0.03 0.05 0.03 0.04 0.10 0.16 0.20 0.21 0.26 0.26 0.36 0.40 0.47 0.55 0.58 0.66 0.68 0.48 0.31 0.31 0.19 0.20 0.16 0.04 0.01 0.11 0.21 0.43 0.32 0.23 0.21 0.22 0.24 0.21 0.41 0.90 1.12 1.24
0.06 0.07 0.07 0.11 0.17 0.21 0.26 0.26 0.32 0.33 0.41 0.57 0.58 0.59 0.59 0.53 0.32 0.28 0.24 0.25 0.27 0.28 0.16 0.12 0.04 0.05 0.12 0.24 0.28 0.25 0.12 0.09 0.09 0.14 0.36 0.37 0.48 0.73

GFSNE_prec_precacc_114.txt.gz
Total_Precipitation_Accumulation
0.26 0.28 0.27 0.22 0.24 0.28 0.37 0.53 0.80 0.85 0.62 0.54 0.49 0.44 0.43 0.46 0.51 0.49 0.43 0.59 0.63 0.59 0.57 0.50 0.47 0.45 0.46 0.53 0.64 0.73 0.85 1.11 1.16 1.06 1.14 1.27 1.48 1.65
0.31 0.36 0.36 0.34 0.31 0.28 0.26 0.28 0.41 0.60 0.63 0.47 0.52 0.61 0.66 0.62 0.63 0.52 0.48 0.58 0.56 0.51 0.45 0.42 0.43 0.42 0.42 0.49 0.47 0.44 0.47 0.61 0.75 0.78 0.91 1.19 1.48 1.74
0.16 0.22 0.29 0.27 0.30 0.32 0.40 0.54 0.69 0.82 0.91 0.74 0.68 0.62 0.53 0.46 0.41 0.35 0.33 0.27 0.29 0.35 0.32 0.27 0.22 0.24 0.27 0.31 0.36 0.47 0.53 0.66 0.84 0.82 0.80 0.98 1.24 1.72
0.08 0.10 0.14 0.16 0.21 0.25 0.34 0.43 0.50 0.58 0.64 0.62 0.48 0.42 0.34 0.29 0.29 0.22 0.16 0.17 0.15 0.18 0.16 0.14 0.14 0.14 0.15 0.16 0.21 0.35 0.52 0.64 0.78 0.93 0.94 0.93 0.89 1.23
0.13 0.16 0.21 0.23 0.29 0.31 0.31 0.32 0.32 0.29 0.27 0.31 0.27 0.20 0.20 0.16 0.13 0.08 0.05 0.06 0.05 0.11 0.13 0.14 0.14 0.13 0.13 0.16 0.21 0.31 0.47 0.70 0.82 0.80 0.89 1.01 1.15 1.04
0.21 0.27 0.29 0.31 0.31 0.31 0.32 0.32 0.28 0.20 0.15 0.18 0.23 0.18 0.12 0.08 0.07 0.05 0.04 0.04 0.04 0.03 0.07 0.13 0.15 0.16 0.15 0.18 0.21 0.26 0.32 0.43 0.69 0.77 0.85 0.82 0.91 0.90
0.31 0.31 0.33 0.36 0.33 0.27 0.23 0.18 0.13 0.12 0.23 0.39 0.35 0.31 0.18 0.06 0.04 0.05 0.07 0.06 0.05 0.04 0.06 0.11 0.11 0.10 0.09 0.16 0.25 0.28 0.31 0.39 0.56 0.82 0.96 1.15 1.14 1.20
0.36 0.33 0.31 0.28 0.20 0.15 0.13 0.12 0.11 0.24 0.38 0.54 0.42 0.17 0.04 0.03 0.04 0.14 0.28 0.29 0.21 0.03 0.05 0.05 0.05 0.06 0.08 0.15 0.24 0.25 0.31 0.41 0.47 0.59 0.78 0.75 0.84 0.81
0.29 0.22 0.13 0.09 0.08 0.05 0.03 0.08 0.20 0.33 0.29 0.16 0.09 0.07 0.08 0.13 0.42 0.49 0.31 0.27 0.16 0.03 0.09 0.13 0.08 0.10 0.13 0.16 0.24 0.29 0.36 0.45 0.52 0.57 0.58 0.61 0.63 0.63
0.07 0.03 0.01 0.02 0.03 0.04 0.09 0.31 0.24 0.09 0.01 0.02 0.05 0.11 0.25 0.29 0.26 0.30 0.22 0.18 0.10 0.05 0.11 0.29 0.11 0.11 0.08 0.16 0.30 0.24 0.30 0.42 0.55 0.62 0.62 0.58 0.56 0.66
0.00 0.00 0.04 0.03 0.03 0.12 0.29 0.27 0.05 0.00 0.00 0.05 0.15 0.13 0.07 0.04 0.05 0.29 0.39 0.39 0.26 0.05 0.06 0.22 0.16 0.13 0.11 0.17 0.33 0.39 0.42 0.45 0.44 0.40 0.39 0.40 0.48 0.53
0.01 0.02 0.03 0.03 0.08 0.35 0.18 0.06 0.09 0.04 0.14 0.10 0.02 0.00 0.01 0.02 0.07 0.17 0.48 0.97 0.49 0.39 0.07 0.48 0.30 0.24 0.58 0.20 0.34 0.44 0.42 0.44 0.40 0.39 0.37 0.38 0.42 0.46
0.09 0.02 0.01 0.09 0.29 0.14 0.05 0.04 0.06 0.07 0.07 0.02 0.00 0.00 0.01 0.01 0.04 0.08 0.23 0.88 1.15 0.71 0.12 1.01 1.02 0.29 0.67 0.36 0.38 0.47 0.44 0.51 0.59 0.70 0.79 0.64 0.58 0.59
0.04 0.02 0.10 0.24 0.06 0.01 0.01 0.03 0.06 0.04 0.01 0.02 0.03 0.02 0.02 0.03 0.03 0.04 0.09 0.21 0.46 0.83 0.34 0.60 1.42 0.57 0.93 0.70 0.48 0.48 0.49 0.64 0.93 1.16 1.26 0.79 0.72 0.68
0.07 0.18 0.17 0.03 0.00 0.00 0.01 0.01 0.02 0.01 0.05 0.14 0.10 0.05 0.04 0.05 0.05 0.07 0.12 0.17 0.22 0.28 0.35 0.43 0.86 0.82 1.05 0.96 0.62 0.44 0.63 0.73 0.85 1.00 1.08 1.14 0.99 0.71
0.19 0.19 0.01 0.00 0.00 0.00 0.00 0.00 0.00 0.02 0.11 0.24 0.20 0.08 0.04 0.06 0.08 0.17 0.37 0.30 0.42 0.30 0.34 0.44 0.58 0.80 0.85 0.56 0.70 0.63 0.58 0.92 0.91 0.93 0.90 1.07 1.09 0.71
0.08 0.00 0.00 0.00 0.00 0.00 0.00 0.00 0.00 0.01 0.08 0.10 0.18 0.17 0.10 0.10 0.12 0.21 0.47 0.63 0.72 0.53 0.46 0.41 0.32 0.32 0.44 0.50 0.62 0.49 0.54 0.71 1.02 1.05 0.87 1.05 0.99 0.83
0.00 0.00 0.01 0.01 0.02 0.01 0.02 0.02 0.01 0.03 0.09 0.19 0.19 0.20 0.30 0.29 0.32 0.31 0.52 0.75 0.74 0.56 0.56 0.46 0.34 0.31 0.31 0.31 0.48 0.73 0.69 0.77 1.00 0.90 0.80 0.86 0.94 1.00
0.01 0.03 0.03 0.02 0.02 0.02 0.04 0.07 0.08 0.05 0.16 0.30 0.35 0.38 0.42 0.35 0.37 0.47 0.56 0.60 0.58 0.50 0.39 0.27 0.35 0.61 0.71 0.34 0.27 0.61 1.17 0.99 0.75 0.66 0.60 0.62 0.82 0.89
0.04 0.05 0.03 0.03 0.03 0.06 0.09 0.14 0.17 0.13 0.19 0.30 0.43 0.44 0.50 0.59 0.52 0.54 0.57 0.62 0.58 0.39 0.16 0.07 0.14 0.51 1.06 0.89 0.73 0.60 0.69 0.93 0.81 0.82 0.75 0.63 0.79 0.65
0.05 0.03 0.02 0.03 0.06 0.10 0.13 0.17 0.20 0.33 0.51 0.58 0.44 0.50 0.50 0.70 0.56 0.48 0.49 0.39 0.32 0.25 0.17 0.05 0.06 0.25 0.46 0.47 0.46 0.31 0.50 0.55 0.61 0.89 0.81 0.64 0.52 0.30
0.03 0.05 0.03 0.04 0.10 0.16 0.20 0.21 0.26 0.26 0.36 0.40 0.47 0.55 0.59 0.66 0.68 0.48 0.31 0.31 0.19 0.20 0.16 0.04 0.01 0.11 0.21 0.43 0.32 0.23 0.21 0.22 0.24 0.21 0.41 0.90 1.12 1.24
0.06 0.08 0.08 0.12 0.17 0.22 0.27 0.28 0.33 0.34 0.42 0.58 0.59 0.60 0.60 0.55 0.33 0.29 0.25 0.25 0.27 0.28 0.16 0.12 0.04 0.05 0.12 0.24 0.28 0.25 0.12 0.09 0.09 0.14 0.36 0.37 0.48 0.73

GFSNE_prec_precacc_117.txt.gz
Total_Precipitation_Accumulation
0.39 0.35 0.30 0.24 0.26 0.29 0.38 0.53 0.80 0.85 0.62 0.54 0.49 0.44 0.43 0.46 0.51 0.49 0.43 0.59 0.63 0.59 0.57 0.50 0.47 0.45 0.46 0.53 0.64 0.73 0.85 1.12 1.16 1.07 1.15 1.27 1.48 1.69
0.34 0.42 0.41 0.36 0.32 0.28 0.26 0.28 0.41 0.60 0.63 0.47 0.52 0.61 0.66 0.62 0.63 0.52 0.48 0.58 0.56 0.51 0.45 0.42 0.43 0.42 0.42 0.49 0.47 0.44 0.47 0.61 0.75 0.78 0.92 1.19 1.49 1.76
0.17 0.24 0.30 0.27 0.30 0.32 0.40 0.54 0.69 0.82 0.91 0.74 0.68 0.62 0.53 0.46 0.41 0.35 0.33 0.27 0.29 0.35 0.32 0.27 0.22 0.24 0.27 0.31 0.36 0.47 0.53 0.67 0.85 0.82 0.81 0.99 1.25 1.77
0.09 0.11 0.15 0.16 0.21 0.25 0.34 0.43 0.50 0.58 0.64 0.62 0.48 0.42 0.34 0.29 0.29 0.22 0.16 0.17 0.15 0.18 0.16 0.14 0.14 0.14 0.15 0.16 0.21 0.35 0.52 0.65 0.80 0.93 0.94 0.94 0.94 1.36
0.13 0.16 0.21 0.23 0.29 0.31 0.31 0.32 0.32 0.29 0.27 0.31 0.27 0.20 0.20 0.16 0.13 0.08 0.05 0.06 0.05 0.11 0.13 0.14 0.14 0.13 0.13 0.16 0.21 0.31 0.47 0.74 0.91 0.83 0.91 1.06 1.20 1.14
0.22 0.27 0.30 0.31 0.31 0.31 0.32 0.32 0.28 0.20 0.15 0.18 0.23 0.18 0.12 0.08 0.07 0.05 0.04 0.04 0.04 0.03 0.07 0.13 0.15 0.16 0.15 0.18 0.21 0.26 0.32 0.46 0.82 0.87 0.94 0.96 1.27 1.13
0.31 0.31 0.33 0.36 0.33 0.27 0.23 0.18 0.13 0.12 0.23 0.39 0.35 0.31 0.18 0.06 0.04 0.05 0.07 0.06 0.05 0.04 0.06 0.11 0.11 0.10 0.09 0.16 0.25 0.28 0.31 0.40 0.61 0.90 1.03 1.33 1.29 1.38
0.36 0.33 0.31 0.28 0.20 0.15 0.13 0.12 0.11 0.24 0.38 0.54 0.42 0.17 0.04 0.03 0.04 0.14 0.28 0.29 0.21 0.03 0.05 0.05 0.05 0.06 0.08 0.15 0.24 0.25 0.31 0.41 0.48 0.63 0.82 0.83 0.99 0.96
0.29 0.22 0.13 0.09 0.08 0.05 0.03 0.08 0.20 0.33 0.29 0.16 0.09 0.07 0.08 0.13 0.42 0.49 0.31 0.27 0.16 0.03 0.09 0.13 0.08 0.10 0.13 0.16 0.24 0.29 0.36 0.45 0.52 0.58 0.61 0.69 0.75 0.75
0.07 0.03 0.01 0.02 0.03 0.04 0.09 0.31 0.24 0.09 0.01 0.02 0.05 0.11 0.25 0.29 0.26 0.30 0.22 0.18 0.10 0.05 0.11 0.29 0.11 0.11 0.08 0.16 0.30 0.24 0.30 0.42 0.55 0.62 0.62 0.58 0.57 0.67
0.00 0.00 0.04 0.03 0.03 0.12 0.29 0.27 0.05 0.00 0.00 0.05 0.15 0.13 0.07 0.04 0.05 0.29 0.39 0.39 0.26 0.05 0.06 0.22 0.16 0.13 0.11 0.17 0.33 0.39 0.42 0.45 0.44 0.40 0.39 0.40 0.48 0.53
0.01 0.02 0.03 0.03 0.08 0.35 0.18 0.06 0.09 0.04 0.14 0.10 0.02 0.00 0.01 0.02 0.07 0.17 0.48 0.97 0.49 0.39 0.07 0.48 0.30 0.24 0.58 0.20 0.34 0.44 0.42 0.44 0.40 0.39 0.37 0.38 0.42 0.46
0.09 0.02 0.01 0.09 0.29 0.14 0.05 0.04 0.06 0.07 0.07 0.02 0.00 0.00 0.01 0.01 0.04 0.08 0.23 0.88 1.15 0.71 0.12 1.01 1.02 0.29 0.67 0.36 0.38 0.47 0.44 0.51 0.59 0.70 0.79 0.64 0.58 0.59
0.04 0.02 0.10 0.24 0.06 0.01 0.01 0.03 0.06 0.04 0.01 0.02 0.03 0.02 0.02 0.03 0.03 0.04 0.09 0.21 0.46 0.83 0.34 0.60 1.42 0.57 0.93 0.70 0.48 0.48 0.49 0.64 0.93 1.16 1.26 0.79 0.72 0.68
0.07 0.18 0.17 0.03 0.00 0.00 0.01 0.01 0.02 0.01 0.05 0.14 0.10 0.05 0.04 0.05 0.05 0.07 0.12 0.17 0.22 0.28 0.35 0.43 0.86 0.82 1.05 0.96 0.62 0.44 0.63 0.73 0.85 1.00 1.08 1.14 0.99 0.71
0.19 0.19 0.01 0.00 0.00 0.00 0.00 0.00 0.00 0.02 0.11 0.24 0.20 0.08 0.04 0.06 0.08 0.17 0.37 0.30 0.42 0.30 0.34 0.44 0.58 0.80 0.85 0.56 0.70 0.63 0.58 0.92 0.91 0.93 0.90 1.07 1.09 0.71
0.08 0.00 0.00 0.00 0.00 0.00 0.00 0.00 0.00 0.01 0.08 0.10 0.18 0.17 0.10 0.10 0.12 0.21 0.47 0.63 0.72 0.53 0.46 0.41 0.32 0.32 0.44 0.50 0.62 0.49 0.54 0.71 1.02 1.05 0.87 1.05 0.99 0.83
0.00 0.01 0.02 0.01 0.02 0.01 0.02 0.02 0.01 0.03 0.09 0.19 0.19 0.20 0.30 0.29 0.32 0.31 0.52 0.75 0.74 0.56 0.56 0.46 0.34 0.31 0.31 0.31 0.48 0.73 0.69 0.77 1.00 0.90 0.80 0.86 0.94 1.00
0.04 0.07 0.06 0.03 0.02 0.02 0.04 0.07 0.08 0.05 0.16 0.30 0.35 0.38 0.42 0.35 0.37 0.47 0.56 0.60 0.58 0.50 0.39 0.27 0.35 0.61 0.71 0.34 0.27 0.61 1.17 0.99 0.75 0.66 0.60 0.62 0.82 0.89
0.13 0.15 0.07 0.04 0.03 0.06 0.09 0.14 0.17 0.13 0.19 0.30 0.43 0.44 0.50 0.59 0.52 0.54 0.57 0.62 0.58 0.39 0.16 0.07 0.14 0.51 1.06 0.89 0.73 0.60 0.69 0.93 0.81 0.82 0.75 0.63 0.79 0.65
0.10 0.07 0.03 0.03 0.06 0.10 0.13 0.17 0.20 0.33 0.51 0.58 0.44 0.50 0.50 0.70 0.56 0.48 0.49 0.39 0.32 0.25 0.17 0.05 0.06 0.25 0.46 0.47 0.46 0.31 0.50 0.55 0.61 0.89 0.81 0.64 0.52 0.30
0.05 0.05 0.03 0.04 0.10 0.16 0.20 0.21 0.26 0.26 0.36 0.40 0.47 0.55 0.59 0.66 0.68 0.48 0.31 0.31 0.19 0.20 0.16 0.04 0.01 0.11 0.21 0.43 0.32 0.23 0.21 0.22 0.24 0.21 0.41 0.90 1.12 1.24
0.11 0.10 0.08 0.12 0.17 0.23 0.28 0.28 0.34 0.34 0.43 0.59 0.59 0.61 0.61 0.56 0.34 0.30 0.26 0.26 0.28 0.29 0.17 0.13 0.05 0.06 0.12 0.24 0.28 0.25 0.12 0.09 0.09 0.14 0.36 0.37 0.48 0.73

GFSNE_prec_precacc_120.txt.gz
Total_Precipitation_Accumulation
0.40 0.41 0.38 0.33 0.34 0.33 0.41 0.56 0.82 0.85 0.62 0.54 0.49 0.44 0.43 0.46 0.51 0.49 0.43 0.59 0.63 0.59 0.57 0.50 0.47 0.45 0.46 0.53 0.64 0.73 0.86 1.12 1.17 1.09 1.16 1.29 1.49 1.70
0.41 0.50 0.52 0.46 0.40 0.33 0.29 0.30 0.41 0.60 0.63 0.47 0.52 0.61 0.66 0.62 0.63 0.52 0.48 0.58 0.56 0.51 0.45 0.42 0.43 0.42 0.42 0.49 0.47 0.44 0.47 0.62 0.76 0.79 0.93 1.20 1.50 1.76
0.26 0.33 0.37 0.34 0.34 0.35 0.41 0.54 0.69 0.82 0.91 0.74 0.68 0.62 0.53 0.46 0.41 0.35 0.33 0.27 0.29 0.35 0.32 0.27 0.22 0.24 0.27 0.31 0.36 0.47 0.53 0.67 0.86 0.82 0.81 0.99 1.26 1.77
0.26 0.23 0.22 0.19 0.21 0.25 0.34 0.43 0.50 0.58 0.64 0.62 0.48 0.42 0.34 0.29 0.29 0.22 0.16 0.17 0.15 0.18 0.16 0.15 0.14 0.14 0.15 0.16 0.21 0.35 0.52 0.66 0.81 0.94 0.94 0.94 0.94 1.37
0.21 0.22 0.23 0.24 0.29 0.31 0.31 0.32 0.32 0.29 0.27 0.31 0.27 0.20 0.20 0.16 0.13 0.08 0.05 0.06 0.05 0.11 0.13 0.14 0.14 0.13 0.13 0.16 0.21 0.31 0.47 0.75 0.95 0.86 0.92 1.06 1.20 1.15
0.23 0.30 0.31 0.31 0.31 0.31 0.32 0.32 0.28 0.20 0.15 0.18 0.23 0.18 0.12 0.08 0.07 0.05 0.04 0.04 0.04 0.03 0.07 0.13 0.15 0.16 0.15 0.18 0.21 0.26 0.32 0.47 0.87 0.97 1.04 0.98 1.27 1.14
0.32 0.32 0.33 0.36 0.33 0.27 0.23 0.18 0.13 0.12 0.23 0.39 0.35 0.31 0.18 0.06 0.04 0.05 0.07 0.06 0.05 0.04 0.06 0.11 0.11 0.10 0.09 0.16 0.25 0.28 0.31 0.40 0.65 1.00 1.17 1.43 1.39 1.44
0.36 0.33 0.31 0.28 0.20 0.15 0.13 0.12 0.11 0.24 0.38 0.54 0.42 0.17 0.04 0.03 0.04 0.14 0.28 0.29 0.21 0.03 0.05 0.05 0.05 0.06 0.08 0.15 0.24 0.25 0.31 0.42 0.49 0.67 0.85 0.89 1.16 1.24
0.29 0.22 0.13 0.09 0.08 0.05 0.03 0.08 0.20 0.33 0.29 0.16 0.09 0.07 0.08 0.13 0.42 0.49 0.31 0.27 0.16 0.03 0.09 0.13 0.08 0.10 0.13 0.16 0.24 0.29 0.36 0.45 0.53 0.59 0.67 0.73 0.82 0.90
0.07 0.03 0.02 0.02 0.03 0.04 0.09 0.31 0.24 0.09 0.01 0.02 0.05 0.11 0.25 0.29 0.26 0.30 0.22 0.18 0.10 0.05 0.11 0.29 0.11 0.11 0.08 0.16 0.30 0.24 0.30 0.42 0.55 0.62 0.64 0.69 0.69 0.74
0.00 0.00 0.04 0.03 0.03 0.12 0.29 0.27 0.05 0.00 0.00 0.05 0.15 0.13 0.07 0.04 0.05 0.29 0.39 0.39 0.26 0.05 0.06 0.22 0.16 0.13 0.11 0.17 0.33 0.39 0.42 0.45 0.44 0.40 0.39 0.40 0.52 0.59
0.01 0.02 0.03 0.03 0.08 0.35 0.18 0.06 0.09 0.04 0.14 0.10 0.02 0.00 0.01 0.02 0.07 0.17 0.48 0.97 0.49 0.39 0.07 0.48 0.30 0.24 0.58 0.20 0.34 0.44 0.42 0.44 0.40 0.39 0.37 0.38 0.42 0.46
0.09 0.02 0.01 0.09 0.29 0.14 0.05 0.04 0.06 0.07 0.07 0.02 0.00 0.00 0.01 0.01 0.04 0.08 0.23 0.88 1.15 0.71 0.12 1.01 1.02 0.29 0.67 0.36 0.38 0.47 0.44 0.51 0.59 0.70 0.79 0.64 0.58 0.59
0.04 0.02 0.10 0.24 0.06 0.01 0.01 0.03 0.06 0.04 0.01 0.02 0.03 0.02 0.02 0.03 0.03 0.04 0.09 0.21 0.46 0.83 0.34 0.60 1.42 0.57 0.93 0.70 0.48 0.48 0.49 0.64 0.93 1.16 1.26 0.79 0.72 0.68
0.07 0.18 0.17 0.03 0.00 0.00 0.01 0.01 0.02 0.01 0.05 0.14 0.10 0.05 0.04 0.05 0.05 0.07 0.12 0.17 0.22 0.28 0.35 0.43 0.86 0.82 1.05 0.96 0.62 0.44 0.63 0.73 0.85 1.00 1.08 1.14 0.99 0.71
0.19 0.19 0.01 0.00 0.00 0.00 0.00 0.00 0.00 0.02 0.11 0.24 0.20 0.08 0.04 0.06 0.08 0.17 0.37 0.30 0.42 0.30 0.34 0.44 0.58 0.80 0.85 0.56 0.70 0.63 0.58 0.92 0.91 0.93 0.90 1.07 1.09 0.71
0.08 0.00 0.00 0.00 0.00 0.00 0.00 0.00 0.00 0.01 0.08 0.10 0.18 0.17 0.10 0.10 0.12 0.21 0.47 0.63 0.72 0.53 0.46 0.41 0.32 0.32 0.44 0.50 0.62 0.49 0.54 0.71 1.02 1.05 0.87 1.05 0.99 0.83
0.01 0.01 0.02 0.02 0.02 0.02 0.02 0.02 0.01 0.03 0.09 0.19 0.19 0.20 0.30 0.29 0.32 0.31 0.52 0.75 0.74 0.56 0.56 0.46 0.34 0.31 0.31 0.31 0.48 0.73 0.69 0.77 1.00 0.90 0.80 0.86 0.94 1.00
0.05 0.07 0.08 0.07 0.05 0.04 0.04 0.07 0.08 0.05 0.16 0.30 0.35 0.38 0.42 0.35 0.37 0.47 0.56 0.60 0.58 0.50 0.39 0.27 0.35 0.61 0.71 0.34 0.27 0.61 1.17 0.99 0.75 0.66 0.60 0.62 0.82 0.89
0.14 0.18 0.15 0.13 0.10 0.09 0.10 0.14 0.17 0.13 0.19 0.30 0.43 0.44 0.50 0.59 0.52 0.54 0.57 0.62 0.58 0.39 0.16 0.07 0.14 0.51 1.06 0.89 0.73 0.60 0.69 0.93 0.81 0.82 0.75 0.63 0.79 0.65
0.16 0.18 0.17 0.15 0.14 0.14 0.15 0.17 0.20 0.33 0.51 0.58 0.44 0.50 0.50 0.70 0.56 0.48 0.49 0.39 0.32 0.25 0.17 0.05 0.06 0.25 0.46 0.47 0.46 0.31 0.50 0.55 0.61 0.89 0.81 0.64 0.52 0.30
0.15 0.18 0.16 0.14 0.16 0.21 0.22 0.21 0.26 0.26 0.36 0.40 0.47 0.55 0.59 0.66 0.68 0.48 0.31 0.31 0.19 0.20 0.16 0.04 0.01 0.11 0.21 0.43 0.32 0.23 0.21 0.22 0.24 0.21 0.41 0.90 1.12 1.24
0.20 0.21 0.18 0.18 0.21 0.24 0.28 0.28 0.34 0.34 0.43 0.59 0.59 0.61 0.62 0.56 0.34 0.30 0.26 0.27 0.28 0.29 0.17 0.13 0.05 0.06 0.12 0.24 0.28 0.25 0.12 0.09 0.09 0.14 0.36 0.37 0.48 0.73

GFSNE_prec_precacc_123.txt.gz
Total_Precipitation_Accumulation
0.40 0.41 0.38 0.34 0.35 0.37 0.46 0.61 0.88 0.90 0.65 0.55 0.49 0.44 0.43 0.46 0.51 0.49 0.43 0.59 0.63 0.59 0.57 0.50 0.47 0.45 0.46 0.53 0.64 0.73 0.86 1.13 1.18 1.10 1.18 1.31 1.52 1.71
0.41 0.51 0.54 0.48 0.46 0.45 0.42 0.45 0.55 0.69 0.71 0.49 0.52 0.61 0.66 0.62 0.63 0.52 0.48 0.58 0.56 0.51 0.45 0.42 0.43 0.42 0.42 0.49 0.47 0.44 0.47 0.62 0.76 0.80 0.94 1.22 1.51 1.77
0.27 0.35 0.42 0.41 0.42 0.44 0.51 0.67 0.82 0.88 0.91 0.74 0.68 0.62 0.53 0.46 0.41 0.35 0.33 0.27 0.29 0.35 0.32 0.28 0.22 0.24 0.27 0.31 0.36 0.47 0.53 0.67 0.86 0.83 0.82 1.00 1.26 1.77
0.39 0.39 0.41 0.47 0.47 0.37 0.41 0.47 0.53 0.58 0.64 0.62 0.48 0.42 0.34 0.29 0.29 0.22 0.16 0.17 0.15 0.18 0.16 0.15 0.14 0.14 0.15 0.16 0.21 0.35 0.52 0.66 0.81 0.94 0.94 0.94 0.94 1.37
0.31 0.34 0.36 0.38 0.44 0.45 0.42 0.38 0.33 0.30 0.27 0.31 0.27 0.20 0.20 0.16 0.13 0.08 0.05 0.06 0.05 0.11 0.13 0.14 0.14 0.13 0.13 0.16 0.21 0.31 0.47 0.75 0.95 0.87 0.95 1.07 1.20 1.16
0.29 0.38 0.39 0.36 0.38 0.38 0.37 0.33 0.29 0.20 0.15 0.18 0.23 0.18 0.12 0.08 0.07 0.05 0.04 0.04 0.04 0.03 0.07 0.13 0.15 0.16 0.15 0.18 0.21 0.26 0.32 0.47 0.89 1.03 1.11 0.99 1.28 1.15
0.41 0.39 0.40 0.44 0.40 0.31 0.25 0.18 0.13 0.12 0.23 0.39 0.35 0.31 0.18 0.06 0.04 0.05 0.07 0.06 0.05 0.04 0.06 0.11 0.11 0.10 0.09 0.16 0.25 0.28 0.31 0.40 0.66 1.08 1.30 1.49 1.40 1.45
0.40 0.36 0.36 0.32 0.22 0.16 0.14 0.12 0.11 0.24 0.38 0.54 0.42 0.17 0.04 0.03 0.04 0.14 0.28 0.29 0.21 0.03 0.05 0.05 0.05 0.06 0.08 0.15 0.24 0.25 0.31 0.42 0.50 0.72 0.89 0.94 1.21 1.30
0.31 0.24 0.15 0.10 0.09 0.05 0.03 0.08 0.20 0.33 0.29 0.16 0.09 0.07 0.08 0.13 0.42 0.49 0.31 0.27 0.16 0.03 0.09 0.13 0.08 0.10 0.13 0.16 0.24 0.29 0.36 0.45 0.53 0.60 0.69 0.75 0.89 1.07
0.08 0.04 0.02 0.03 0.03 0.05 0.10 0.31 0.24 0.09 0.01 0.02 0.05 0.11 0.25 0.29 0.26 0.30 0.22 0.18 0.10 0.05 0.11 0.29 0.11 0.11 0.08 0.16 0.30 0.24 0.30 0.42 0.55 0.62 0.65 0.74 0.78 0.92
0.01 0.00 0.05 0.06 0.07 0.16 0.31 0.28 0.05 0.00 0.00 0.05 0.15 0.13 0.07 0.04 0.05 0.29 0.39 0.39 0.26 0.05 0.06 0.22 0.16 0.13 0.11 0.17 0.33 0.39 0.42 0.45 0.44 0.40 0.39 0.41 0.60 0.70
0.02 0.03 0.03 0.03 0.09 0.36 0.18 0.06 0.09 0.04 0.14 0.10 0.02 0.00 0.01 0.02 0.07 0.17 0.48 0.97 0.49 0.39 0.07 0.48 0.30 0.24 0.58 0.20 0.34 0.44 0.42 0.44 0.40 0.39 0.37 0.38 0.42 0.46
0.09 0.02 0.01 0.09 0.29 0.14 0.05 0.04 0.06 0.07 0.07 0.02 0.00 0.00 0.01 0.01 0.04 0.08 0.23 0.88 1.15 0.71 0.12 1.01 1.02 0.29 0.67 0.36 0.38 0.47 0.44 0.51 0.59 0.70 0.79 0.64 0.58 0.59
0.05 0.03 0.10 0.24 0.06 0.01 0.01 0.03 0.06 0.04 0.01 0.02 0.03 0.02 0.02 0.03 0.03 0.04 0.09 0.21 0.46 0.83 0.34 0.60 1.42 0.57 0.93 0.70 0.48 0.48 0.49 0.64 0.93 1.16 1.26 0.79 0.72 0.68
0.07 0.18 0.17 0.03 0.00 0.00 0.01 0.01 0.02 0.01 0.05 0.14 0.10 0.05 0.04 0.05 0.05 0.07 0.12 0.17 0.22 0.28 0.35 0.43 0.86 0.82 1.05 0.96 0.62 0.44 0.63 0.73 0.85 1.00 1.08 1.14 0.99 0.71
0.19 0.19 0.01 0.00 0.00 0.00 0.00 0.00 0.00 0.02 0.11 0.24 0.20 0.08 0.04 0.06 0.08 0.17 0.37 0.30 0.42 0.30 0.34 0.44 0.58 0.80 0.85 0.56 0.70 0.63 0.58 0.92 0.91 0.93 0.90 1.07 1.09 0.71
0.08 0.00 0.00 0.00 0.00 0.00 0.00 0.00 0.00 0.01 0.08 0.10 0.18 0.17 0.10 0.10 0.12 0.21 0.47 0.63 0.72 0.53 0.46 0.41 0.32 0.32 0.44 0.50 0.62 0.49 0.54 0.71 1.02 1.05 0.87 1.05 0.99 0.83
0.01 0.01 0.02 0.02 0.02 0.02 0.02 0.02 0.01 0.03 0.09 0.19 0.19 0.20 0.30 0.29 0.32 0.31 0.52 0.75 0.74 0.56 0.56 0.46 0.34 0.31 0.31 0.31 0.48 0.73 0.69 0.77 1.00 0.90 0.80 0.86 0.94 1.00
0.05 0.07 0.08 0.07 0.05 0.04 0.05 0.07 0.08 0.05 0.16 0.30 0.35 0.38 0.42 0.35 0.37 0.47 0.56 0.60 0.58 0.50 0.39 0.27 0.35 0.61 0.71 0.34 0.27 0.61 1.17 0.99 0.75 0.66 0.60 0.62 0.82 0.89
0.17 0.19 0.16 0.15 0.12 0.11 0.12 0.15 0.17 0.13 0.19 0.30 0.43 0.44 0.50 0.59 0.52 0.54 0.57 0.62 0.58 0.39 0.16 0.07 0.14 0.51 1.06 0.89 0.73 0.60 0.69 0.93 0.81 0.82 0.75 0.63 0.79 0.65
0.22 0.25 0.26 0.27 0.31 0.31 0.28 0.27 0.26 0.35 0.51 0.58 0.44 0.50 0.50 0.70 0.56 0.48 0.49 0.39 0.32 0.25 0.17 0.05 0.06 0.25 0.46 0.47 0.46 0.31 0.50 0.55 0.61 0.89 0.81 0.64 0.52 0.30
0.26 0.29 0.29 0.31 0.33 0.37 0.39 0.35 0.34 0.30 0.37 0.40 0.47 0.55 0.59 0.66 0.68 0.48 0.31 0.31 0.19 0.20 0.16 0.04 0.01 0.11 0.21 0.43 0.32 0.23 0.21 0.22 0.24 0.21 0.41 0.90 1.12 1.24
0.31 0.32 0.29 0.30 0.33 0.36 0.40 0.38 0.40 0.37 0.44 0.59 0.59 0.61 0.62 0.56 0.34 0.30 0.26 0.27 0.28 0.29 0.17 0.13 0.05 0.06 0.12 0.24 0.28 0.25 0.12 0.09 0.09 0.14 0.36 0.37 0.48 0.73

GFSNE_prec_precacc_126.txt.gz
Total_Precipitation_Accumulation
0.46 0.46 0.41 0.35 0.36 0.37 0.46 0.61 0.89 0.92 0.66 0.56 0.51 0.47 0.46 0.47 0.51 0.49 0.43 0.59 0.63 0.59 0.57 0.50 0.47 0.45 0.46 0.53 0.64 0.73 0.86 1.13 1.18 1.10 1.20 1.33 1.53 1.73
0.49 0.55 0.55 0.49 0.46 0.45 0.42 0.46 0.60 0.80 0.85 0.67 0.68 0.69 0.68 0.62 0.63 0.52 0.48 0.58 0.56 0.51 0.45 0.42 0.43 0.42 0.42 0.49 0.47 0.44 0.47 0.62 0.76 0.80 0.95 1.23 1.53 1.79
0.31 0.38 0.45 0.44 0.45 0.46 0.53 0.69 0.87 1.03 1.09 0.86 0.77 0.69 0.55 0.46 0.41 0.35 0.33 0.27 0.29 0.35 0.32 0.28 0.23 0.24 0.27 0.31 0.36 0.47 0.53 0.67 0.86 0.83 0.82 1.01 1.27 1.78
0.40 0.40 0.42 0.48 0.56 0.60 0.65 0.67 0.68 0.71 0.74 0.68 0.53 0.44 0.34 0.29 0.29 0.22 0.16 0.17 0.15 0.18 0.16 0.15 0.14 0.14 0.15 0.16 0.21 0.35 0.52 0.66 0.81 0.94 0.95 0.95 0.94 1.37
0.36 0.38 0.38 0.40 0.46 0.51 0.54 0.60 0.58 0.47 0.35 0.34 0.27 0.20 0.20 0.16 0.13 0.08 0.05 0.06 0.05 0.11 0.13 0.14 0.14 0.13 0.13 0.16 0.21 0.31 0.47 0.75 0.96 0.89 0.98 1.07 1.20 1.17
0.35 0.44 0.45 0.44 0.42 0.42 0.43 0.46 0.44 0.33 0.21 0.19 0.23 0.18 0.12 0.08 0.07 0.05 0.04 0.04 0.04 0.03 0.07 0.13 0.15 0.16 0.15 0.18 0.21 0.26 0.32 0.47 0.89 1.04 1.12 1.00 1.29 1.15
0.51 0.50 0.54 0.58 0.52 0.45 0.37 0.29 0.22 0.16 0.25 0.39 0.35 0.31 0.18 0.06 0.04 0.05 0.07 0.06 0.05 0.04 0.06 0.11 0.11 0.10 0.09 0.16 0.25 0.28 0.31 0.40 0.67 1.11 1.32 1.51 1.40 1.46
0.49 0.44 0.44 0.41 0.34 0.35 0.35 0.28 0.19 0.28 0.39 0.54 0.42 0.17 0.04 0.03 0.04 0.14 0.28 0.29 0.21 0.03 0.05 0.05 0.05 0.06 0.08 0.15 0.24 0.25 0.31 0.42 0.50 0.75 0.93 0.98 1.23 1.32
0.36 0.29 0.20 0.16 0.15 0.07 0.07 0.12 0.22 0.34 0.29 0.16 0.09 0.07 0.08 0.13 0.42 0.49 0.31 0.27 0.16 0.03 0.09 0.13 0.08 0.10 0.13 0.16 0.24 0.29 0.36 0.45 0.53 0.62 0.72 0.78 0.95 1.08
0.17 0.13 0.09 0.08 0.08 0.07 0.11 0.33 0.24 0.09 0.01 0.02 0.05 0.11 0.25 0.29 0.26 0.30 0.22 0.18 0.10 0.05 0.11 0.29 0.11 0.11 0.08 0.16 0.30 0.24 0.30 0.42 0.55 0.62 0.68 0.78 0.90 1.00
0.02 0.03 0.07 0.07 0.08 0.16 0.32 0.30 0.08 0.01 0.01 0.05 0.15 0.13 0.07 0.04 0.05 0.29 0.39 0.39 0.26 0.05 0.06 0.22 0.16 0.13 0.11 0.17 0.33 0.39 0.42 0.45 0.44 0.40 0.40 0.46 0.68 0.81
0.02 0.04 0.05 0.04 0.10 0.39 0.21 0.10 0.14 0.07 0.15 0.10 0.02 0.00 0.01 0.02 0.07 0.17 0.48 0.97 0.49 0.39 0.07 0.48 0.30 0.24 0.58 0.20 0.34 0.44 0.42 0.44 0.40 0.39 0.37 0.38 0.45 0.49
0.10 0.03 0.03 0.11 0.31 0.17 0.14 0.14 0.10 0.08 0.07 0.02 0.00 0.00 0.01 0.01 0.04 0.08 0.23 0.88 1.15 0.71 0.12 1.01 1.02 0.29 0.67 0.36 0.38 0.47 0.44 0.51 0.59 0.70 0.79 0.64 0.58 0.59
0.05 0.04 0.11 0.25 0.07 0.04 0.07 0.09 0.08 0.04 0.01 0.02 0.03 0.02 0.02 0.03 0.03 0.04 0.09 0.21 0.46 0.83 0.34 0.60 1.42 0.57 0.93 0.70 0.48 0.48 0.49 0.64 0.93 1.16 1.26 0.79 0.72 0.68
0.07 0.20 0.18 0.03 0.00 0.00 0.01 0.02 0.02 0.01 0.05 0.14 0.10 0.05 0.04 0.05 0.05 0.07 0.12 0.17 0.22 0.28 0.35 0.43 0.86 0.82 1.05 0.96 0.62 0.44 0.63 0.73 0.85 1.00 1.08 1.14 0.99 0.71
0.20 0.20 0.03 0.01 0.02 0.01 0.01 0.02 0.02 0.02 0.11 0.24 0.20 0.08 0.04 0.06 0.08 0.17 0.37 0.30 0.42 0.30 0.34 0.44 0.58 0.80 0.85 0.56 0.70 0.63 0.58 0.92 0.91 0.93 0.90 1.07 1.09 0.71
0.08 0.01 0.01 0.01 0.01 0.01 0.02 0.03 0.03 0.03 0.08 0.11 0.18 0.17 0.10 0.10 0.12 0.21 0.47 0.63 0.72 0.53 0.46 0.41 0.32 0.32 0.44 0.50 0.62 0.49 0.54 0.71 1.02 1.05 0.87 1.05 0.99 0.83
0.03 0.01 0.02 0.02 0.02 0.02 0.03 0.05 0.04 0.05 0.11 0.20 0.19 0.20 0.30 0.29 0.32 0.31 0.52 0.75 0.74 0.56 0.56 0.46 0.34 0.31 0.31 0.31 0.48 0.73 0.69 0.77 1.00 0.90 0.80 0.86 0.94 1.00
0.08 0.07 0.08 0.07 0.05 0.04 0.06 0.09 0.10 0.08 0.18 0.31 0.35 0.38 0.42 0.35 0.37 0.47 0.56 0.60 0.58 0.50 0.39 0.27 0.35 0.61 0.71 0.34 0.27 0.61 1.17 0.99 0.75 0.66 0.60 0.62 0.82 0.89
0.19 0.20 0.16 0.15 0.13 0.13 0.15 0.17 0.19 0.15 0.22 0.32 0.44 0.44 0.50 0.59 0.52 0.54 0.57 0.62 0.58 0.39 0.16 0.07 0.14 0.51 1.06 0.89 0.73 0.60 0.69 0.93 0.81 0.82 0.75 0.63 0.79 0.65
0.34 0.34 0.34 0.38 0.43 0.45 0.43 0.40 0.35 0.40 0.54 0.61 0.45 0.51 0.50 0.70 0.56 0.48 0.49 0.39 0.32 0.25 0.17 0.05 0.06 0.25 0.46 0.47 0.46 0.31 0.50 0.55 0.61 0.89 0.81 0.64 0.52 0.30
0.39 0.44 0.45 0.51 0.57 0.60 0.60 0.56 0.54 0.47 0.49 0.47 0.51 0.58 0.59 0.66 0.68 0.48 0.31 0.31 0.19 0.20 0.16 0.04 0.01 0.11 0.21 0.43 0.32 0.23 0.21 0.22 0.24 0.21 0.41 0.90 1.12 1.24
0.43 0.46 0.42 0.44 0.50 0.53 0.53 0.48 0.49 0.47 0.53 0.69 0.67 0.66 0.63 0.56 0.34 0.30 0.26 0.27 0.28 0.29 0.17 0.13 0.05 0.06 0.12 0.24 0.28 0.25 0.12 0.09 0.09 0.14 0.36 0.37 0.48 0.73

GFSNE_prec_precacc_129.txt.gz
Total_Precipitation_Accumulation
0.49 0.50 0.45 0.42 0.42 0.41 0.50 0.64 0.91 0.92 0.66 0.56 0.51 0.47 0.47 0.51 0.59 0.54 0.43 0.59 0.63 0.59 0.57 0.50 0.47 0.45 0.46 0.53 0.64 0.73 0.86 1.13 1.18 1.10 1.20 1.34 1.55 1.75
0.61 0.68 0.65 0.57 0.51 0.48 0.44 0.47 0.61 0.81 0.87 0.68 0.69 0.75 0.78 0.72 0.72 0.54 0.48 0.58 0.56 0.51 0.45 0.42 0.43 0.42 0.42 0.49 0.47 0.44 0.47 0.62 0.76 0.80 0.95 1.24 1.55 1.80
0.44 0.52 0.57 0.55 0.54 0.54 0.60 0.74 0.91 1.06 1.13 0.89 0.80 0.74 0.60 0.48 0.43 0.35 0.33 0.27 0.29 0.35 0.32 0.28 0.23 0.24 0.27 0.31 0.36 0.47 0.53 0.67 0.86 0.83 0.83 1.01 1.28 1.78
0.47 0.47 0.48 0.56 0.63 0.65 0.68 0.70 0.71 0.74 0.79 0.75 0.62 0.52 0.40 0.32 0.30 0.22 0.16 0.17 0.15 0.18 0.16 0.15 0.14 0.14 0.15 0.16 0.21 0.35 0.52 0.66 0.81 0.94 0.95 0.95 0.95 1.37
0.43 0.46 0.45 0.46 0.52 0.54 0.57 0.62 0.63 0.59 0.52 0.48 0.39 0.31 0.26 0.20 0.13 0.08 0.05 0.06 0.05 0.11 0.13 0.14 0.14 0.13 0.13 0.16 0.21 0.31 0.47 0.75 0.96 0.89 0.99 1.08 1.20 1.17
0.45 0.52 0.54 0.53 0.50 0.48 0.49 0.51 0.47 0.39 0.33 0.36 0.40 0.27 0.17 0.10 0.07 0.05 0.04 0.04 0.04 0.03 0.07 0.13 0.15 0.16 0.15 0.18 0.21 0.26 0.32 0.47 0.89 1.05 1.12 1.01 1.29 1.15
0.62 0.61 0.63 0.65 0.61 0.54 0.47 0.39 0.33 0.31 0.40 0.53 0.46 0.37 0.20 0.06 0.04 0.05 0.07 0.06 0.05 0.04 0.06 0.11 0.11 0.10 0.09 0.16 0.25 0.28 0.31 0.40 0.67 1.12 1.33 1.51 1.40 1.46
0.66 0.60 0.59 0.56 0.45 0.47 0.49 0.41 0.35 0.47 0.58 0.68 0.55 0.24 0.06 0.03 0.04 0.14 0.28 0.29 0.21 0.03 0.05 0.05 0.05 0.06 0.08 0.15 0.24 0.25 0.31 0.42 0.50 0.75 0.94 1.00 1.24 1.32
0.69 0.63 0.54 0.44 0.33 0.22 0.23 0.30 0.43 0.59 0.49 0.29 0.16 0.12 0.12 0.14 0.42 0.49 0.31 0.27 0.16 0.03 0.09 0.13 0.08 0.10 0.13 0.16 0.24 0.29 0.36 0.45 0.53 0.62 0.73 0.81 0.95 1.08
0.35 0.33 0.33 0.36 0.38 0.33 0.30 0.51 0.45 0.29 0.14 0.09 0.09 0.14 0.27 0.30 0.26 0.30 0.22 0.18 0.10 0.05 0.11 0.29 0.11 0.11 0.08 0.16 0.30 0.24 0.30 0.42 0.55 0.62 0.69 0.80 0.93 1.01
0.07 0.12 0.17 0.16 0.16 0.27 0.47 0.46 0.23 0.16 0.16 0.17 0.26 0.20 0.11 0.05 0.05 0.29 0.39 0.39 0.26 0.05 0.06 0.22 0.16 0.13 0.11 0.17 0.33 0.39 0.42 0.45 0.44 0.40 0.40 0.53 0.76 0.86
0.02 0.04 0.06 0.07 0.19 0.51 0.34 0.23 0.24 0.17 0.26 0.20 0.08 0.03 0.01 0.02 0.07 0.17 0.48 0.97 0.49 0.39 0.07 0.48 0.30 0.24 0.58 0.20 0.34 0.44 0.42 0.44 0.40 0.39 0.37 0.41 0.53 0.53
0.10 0.03 0.03 0.12 0.31 0.18 0.17 0.19 0.23 0.24 0.20 0.12 0.04 0.01 0.01 0.01 0.04 0.08 0.23 0.88 1.15 0.71 0.12 1.01 1.02 0.29 0.67 0.36 0.38 0.47 0.44 0.51 0.59 0.70 0.79 0.64 0.59 0.62
0.05 0.04 0.11 0.26 0.08 0.04 0.08 0.15 0.21 0.19 0.13 0.11 0.07 0.03 0.02 0.03 0.03 0.04 0.09 0.21 0.46 0.83 0.34 0.60 1.42 0.57 0.93 0.70 0.48 0.48 0.49 0.64 0.93 1.16 1.26 0.79 0.72 0.69
0.07 0.20 0.19 0.04 0.01 0.01 0.01 0.02 0.04 0.04 0.11 0.20 0.14 0.07 0.04 0.05 0.05 0.07 0.12 0.17 0.22 0.28 0.35 0.43 0.86 0.82 1.05 0.96 0.62 0.44 0.63 0.73 0.85 1.00 1.08 1.14 0.99 0.71
0.20 0.20 0.04 0.03 0.03 0.03 0.05 0.05 0.06 0.08 0.18 0.31 0.26 0.11 0.04 0.06 0.08 0.17 0.37 0.30 0.42 0.30 0.34 0.44 0.58 0.80 0.85 0.56 0.70 0.63 0.58 0.92 0.91 0.93 0.90 1.07 1.09 0.71
0.09 0.01 0.01 0.01 0.01 0.02 0.05 0.07 0.09 0.16 0.23 0.24 0.29 0.24 0.11 0.10 0.12 0.21 0.47 0.63 0.72 0.53 0.46 0.41 0.32 0.32 0.44 0.50 0.62 0.49 0.54 0.71 1.02 1.05 0.87 1.05 0.99 0.83
0.04 0.01 0.02 0.02 0.02 0.02 0.05 0.11 0.11 0.13 0.19 0.29 0.26 0.23 0.31 0.30 0.32 0.31 0.53 0.75 0.74 0.56 0.56 0.46 0.34 0.31 0.31 0.31 0.48 0.73 0.69 0.77 1.00 0.90 0.80 0.86 0.94 1.00
0.10 0.08 0.08 0.07 0.05 0.06 0.09 0.12 0.14 0.13 0.26 0.43 0.45 0.44 0.45 0.36 0.38 0.48 0.57 0.60 0.58 0.50 0.39 0.27 0.35 0.61 0.71 0.34 0.27 0.61 1.17 0.99 0.75 0.66 0.60 0.62 0.82 0.89
0.23 0.24 0.18 0.15 0.16 0.19 0.24 0.28 0.31 0.29 0.35 0.42 0.52 0.50 0.54 0.60 0.54 0.56 0.59 0.63 0.58 0.39 0.16 0.07 0.14 0.51 1.06 0.89 0.73 0.60 0.69 0.93 0.81 0.82 0.75 0.63 0.79 0.65
0.36 0.40 0.40 0.42 0.46 0.52 0.55 0.55 0.54 0.57 0.67 0.74 0.59 0.61 0.56 0.74 0.58 0.50 0.51 0.40 0.32 0.25 0.17 0.05 0.06 0.25 0.46 0.47 0.46 0.31 0.50 0.55 0.61 0.89 0.81 0.64 0.52 0.30
0.43 0.50 0.52 0.59 0.64 0.69 0.73 0.73 0.73 0.67 0.69 0.62 0.62 0.66 0.68 0.74 0.72 0.51 0.32 0.32 0.19 0.20 0.16 0.04 0.01 0.11 0.21 0.43 0.32 0.23 0.21 0.22 0.24 0.21 0.41 0.90 1.12 1.24
0.48 0.52 0.49 0.50 0.56 0.62 0.67 0.64 0.63 0.58 0.64 0.78 0.78 0.77 0.73 0.65 0.40 0.34 0.28 0.27 0.29 0.29 0.17 0.13 0.05 0.06 0.12 0.24 0.28 0.25 0.12 0.09 0.09 0.14 0.36 0.37 0.48 0.73

GFSNE_prec_precacc_132.txt.gz
Total_Precipitation_Accumulation
0.49 0.50 0.45 0.42 0.45 0.47 0.59 0.76 1.02 0.99 0.69 0.57 0.52 0.48 0.47 0.51 0.61 0.60 0.53 0.70 0.68 0.59 0.57 0.50 0.47 0.45 0.46 0.53 0.64 0.73 0.86 1.13 1.18 1.10 1.20 1.35 1.56 1.77
0.64 0.69 0.66 0.60 0.58 0.58 0.55 0.56 0.64 0.83 0.87 0.68 0.69 0.75 0.78 0.73 0.77 0.63 0.55 0.64 0.57 0.51 0.45 0.42 0.43 0.42 0.42 0.49 0.47 0.44 0.47 0.62 0.76 0.80 0.95 1.25 1.56 1.82
0.48 0.56 0.61 0.60 0.59 0.61 0.68 0.82 0.98 1.12 1.19 0.91 0.81 0.74 0.62 0.51 0.47 0.41 0.38 0.28 0.29 0.35 0.32 0.28 0.23 0.24 0.27 0.31 0.36 0.47 0.53 0.67 0.86 0.83 0.83 1.02 1.29 1.79
0.53 0.54 0.53 0.61 0.70 0.74 0.80 0.82 0.82 0.84 0.90 0.82 0.63 0.57 0.48 0.41 0.41 0.34 0.21 0.18 0.15 0.18 0.16 0.15 0.14 0.14 0.15 0.16 0.21 0.35 0.52 0.66 0.81 0.94 0.96 0.96 0.95 1.38
0.46 0.48 0.49 0.53 0.61 0.66 0.71 0.77 0.77 0.71 0.64 0.59 0.46 0.37 0.36 0.32 0.25 0.16 0.10 0.08 0.05 0.11 0.13 0.14 0.14 0.13 0.13 0.16 0.21 0.31 0.47 0.75 0.96 0.89 0.99 1.08 1.20 1.17
0.53 0.60 0.61 0.60 0.59 0.58 0.61 0.63 0.60 0.53 0.47 0.49 0.48 0.36 0.28 0.25 0.25 0.19 0.13 0.06 0.04 0.03 0.07 0.13 0.15 0.16 0.15 0.18 0.21 0.26 0.32 0.47 0.89 1.05 1.12 1.01 1.29 1.15
0.72 0.75 0.78 0.83 0.78 0.70 0.63 0.53 0.48 0.50 0.62 0.76 0.63 0.52 0.36 0.23 0.19 0.16 0.15 0.08 0.06 0.04 0.06 0.11 0.11 0.10 0.09 0.16 0.25 0.28 0.31 0.40 0.67 1.12 1.33 1.51 1.41 1.46
0.70 0.65 0.67 0.72 0.64 0.72 0.76 0.65 0.55 0.63 0.72 0.81 0.68 0.40 0.24 0.21 0.18 0.21 0.31 0.30 0.21 0.03 0.05 0.05 0.05 0.06 0.08 0.15 0.24 0.25 0.31 0.42 0.50 0.75 0.95 1.01 1.24 1.32
0.72 0.67 0.60 0.58 0.60 0.49 0.51 0.55 0.65 0.81 0.71 0.53 0.41 0.34 0.33 0.30 0.51 0.55 0.34 0.28 0.16 0.03 0.09 0.13 0.08 0.10 0.13 0.16 0.24 0.29 0.36 0.45 0.53 0.63 0.76 0.81 0.95 1.08
0.36 0.34 0.35 0.40 0.45 0.45 0.45 0.67 0.63 0.48 0.38 0.37 0.37 0.42 0.51 0.45 0.34 0.37 0.26 0.20 0.10 0.05 0.11 0.29 0.11 0.11 0.08 0.16 0.30 0.24 0.30 0.42 0.55 0.62 0.71 0.82 0.93 1.01
0.07 0.12 0.17 0.17 0.19 0.32 0.53 0.55 0.37 0.34 0.35 0.40 0.48 0.44 0.35 0.26 0.20 0.41 0.46 0.42 0.26 0.05 0.06 0.22 0.16 0.13 0.11 0.17 0.33 0.39 0.42 0.45 0.44 0.40 0.41 0.55 0.78 0.86
0.02 0.04 0.06 0.07 0.19 0.52 0.35 0.25 0.28 0.23 0.37 0.34 0.26 0.21 0.18 0.16 0.17 0.25 0.54 0.99 0.49 0.39 0.07 0.48 0.30 0.24 0.58 0.20 0.34 0.44 0.42 0.44 0.40 0.39 0.37 0.44 0.63 0.54
0.10 0.03 0.03 0.12 0.31 0.19 0.17 0.19 0.24 0.27 0.26 0.21 0.17 0.15 0.15 0.14 0.12 0.12 0.26 0.90 1.15 0.71 0.12 1.01 1.02 0.29 0.67 0.36 0.38 0.47 0.44 0.51 0.59 0.70 0.79 0.65 0.66 0.69
0.05 0.04 0.11 0.26 0.08 0.05 0.08 0.16 0.21 0.19 0.16 0.18 0.21 0.19 0.14 0.10 0.06 0.06 0.11 0.22 0.46 0.83 0.34 0.60 1.42 0.57 0.93 0.70 0.48 0.48 0.49 0.64 0.93 1.16 1.26 0.79 0.74 0.72
0.07 0.20 0.19 0.04 0.01 0.01 0.01 0.03 0.05 0.04 0.11 0.22 0.19 0.15 0.14 0.14 0.08 0.07 0.12 0.17 0.22 0.28 0.35 0.43 0.86 0.82 1.05 0.96 0.62 0.44 0.63 0.73 0.85 1.00 1.08 1.14 0.99 0.71
0.20 0.21 0.04 0.03 0.03 0.04 0.06 0.06 0.06 0.09 0.20 0.33 0.30 0.20 0.17 0.15 0.15 0.21 0.39 0.30 0.42 0.30 0.34 0.44 0.58 0.80 0.85 0.56 0.70 0.63 0.58 0.92 0.91 0.93 0.90 1.07 1.09 0.71
0.09 0.01 0.01 0.01 0.01 0.02 0.05 0.08 0.12 0.19 0.32 0.37 0.52 0.51 0.40 0.34 0.31 0.34 0.52 0.64 0.72 0.53 0.46 0.41 0.33 0.32 0.44 0.50 0.62 0.49 0.54 0.71 1.02 1.05 0.87 1.05 0.99 0.83
0.04 0.01 0.02 0.02 0.02 0.02 0.06 0.13 0.16 0.21 0.28 0.40 0.41 0.41 0.48 0.48 0.50 0.47 0.61 0.78 0.75 0.56 0.56 0.46 0.34 0.31 0.31 0.31 0.48 0.73 0.69 0.77 1.00 0.90 0.80 0.86 0.94 1.00
0.10 0.08 0.09 0.07 0.06 0.07 0.11 0.15 0.17 0.16 0.33 0.58 0.69 0.70 0.67 0.54 0.52 0.56 0.63 0.66 0.61 0.52 0.40 0.28 0.35 0.61 0.71 0.34 0.27 0.61 1.17 0.99 0.75 0.66 0.60 0.62 0.82 0.89
0.24 0.26 0.20 0.17 0.17 0.22 0.27 0.34 0.40 0.41 0.48 0.57 0.67 0.64 0.69 0.74 0.64 0.62 0.63 0.70 0.63 0.41 0.17 0.08 0.14 0.51 1.06 0.89 0.73 0.60 0.69 0.93 0.81 0.82 0.75 0.63 0.79 0.65
0.37 0.41 0.43 0.45 0.49 0.55 0.57 0.59 0.60 0.68 0.78 0.91 0.83 0.84 0.72 0.85 0.65 0.57 0.58 0.47 0.37 0.28 0.19 0.06 0.06 0.25 0.46 0.47 0.46 0.31 0.50 0.55 0.61 0.89 0.81 0.64 0.52 0.30
0.44 0.51 0.53 0.61 0.66 0.72 0.77 0.78 0.81 0.76 0.78 0.72 0.74 0.78 0.79 0.84 0.81 0.60 0.41 0.38 0.22 0.23 0.18 0.05 0.01 0.11 0.21 0.43 0.32 0.23 0.21 0.22 0.24 0.21 0.41 0.90 1.12 1.24
0.48 0.53 0.50 0.51 0.57 0.65 0.74 0.74 0.74 0.66 0.69 0.83 0.84 0.86 0.84 0.76 0.47 0.42 0.36 0.33 0.33 0.31 0.18 0.13 0.05 0.06 0.12 0.24 0.28 0.25 0.12 0.09 0.09 0.14 0.36 0.37 0.48 0.73

GFSNE_prec_precacc_135.txt.gz
Total_Precipitation_Accumulation
0.54 0.55 0.48 0.45 0.47 0.48 0.61 0.76 1.03 1.01 0.70 0.58 0.53 0.48 0.48 0.52 0.61 0.60 0.53 0.70 0.71 0.63 0.59 0.51 0.47 0.45 0.46 0.53 0.64 0.73 0.86 1.13 1.18 1.10 1.20 1.35 1.57 1.79
0.77 0.78 0.77 0.69 0.68 0.68 0.64 0.63 0.70 0.91 0.94 0.70 0.73 0.76 0.79 0.74 0.77 0.63 0.56 0.66 0.61 0.55 0.47 0.44 0.43 0.42 0.42 0.49 0.47 0.44 0.47 0.62 0.76 0.80 0.95 1.25 1.57 1.84
0.64 0.69 0.73 0.71 0.73 0.73 0.78 0.92 1.10 1.23 1.26 0.95 0.85 0.77 0.64 0.53 0.50 0.43 0.39 0.32 0.34 0.42 0.36 0.30 0.24 0.24 0.27 0.31 0.36 0.47 0.53 0.67 0.86 0.83 0.83 1.03 1.30 1.80
0.63 0.65 0.64 0.72 0.83 0.86 0.92 0.91 0.89 0.91 1.01 0.93 0.70 0.62 0.52 0.45 0.45 0.36 0.26 0.24 0.18 0.22 0.20 0.16 0.15 0.14 0.15 0.16 0.21 0.35 0.52 0.66 0.81 0.94 0.96 0.96 0.95 1.38
0.51 0.55 0.57 0.62 0.70 0.72 0.78 0.83 0.85 0.82 0.79 0.76 0.59 0.43 0.39 0.34 0.28 0.20 0.15 0.13 0.11 0.17 0.18 0.16 0.14 0.13 0.13 0.16 0.21 0.31 0.47 0.75 0.96 0.89 0.99 1.09 1.20 1.17
0.57 0.63 0.63 0.63 0.62 0.62 0.67 0.70 0.67 0.63 0.60 0.64 0.64 0.48 0.35 0.31 0.32 0.27 0.21 0.16 0.11 0.08 0.11 0.14 0.15 0.16 0.15 0.18 0.21 0.26 0.32 0.47 0.89 1.05 1.12 1.01 1.29 1.15
0.73 0.76 0.81 0.89 0.85 0.77 0.70 0.60 0.55 0.61 0.74 0.87 0.79 0.68 0.48 0.32 0.27 0.24 0.26 0.23 0.18 0.10 0.09 0.12 0.11 0.10 0.09 0.16 0.25 0.28 0.31 0.40 0.67 1.12 1.33 1.53 1.41 1.46
0.73 0.68 0.71 0.80 0.71 0.80 0.87 0.80 0.75 0.85 0.91 0.98 0.84 0.52 0.31 0.28 0.29 0.38 0.50 0.47 0.34 0.09 0.12 0.10 0.06 0.06 0.08 0.15 0.24 0.25 0.31 0.42 0.50 0.75 0.96 1.03 1.24 1.32
0.73 0.68 0.60 0.58 0.62 0.49 0.55 0.62 0.76 0.94 0.87 0.68 0.53 0.45 0.46 0.45 0.73 0.81 0.61 0.52 0.36 0.16 0.21 0.18 0.09 0.10 0.13 0.16 0.24 0.29 0.36 0.45 0.53 0.63 0.78 0.83 0.95 1.08
0.36 0.34 0.35 0.40 0.45 0.45 0.45 0.67 0.64 0.50 0.41 0.41 0.44 0.51 0.63 0.65 0.60 0.64 0.55 0.50 0.33 0.22 0.25 0.37 0.13 0.11 0.08 0.16 0.30 0.24 0.30 0.42 0.55 0.63 0.74 0.85 0.93 1.02
0.07 0.12 0.17 0.17 0.19 0.32 0.53 0.55 0.37 0.34 0.35 0.41 0.51 0.48 0.42 0.38 0.36 0.59 0.67 0.64 0.48 0.21 0.20 0.30 0.17 0.13 0.11 0.17 0.33 0.39 0.42 0.45 0.44 0.41 0.43 0.59 0.79 0.87
0.02 0.04 0.06 0.07 0.19 0.52 0.35 0.25 0.28 0.23 0.37 0.34 0.26 0.23 0.22 0.24 0.29 0.38 0.69 1.15 0.62 0.48 0.15 0.53 0.31 0.25 0.59 0.20 0.34 0.44 0.42 0.44 0.40 0.39 0.39 0.48 0.66 0.55
0.10 0.03 0.03 0.12 0.31 0.19 0.18 0.19 0.25 0.27 0.27 0.22 0.18 0.16 0.16 0.17 0.19 0.21 0.36 1.03 1.27 0.78 0.15 1.04 1.03 0.29 0.67 0.36 0.38 0.47 0.44 0.51 0.59 0.70 0.80 0.67 0.74 0.73
0.05 0.04 0.11 0.26 0.08 0.05 0.09 0.16 0.22 0.21 0.17 0.19 0.22 0.20 0.15 0.12 0.11 0.13 0.18 0.30 0.55 0.91 0.39 0.62 1.43 0.58 0.93 0.70 0.48 0.48 0.49 0.64 0.93 1.16 1.26 0.81 0.78 0.83
0.07 0.20 0.19 0.04 0.01 0.01 0.02 0.03 0.06 0.05 0.12 0.23 0.20 0.16 0.16 0.16 0.13 0.11 0.15 0.21 0.27 0.34 0.40 0.46 0.88 0.83 1.05 0.96 0.62 0.44 0.63 0.73 0.85 1.00 1.08 1.14 0.99 0.74
0.20 0.21 0.04 0.03 0.03 0.04 0.06 0.06 0.07 0.10 0.22 0.35 0.31 0.23 0.25 0.27 0.27 0.32 0.48 0.37 0.47 0.34 0.38 0.47 0.60 0.80 0.85 0.56 0.70 0.63 0.58 0.92 0.91 0.93 0.90 1.07 1.09 0.71
0.09 0.01 0.01 0.01 0.01 0.02 0.05 0.08 0.12 0.20 0.35 0.40 0.56 0.59 0.54 0.50 0.48 0.54 0.75 0.87 0.91 0.65 0.54 0.45 0.35 0.33 0.44 0.50 0.62 0.49 0.54 0.71 1.02 1.05 0.87 1.05 0.99 0.83
0.05 0.01 0.02 0.02 0.03 0.02 0.06 0.13 0.17 0.24 0.31 0.44 0.48 0.51 0.63 0.64 0.69 0.69 0.88 1.05 0.97 0.74 0.68 0.51 0.36 0.32 0.31 0.31 0.48 0.73 0.69 0.77 1.00 0.90 0.80 0.86 0.94 1.00
0.10 0.08 0.09 0.07 0.06 0.07 0.11 0.16 0.19 0.18 0.37 0.65 0.78 0.80 0.80 0.70 0.70 0.76 0.83 0.85 0.78 0.64 0.50 0.32 0.37 0.61 0.71 0.34 0.27 0.61 1.17 0.99 0.75 0.66 0.60 0.62 0.82 0.89
0.24 0.26 0.20 0.17 0.17 0.22 0.27 0.34 0.41 0.44 0.52 0.61 0.72 0.74 0.82 0.90 0.81 0.77 0.79 0.85 0.78 0.55 0.26 0.13 0.17 0.52 1.06 0.89 0.73 0.60 0.69 0.93 0.81 0.82 0.75 0.63 0.79 0.65
0.37 0.41 0.43 0.46 0.50 0.55 0.58 0.60 0.61 0.71 0.84 0.95 0.90 0.94 0.84 0.97 0.79 0.68 0.70 0.61 0.53 0.40 0.27 0.11 0.09 0.27 0.47 0.47 0.46 0.31 0.50 0.55 0.61 0.89 0.81 0.64 0.52 0.30
0.44 0.51 0.53 0.61 0.66 0.72 0.78 0.79 0.83 0.79 0.82 0.78 0.78 0.84 0.89 0.97 0.94 0.72 0.53 0.51 0.35 0.31 0.24 0.10 0.05 0.12 0.21 0.43 0.32 0.23 0.21 0.22 0.24 0.21 0.41 0.90 1.12 1.24
0.48 0.53 0.50 0.52 0.58 0.65 0.75 0.75 0.75 0.67 0.73 0.89 0.91 0.92 0.92 0.88 0.62 0.55 0.49 0.47 0.45 0.41 0.26 0.17 0.07 0.07 0.13 0.24 0.28 0.25 0.12 0.09 0.09 0.14 0.36 0.37 0.48 0.73

GFSNE_prec_precacc_138.txt.gz
Total_Precipitation_Accumulation
0.64 0.59 0.51 0.47 0.48 0.50 0.64 0.81 1.09 1.03 0.71 0.60 0.55 0.49 0.50 0.55 0.63 0.63 0.55 0.72 0.71 0.63 0.59 0.51 0.47 0.45 0.46 0.53 0.64 0.73 0.86 1.13 1.18 1.10 1.20 1.35 1.57 1.81
0.86 0.90 0.89 0.79 0.75 0.76 0.72 0.72 0.83 1.03 1.01 0.72 0.75 0.79 0.83 0.78 0.80 0.65 0.57 0.67 0.61 0.55 0.47 0.44 0.45 0.43 0.43 0.49 0.47 0.44 0.47 0.62 0.76 0.80 0.95 1.25 1.57 1.84
0.85 0.87 0.86 0.84 0.88 0.88 0.91 1.06 1.26 1.40 1.42 1.01 0.87 0.79 0.67 0.58 0.55 0.49 0.44 0.34 0.35 0.44 0.38 0.31 0.25 0.25 0.27 0.31 0.36 0.47 0.53 0.67 0.86 0.83 0.83 1.03 1.30 1.80
0.92 0.90 0.85 0.89 0.96 0.95 1.03 1.05 1.08 1.12 1.24 1.10 0.76 0.64 0.55 0.48 0.48 0.40 0.28 0.25 0.19 0.24 0.23 0.18 0.16 0.15 0.16 0.16 0.21 0.35 0.52 0.66 0.81 0.94 0.96 0.96 0.95 1.38
0.64 0.67 0.68 0.77 0.82 0.82 0.90 0.97 0.98 0.97 0.95 0.91 0.65 0.44 0.39 0.34 0.29 0.21 0.16 0.16 0.15 0.23 0.23 0.22 0.19 0.16 0.15 0.17 0.22 0.31 0.47 0.75 0.96 0.89 0.99 1.09 1.20 1.17
0.68 0.76 0.75 0.73 0.70 0.70 0.77 0.79 0.75 0.72 0.69 0.73 0.69 0.50 0.36 0.31 0.33 0.29 0.26 0.21 0.16 0.11 0.14 0.20 0.23 0.22 0.20 0.21 0.22 0.26 0.32 0.47 0.89 1.05 1.12 1.01 1.29 1.15
0.77 0.78 0.83 0.92 0.90 0.80 0.72 0.61 0.56 0.63 0.77 0.91 0.82 0.72 0.50 0.34 0.30 0.28 0.33 0.30 0.25 0.16 0.14 0.18 0.18 0.17 0.15 0.21 0.27 0.28 0.31 0.40 0.67 1.12 1.33 1.53 1.41 1.46
0.74 0.68 0.72 0.82 0.73 0.85 0.94 0.88 0.82 0.93 0.98 1.07 0.93 0.59 0.35 0.33 0.34 0.43 0.57 0.53 0.40 0.14 0.19 0.22 0.21 0.20 0.19 0.22 0.28 0.26 0.31 0.42 0.50 0.75 0.96 1.04 1.24 1.32
0.73 0.68 0.60 0.59 0.63 0.50 0.56 0.63 0.77 0.96 0.90 0.70 0.56 0.47 0.47 0.45 0.73 0.82 0.61 0.54 0.42 0.24 0.32 0.31 0.22 0.22 0.21 0.22 0.28 0.29 0.36 0.45 0.53 0.63 0.78 0.84 0.96 1.08
0.36 0.34 0.35 0.40 0.45 0.45 0.45 0.67 0.64 0.50 0.41 0.41 0.44 0.51 0.63 0.65 0.60 0.64 0.55 0.52 0.37 0.28 0.33 0.46 0.23 0.21 0.14 0.18 0.31 0.24 0.30 0.42 0.55 0.63 0.74 0.87 0.94 1.02
0.07 0.12 0.17 0.17 0.19 0.32 0.53 0.55 0.37 0.34 0.35 0.41 0.51 0.48 0.42 0.38 0.36 0.59 0.67 0.65 0.49 0.24 0.25 0.36 0.25 0.19 0.15 0.19 0.34 0.40 0.42 0.45 0.44 0.41 0.44 0.64 0.81 0.87
0.02 0.04 0.06 0.07 0.19 0.52 0.35 0.25 0.28 0.23 0.37 0.34 0.26 0.23 0.22 0.24 0.29 0.38 0.69 1.15 0.62 0.49 0.16 0.55 0.34 0.28 0.62 0.22 0.36 0.45 0.42 0.44 0.40 0.39 0.41 0.54 0.70 0.55
0.10 0.03 0.03 0.12 0.31 0.19 0.18 0.19 0.25 0.27 0.27 0.22 0.18 0.16 0.16 0.17 0.19 0.21 0.36 1.03 1.27 0.79 0.16 1.05 1.04 0.32 0.71 0.39 0.41 0.49 0.44 0.51 0.59 0.70 0.82 0.72 0.78 0.74
0.05 0.04 0.11 0.26 0.08 0.05 0.09 0.16 0.22 0.21 0.17 0.19 0.22 0.21 0.16 0.14 0.13 0.15 0.21 0.32 0.57 0.93 0.43 0.66 1.46 0.62 0.98 0.74 0.51 0.50 0.49 0.64 0.93 1.16 1.26 0.83 0.81 0.89
0.07 0.20 0.20 0.05 0.02 0.01 0.02 0.04 0.06 0.05 0.12 0.23 0.20 0.17 0.16 0.19 0.21 0.23 0.27 0.30 0.34 0.39 0.47 0.54 0.98 0.94 1.14 1.02 0.66 0.46 0.64 0.73 0.85 1.00 1.08 1.15 1.00 0.78
0.20 0.21 0.04 0.03 0.04 0.04 0.06 0.07 0.07 0.10 0.23 0.35 0.32 0.24 0.26 0.31 0.36 0.44 0.63 0.51 0.63 0.48 0.50 0.60 0.77 0.97 0.97 0.63 0.75 0.65 0.58 0.92 0.91 0.93 0.90 1.08 1.10 0.74
0.09 0.01 0.01 0.01 0.01 0.02 0.05 0.08 0.12 0.20 0.35 0.40 0.56 0.60 0.55 0.54 0.57 0.64 0.90 1.04 1.08 0.77 0.68 0.62 0.53 0.52 0.60 0.60 0.67 0.52 0.55 0.71 1.02 1.05 0.87 1.05 1.00 0.85
0.05 0.01 0.02 0.02 0.03 0.02 0.06 0.13 0.17 0.24 0.31 0.45 0.49 0.52 0.64 0.65 0.72 0.75 0.98 1.17 1.13 0.91 0.88 0.74 0.58 0.53 0.47 0.41 0.53 0.75 0.70 0.77 1.00 0.90 0.80 0.86 0.94 1.01
0.10 0.08 0.09 0.07 0.06 0.07 0.11 0.16 0.19 0.18 0.37 0.65 0.78 0.80 0.81 0.72 0.75 0.82 0.91 0.96 0.90 0.75 0.62 0.48 0.54 0.78 0.85 0.45 0.34 0.63 1.18 0.99 0.75 0.66 0.60 0.62 0.82 0.89
0.24 0.26 0.20 0.17 0.17 0.22 0.27 0.34 0.42 0.44 0.52 0.61 0.73 0.75 0.85 0.94 0.86 0.81 0.83 0.92 0.87 0.65 0.38 0.25 0.30 0.65 1.19 0.99 0.81 0.62 0.69 0.93 0.81 0.82 0.75 0.63 0.79 0.65
0.37 0.41 0.43 0.46 0.50 0.55 0.58 0.60 0.62 0.72 0.85 0.96 0.90 0.96 0.86 1.00 0.82 0.71 0.74 0.69 0.65 0.53 0.39 0.20 0.19 0.40 0.59 0.55 0.51 0.32 0.50 0.55 0.61 0.89 0.81 0.64 0.52 0.30
0.44 0.51 0.53 0.61 0.66 0.73 0.78 0.79 0.83 0.80 0.83 0.79 0.79 0.85 0.90 1.00 0.97 0.76 0.58 0.58 0.45 0.39 0.36 0.25 0.25 0.26 0.27 0.47 0.34 0.24 0.22 0.22 0.24 0.21 0.41 0.90 1.12 1.24
0.48 0.53 0.50 0.52 0.58 0.65 0.75 0.75 0.75 0.68 0.74 0.90 0.93 0.94 0.94 0.91 0.65 0.60 0.55 0.55 0.55 0.52 0.38 0.30 0.21 0.15 0.16 0.28 0.32 0.26 0.12 0.09 0.09 0.14 0.36 0.37 0.48 0.73